[[{"header":{"parameterUnit":"m.s-1","parameterCategory":1,"la1":30.6,"la2":29.2853,"lo1":-89.7004,"lo2":-87.6739,"dy":0.0162,"dx":0.0183,"nx":112,"ny":82,"refTime":"2024-03-14T18:00:00:Z","depth":0,"parameterNumber":2,"parameterNumberName":"U-component_of_WINDS"},"data":[0.0,0.0,0.0,0.0,0.0,0.0,0.0,0.0,0.0,0.0,0.0,0.0,0.0,0.0,0.0,0.0,0.0,0.0,0.0,0.0,0.0,0.0,0.0,0.0,0.0,0.0,0.0,0.0,0.0,0.0,0.0,0.0,0.0,0.0,0.0,0.0,0.0,0.0,0.0,0.0,0.0,0.0,0.0,0.0,0.0,0.0,0.0,0.0,0.0,0.0,0.0,0.0,0.0,0.0,0.0,0.0,0.0,0.0,0.0,0.0,0.0,0.0,0.0,0.0,0.0,0.0,0.0,0.0,0.0,0.0,0.0,0.0,0.0,0.0,0.0,0.0,0.0,0.0,0.0,0.0,0.0,0.0,0.0,0.0,0.0,0.0,0.0,0.0,0.0,0.0,4.3811,4.9059,5.4557,5.7234,5.5744,5.5243,5.225,4.5828,0.0,0.0,0.0,0.0,0.0,0.0,0.0,0.0,0.0,0.0,0.0,0.0,0.0,0.0,0.0,0.0,0.0,0.0,0.0,0.0,0.0,0.0,0.0,0.0,0.0,0.0,0.0,0.0,0.0,0.0,0.0,0.0,0.0,0.0,0.0,0.0,0.0,0.0,0.0,0.0,0.0,0.0,0.0,0.0,0.0,0.0,0.0,0.0,0.0,0.0,0.0,0.0,0.0,0.0,0.0,0.0,0.0,0.0,0.0,0.0,0.0,0.0,0.0,0.0,0.0,0.0,0.0,0.0,0.0,0.0,0.0,0.0,0.0,0.0,0.0,0.0,0.0,0.0,0.0,0.0,0.0,0.0,0.0,0.0,0.0,0.0,0.0,0.0,0.0,0.0,0.0,0.0,0.0,0.0,0.0,0.0,0.0,0.0,0.0,0.0,0.0,0.0,0.0,0.0,4.3665,5.3104,5.6964,5.8481,5.7495,5.543,5.2191,4.751,0.0,0.0,0.0,0.0,0.0,0.0,0.0,0.0,0.0,0.0,0.0,0.0,0.0,0.0,0.0,0.0,0.0,0.0,0.0,0.0,0.0,0.0,0.0,0.0,0.0,0.0,0.0,0.0,0.0,0.0,0.0,0.0,0.0,0.0,0.0,0.0,0.0,0.0,0.0,0.0,0.0,0.0,0.0,0.0,0.0,0.0,0.0,0.0,0.0,0.0,0.0,0.0,0.0,0.0,0.0,0.0,0.0,0.0,0.0,0.0,0.0,0.0,0.0,0.0,0.0,0.0,0.0,0.0,0.0,0.0,0.0,0.0,0.0,0.0,0.0,0.0,0.0,0.0,0.0,0.0,0.0,0.0,0.0,0.0,0.0,0.0,0.0,0.0,0.0,0.0,0.0,0.0,0.0,0.0,0.0,0.0,0.0,0.0,0.0,0.0,0.0,0.0,0.0,4.3685,4.8117,5.5648,5.8421,5.9201,5.7908,5.585,5.2616,4.79,4.345,0.0,0.0,0.0,0.0,0.0,0.0,0.0,0.0,0.0,0.0,0.0,0.0,0.0,0.0,0.0,0.0,0.0,0.0,0.0,0.0,0.0,0.0,0.0,0.0,0.0,0.0,0.0,0.0,0.0,0.0,0.0,0.0,0.0,0.0,0.0,0.0,0.0,0.0,0.0,0.0,0.0,0.0,0.0,0.0,0.0,0.0,0.0,0.0,0.0,0.0,0.0,0.0,0.0,0.0,0.0,0.0,0.0,0.0,0.0,0.0,0.0,0.0,0.0,0.0,0.0,0.0,0.0,0.0,0.0,0.0,0.0,0.0,0.0,0.0,0.0,0.0,0.0,0.0,0.0,0.0,0.0,0.0,0.0,0.0,0.0,0.0,0.0,0.0,0.0,0.0,0.0,0.0,0.0,0.0,0.0,0.0,0.0,0.0,0.0,0.0,0.0,0.0,4.8971,5.2552,5.7147,5.9056,5.9482,5.8194,5.5756,5.245,4.8166,4.2432,0.0,0.0,0.0,0.0,0.0,0.0,0.0,0.0,0.0,0.0,0.0,0.0,0.0,0.0,0.0,0.0,0.0,0.0,0.0,0.0,0.0,0.0,0.0,0.0,0.0,0.0,0.0,0.0,0.0,0.0,0.0,0.0,0.0,0.0,0.0,0.0,0.0,0.0,0.0,0.0,0.0,0.0,0.0,0.0,0.0,0.0,0.0,0.0,0.0,0.0,0.0,0.0,0.0,0.0,0.0,0.0,0.0,0.0,0.0,0.0,0.0,0.0,0.0,0.0,0.0,0.0,0.0,0.0,0.0,0.0,0.0,0.0,0.0,0.0,0.0,0.0,0.0,0.0,0.0,0.0,0.0,0.0,0.0,0.0,0.0,0.0,0.0,0.0,0.0,0.0,0.0,0.0,0.0,0.0,0.0,0.0,0.0,0.0,0.0,0.0,0.0,0.0,4.9469,5.4596,5.7399,5.8529,5.9053,5.902,5.4507,5.0811,4.886,4.1647,0.0,0.0,0.0,0.0,0.0,0.0,0.0,0.0,0.0,0.0,0.0,0.0,0.0,0.0,0.0,0.0,0.0,0.0,0.0,0.0,0.0,0.0,0.0,0.0,0.0,0.0,0.0,0.0,0.0,0.0,0.0,0.0,0.0,0.0,0.0,0.0,0.0,0.0,0.0,0.0,0.0,0.0,0.0,0.0,0.0,0.0,0.0,0.0,0.0,0.0,0.0,0.0,0.0,0.0,0.0,0.0,0.0,0.0,0.0,0.0,0.0,0.0,0.0,0.0,0.0,0.0,0.0,0.0,0.0,0.0,0.0,0.0,0.0,0.0,0.0,0.0,0.0,0.0,0.0,0.0,0.0,0.0,0.0,0.0,0.0,0.0,0.0,0.0,0.0,0.0,0.0,0.0,0.0,0.0,0.0,0.0,0.0,0.0,0.0,0.0,0.0,0.0,4.942,5.4227,5.7313,5.8939,5.959,5.91,5.5294,5.1525,4.8191,0.0,0.0,0.0,0.0,0.0,0.0,0.0,0.0,0.0,0.0,0.0,0.0,0.0,0.0,0.0,0.0,0.0,0.0,0.0,0.0,0.0,0.0,0.0,0.0,0.0,0.0,0.0,0.0,0.0,0.0,0.0,0.0,0.0,0.0,0.0,0.0,0.0,0.0,0.0,0.0,0.0,0.0,0.0,0.0,0.0,0.0,0.0,0.0,0.0,0.0,0.0,0.0,0.0,0.0,0.0,0.0,0.0,0.0,0.0,0.0,0.0,0.0,0.0,0.0,0.0,0.0,0.0,0.0,0.0,0.0,0.0,0.0,0.0,0.0,0.0,0.0,0.0,0.0,0.0,0.0,0.0,0.0,0.0,0.0,0.0,0.0,0.0,0.0,0.0,0.0,0.0,0.0,0.0,0.0,0.0,0.0,0.0,0.0,0.0,0.0,0.0,0.0,4.4781,5.0421,5.4986,5.813,5.9328,5.9542,5.8646,5.496,5.1083,4.7323,0.0,0.0,0.0,0.0,0.0,0.0,0.0,0.0,0.0,0.0,0.0,0.0,0.0,0.0,0.0,0.0,0.0,0.0,0.0,0.0,0.0,0.0,0.0,0.0,0.0,0.0,0.0,0.0,0.0,0.0,0.0,0.0,0.0,0.0,0.0,0.0,0.0,0.0,0.0,0.0,0.0,0.0,0.0,0.0,0.0,0.0,0.0,0.0,0.0,0.0,0.0,0.0,0.0,0.0,0.0,0.0,0.0,0.0,0.0,0.0,0.0,0.0,0.0,0.0,0.0,0.0,0.0,0.0,0.0,0.0,0.0,0.0,0.0,0.0,0.0,0.0,0.0,0.0,0.0,0.0,0.0,0.0,0.0,0.0,0.0,0.0,0.0,0.0,0.0,0.0,0.0,0.0,0.0,0.0,0.0,0.0,0.0,0.0,0.0,0.0,0.0,0.0,4.6597,5.265,5.7371,6.001,5.9503,5.8646,5.7749,5.305,4.901,0.0,0.0,0.0,0.0,0.0,0.0,0.0,0.0,0.0,0.0,0.0,0.0,0.0,0.0,0.0,0.0,0.0,0.0,0.0,0.0,0.0,0.0,0.0,0.0,0.0,0.0,0.0,0.0,0.0,0.0,0.0,0.0,0.0,0.0,0.0,0.0,0.0,0.0,0.0,0.0,0.0,0.0,0.0,0.0,0.0,0.0,0.0,0.0,0.0,0.0,0.0,0.0,0.0,0.0,0.0,0.0,0.0,0.0,0.0,0.0,0.0,0.0,0.0,0.0,0.0,0.0,0.0,0.0,0.0,0.0,0.0,0.0,0.0,0.0,0.0,0.0,0.0,0.0,0.0,0.0,0.0,0.0,0.0,0.0,0.0,0.0,0.0,0.0,0.0,0.0,0.0,0.0,0.0,0.0,0.0,0.0,0.0,0.0,0.0,0.0,0.0,0.0,0.0,4.578,5.2347,5.6961,5.8334,5.8802,5.8412,5.697,5.3783,4.9971,4.5552,0.0,0.0,0.0,0.0,0.0,0.0,0.0,0.0,0.0,0.0,0.0,0.0,0.0,0.0,0.0,0.0,0.0,0.0,0.0,0.0,0.0,0.0,0.0,0.0,0.0,0.0,0.0,0.0,0.0,0.0,0.0,0.0,0.0,0.0,0.0,0.0,0.0,0.0,0.0,0.0,0.0,0.0,0.0,0.0,0.0,0.0,0.0,0.0,0.0,0.0,0.0,0.0,0.0,0.0,0.0,0.0,0.0,0.0,0.0,0.0,0.0,0.0,0.0,0.0,0.0,0.0,0.0,0.0,0.0,0.0,0.0,0.0,0.0,0.0,0.0,0.0,0.0,0.0,0.0,0.0,0.0,0.0,0.0,0.0,0.0,0.0,0.0,0.0,0.0,0.0,0.0,0.0,0.0,0.0,0.0,0.0,0.0,0.0,0.0,0.0,0.0,0.0,4.6402,5.2628,5.6931,5.81,5.8685,5.8343,5.6636,5.4103,5.0563,4.5713,0.0,0.0,0.0,0.0,0.0,0.0,0.0,0.0,0.0,0.0,0.0,0.0,0.0,0.0,0.0,0.0,0.0,0.0,0.0,0.0,0.0,0.0,0.0,0.0,0.0,0.0,0.0,0.0,0.0,0.0,0.0,0.0,0.0,0.0,0.0,0.0,0.0,0.0,0.0,0.0,0.0,0.0,0.0,0.0,0.0,0.0,0.0,0.0,0.0,0.0,0.0,0.0,0.0,0.0,0.0,0.0,0.0,0.0,0.0,0.0,0.0,0.0,0.0,0.0,0.0,0.0,0.0,0.0,0.0,0.0,0.0,0.0,0.0,0.0,0.0,0.0,0.0,0.0,0.0,0.0,0.0,0.0,0.0,0.0,0.0,0.0,0.0,0.0,0.0,0.0,0.0,0.0,0.0,0.0,0.0,0.0,0.0,0.0,0.0,0.0,0.0,0.0,4.7726,5.3213,5.7126,5.8724,5.8957,5.8304,5.6644,5.4117,5.081,4.6577,0.0,0.0,0.0,0.0,0.0,0.0,0.0,0.0,0.0,0.0,0.0,0.0,0.0,0.0,0.0,0.0,0.0,0.0,0.0,0.0,0.0,0.0,0.0,0.0,0.0,0.0,0.0,0.0,0.0,0.0,0.0,0.0,0.0,0.0,0.0,0.0,0.0,0.0,0.0,0.0,0.0,0.0,0.0,0.0,0.0,0.0,0.0,0.0,0.0,0.0,0.0,0.0,0.0,0.0,0.0,0.0,0.0,0.0,0.0,0.0,4.9956,0.0,0.0,0.0,0.0,0.0,0.0,0.0,0.0,0.0,0.0,0.0,0.0,0.0,0.0,0.0,0.0,0.0,0.0,0.0,0.0,0.0,0.0,0.0,0.0,0.0,0.0,0.0,0.0,0.0,0.0,0.0,0.0,0.0,0.0,0.0,0.0,0.0,0.0,0.0,0.0,0.0,4.6909,5.2823,5.6892,5.7866,5.8607,5.8334,5.6628,5.411,5.1076,4.745,4.3032,0.0,0.0,0.0,0.0,0.0,0.0,0.0,0.0,0.0,0.0,0.0,0.0,0.0,0.0,0.0,0.0,0.0,0.0,0.0,0.0,0.0,0.0,0.0,0.0,0.0,0.0,0.0,0.0,0.0,0.0,0.0,0.0,0.0,0.0,0.0,0.0,0.0,0.0,0.0,0.0,0.0,0.0,0.0,0.0,0.0,0.0,0.0,0.0,0.0,0.0,0.0,0.0,0.0,0.0,0.0,0.0,0.0,0.0,0.0,0.0,5.0696,0.0,0.0,0.0,0.0,0.0,0.0,0.0,0.0,0.0,0.0,0.0,0.0,0.0,0.0,0.0,0.0,0.0,0.0,0.0,0.0,0.0,0.0,0.0,0.0,0.0,0.0,0.0,0.0,0.0,0.0,0.0,0.0,0.0,0.0,0.0,0.0,0.0,0.0,0.0,0.0,4.7829,5.287,5.6191,5.7009,5.7866,5.7875,5.6597,5.4858,5.2571,4.9568,4.5728,0.0,0.0,0.0,0.0,0.0,0.0,0.0,0.0,0.0,0.0,0.0,0.0,0.0,0.0,0.0,0.0,0.0,0.0,0.0,0.0,0.0,0.0,0.0,0.0,0.0,0.0,0.0,0.0,0.0,0.0,0.0,0.0,0.0,0.0,0.0,0.0,0.0,0.0,0.0,0.0,0.0,0.0,0.0,0.0,0.0,0.0,0.0,0.0,0.0,0.0,0.0,0.0,0.0,5.6464,5.7165,5.7165,5.7009,5.736,5.7905,5.3502,5.2645,5.4203,5.2021,0.0,0.0,0.0,0.0,0.0,0.0,0.0,0.0,0.0,0.0,0.0,0.0,0.0,0.0,0.0,0.0,0.0,0.0,0.0,0.0,0.0,0.0,0.0,0.0,4.7439,4.7829,0.0,0.0,0.0,0.0,0.0,0.0,0.0,0.0,0.0,0.0,0.0,0.0,4.9169,5.319,5.5762,5.6619,5.7282,5.7446,5.6769,5.5769,5.4222,5.1966,4.8738,4.5464,0.0,0.0,0.0,0.0,0.0,0.0,0.0,0.0,0.0,0.0,0.0,0.0,0.0,0.0,0.0,0.0,0.0,0.0,0.0,0.0,0.0,0.0,0.0,0.0,0.0,0.0,0.0,0.0,0.0,0.0,0.0,0.0,4.6839,4.8592,0.0,0.0,0.0,0.0,0.0,0.0,0.0,0.0,0.0,0.0,0.0,0.0,0.0,5.6269,5.6853,5.8607,5.9464,5.9464,5.9698,5.9815,5.9776,5.9035,5.9152,5.9893,5.8451,0.0,5.6113,5.5801,0.0,0.0,0.0,0.0,0.0,0.0,0.0,0.0,0.0,0.0,0.0,0.0,0.0,0.0,0.0,0.0,0.0,0.0,0.0,0.0,0.0,0.0,5.4009,5.1896,5.2325,5.2715,0.0,4.5258,3.9714,3.7021,3.6009,0.0,0.0,0.0,0.0,0.0,0.0,0.0,4.9309,5.3689,5.6619,5.7438,5.7633,5.768,5.7627,5.612,5.4729,5.3637,5.1079,4.8699,4.6733,4.2646,0.0,0.0,0.0,0.0,0.0,0.0,0.0,0.0,0.0,0.0,0.0,0.0,0.0,0.0,0.0,0.0,0.0,0.0,0.0,0.0,0.0,0.0,0.0,0.0,0.0,0.0,0.0,0.0,0.0,4.8397,5.0073,5.0852,5.1671,5.2177,0.0,0.0,0.0,0.0,0.0,0.0,0.0,0.0,0.0,5.7438,5.8256,5.9035,5.9893,6.114,6.1763,6.1763,6.2231,6.2426,6.2426,6.2036,6.2075,6.2426,6.2036,6.1179,5.9932,5.7983,5.6503,5.5372,0.0,0.0,0.0,0.0,5.3892,5.3697,5.5139,5.5022,0.0,5.3502,0.0,0.0,0.0,0.0,0.0,0.0,0.0,0.0,0.0,0.0,5.648,5.5645,5.6121,5.6402,5.5077,5.2122,4.8217,0.0,4.1902,4.0468,3.6696,0.0,0.0,0.0,0.0,4.6699,5.093,5.397,5.6074,5.6931,5.7009,5.7057,5.7081,5.6354,5.5555,5.4702,5.2684,5.1006,4.9752,4.5997,4.2759,0.0,0.0,0.0,0.0,0.0,0.0,0.0,0.0,0.0,0.0,0.0,0.0,0.0,0.0,0.0,0.0,0.0,0.0,0.0,0.0,0.0,0.0,0.0,0.0,0.0,0.0,0.0,0.0,5.0735,5.2099,5.2567,5.358,5.4164,0.0,0.0,0.0,0.0,0.0,0.0,5.8295,5.8373,5.9269,6.1218,6.1257,6.1802,6.2893,6.3556,6.3984,6.4218,6.4803,6.5192,6.5426,6.5426,6.5426,6.5426,6.4958,6.4413,6.3634,6.036,5.8763,5.8256,5.7009,5.6386,5.6269,5.6892,5.6736,5.6425,5.8334,5.8178,5.697,5.5879,5.4944,5.3853,5.171,0.0,0.0,0.0,0.0,5.5514,5.6784,5.7797,5.8429,5.8382,5.9014,5.9256,5.7783,5.7283,5.5287,0.0,4.7805,4.6215,4.1344,0.0,0.0,0.0,0.0,4.952,5.2543,5.4445,5.5762,5.6425,5.6503,5.6519,5.6496,5.6517,5.6218,5.5616,5.4167,5.2957,5.2099,4.9118,4.6304,4.3743,0.0,0.0,0.0,0.0,0.0,0.0,0.0,0.0,0.0,0.0,0.0,0.0,0.0,0.0,0.0,0.0,0.0,0.0,0.0,0.0,0.0,0.0,0.0,0.0,0.0,0.0,0.0,0.0,0.0,5.2411,5.4087,0.0,0.0,0.0,0.0,5.6503,5.7905,5.9191,6.0126,6.0165,6.1334,6.3828,6.3906,6.4725,6.6439,6.6478,6.6907,6.7725,6.7764,6.8232,6.905,6.905,6.905,6.8933,6.7296,6.6556,6.6322,6.3711,6.1646,6.0165,6.0088,5.9542,5.8802,5.8841,5.8841,5.8841,5.8957,5.8957,5.8996,5.9737,5.9386,5.849,5.7555,5.7282,0.0,0.0,5.81,5.8763,5.8841,5.9503,6.0165,6.0165,6.0828,6.1227,6.0309,5.9464,5.7575,0.0,5.2292,5.1661,4.979,0.0,4.8624,4.951,5.0463,5.1771,5.3619,5.5372,5.6464,5.6503,5.6503,5.648,5.6517,5.6485,5.6497,5.6523,5.5606,5.4697,5.3894,5.2032,4.9841,4.7299,4.308,0.0,0.0,0.0,0.0,0.0,0.0,0.0,0.0,0.0,0.0,0.0,0.0,0.0,0.0,0.0,0.0,0.0,0.0,0.0,0.0,0.0,0.0,0.0,0.0,0.0,0.0,0.0,0.0,5.5022,5.6619,0.0,5.7204,5.849,5.9503,5.9776,6.0809,6.2055,6.3517,6.3575,6.4509,6.6556,6.6595,6.718,6.8349,6.8388,6.8543,6.8855,6.8855,6.9011,6.9284,6.9284,6.9284,6.9284,6.8621,6.8388,6.8271,6.679,6.4803,6.2698,6.2192,6.1763,6.149,6.149,6.114,6.075,6.1334,6.0789,5.9698,5.888,5.8061,5.7438,5.7633,5.7711,5.7944,5.9074,5.9581,5.9971,6.0516,6.0906,6.114,6.114,6.1383,6.1517,6.1214,6.0902,6.0044,5.7977,5.6207,5.432,5.2083,5.238,5.245,5.1069,5.2536,5.4039,5.4671,5.5762,5.6503,5.6503,5.6503,5.648,5.6517,5.651,5.629,5.5786,5.4909,5.4039,5.3181,5.1999,5.0667,4.9196,4.6582,4.2997,0.0,0.0,0.0,0.0,0.0,0.0,0.0,0.0,0.0,0.0,0.0,0.0,0.0,0.0,0.0,0.0,0.0,0.0,0.0,0.0,0.0,0.0,0.0,0.0,0.0,5.584,5.7399,5.7749,5.9503,6.0516,5.9932,6.1169,6.2143,6.2426,6.3486,6.4733,6.6205,6.6262,6.7197,6.9206,6.9284,6.9829,7.0998,7.0998,7.0998,7.0998,7.0998,7.0881,7.057,7.0881,7.0687,7.0141,7.0141,6.9985,6.9673,6.8816,6.7257,6.5309,6.4179,6.3556,6.3283,6.3283,6.2932,6.2542,6.3088,6.2542,6.1373,6.0243,5.9308,5.8763,5.9269,5.923,5.9269,6.0399,6.075,6.0867,6.1451,6.1607,6.1607,6.1607,6.1616,6.1595,6.1612,6.158,6.1424,6.0839,5.9092,5.7087,5.5116,5.5732,5.5879,5.4142,5.5381,5.6464,5.6464,5.6736,5.6892,5.6892,5.6658,5.648,5.651,5.6237,5.5822,5.5309,5.4206,5.3181,5.2283,5.1414,5.055,4.9669,4.7401,4.4246,4.0207,0.0,0.0,0.0,0.0,0.0,0.0,0.0,0.0,0.0,0.0,0.0,0.0,0.0,0.0,0.0,0.0,0.0,0.0,0.0,0.0,0.0,0.0,0.0,5.658,5.8022,5.9425,6.0321,6.262,6.3517,6.1919,6.4031,6.5122,6.4296,6.5823,6.7186,6.8076,6.8154,6.9284,7.1817,7.1895,7.2674,7.4388,7.4388,7.4388,7.4388,7.4388,7.396,7.3181,7.3999,7.3492,7.1895,7.1895,7.1427,7.0609,6.9751,6.8855,6.7881,6.6166,6.4958,6.4179,6.4179,6.4179,6.414,6.4101,6.4101,6.4101,6.4101,6.3556,6.2932,6.2932,6.2348,6.1685,6.1685,6.1685,6.1685,6.1685,6.1685,6.1685,6.1685,6.1685,6.1655,6.1666,6.1658,6.1642,6.1588,6.0917,6.0075,5.92,5.9035,5.9035,5.8996,5.8996,0.0,5.8996,5.8256,5.7749,5.7749,5.7009,5.655,5.6527,5.573,5.5204,5.5143,5.361,5.2283,5.1435,5.055,4.9685,4.886,4.5542,4.2967,4.1172,0.0,0.0,0.0,0.0,0.0,0.0,0.0,0.0,0.0,0.0,0.0,0.0,0.0,0.0,0.0,0.0,0.0,0.0,0.0,0.0,0.0,5.6475,5.7575,5.8217,5.9757,6.1393,6.2893,6.4237,6.5133,6.527,6.6507,6.7208,6.6946,6.8511,6.9835,7.0726,7.1366,7.23,7.3648,7.3687,7.3921,7.4388,7.4388,7.4388,7.4388,7.4388,7.4272,7.4038,7.4272,7.4155,7.3687,7.3687,7.3181,7.2362,7.1466,7.0258,6.8816,6.7725,6.6751,6.6011,6.6011,6.5582,6.4958,6.4335,6.4101,6.4101,6.4101,6.3945,6.3789,6.3789,6.3595,6.34,6.34,6.34,6.34,6.34,6.34,6.34,6.34,6.34,6.3244,6.2678,6.2561,6.2357,6.1703,6.1431,6.0954,6.0088,5.9932,5.9737,5.9113,5.8996,0.0,5.8996,5.8802,5.8646,5.8646,5.7866,5.7368,5.7432,5.6074,5.4957,5.4357,5.2713,5.1654,5.1396,5.055,4.9985,4.9763,4.7562,4.5304,0.0,0.0,0.0,0.0,0.0,0.0,0.0,0.0,0.0,0.0,0.0,0.0,0.0,0.0,0.0,0.0,0.0,0.0,0.0,0.0,0.0,0.0,5.8491,5.9864,6.1451,6.2502,6.362,6.5026,6.624,6.7214,6.7725,6.8861,6.955,6.9596,7.1147,7.2315,7.2869,7.3364,7.4014,7.4872,7.4922,7.5117,7.5456,7.5468,7.548,7.548,7.548,7.5285,7.4973,7.5324,7.509,7.4388,7.4388,7.4116,7.357,7.2713,7.1778,0.0,0.0,0.0,0.0,0.0,6.6595,6.6439,6.5894,6.5738,6.5738,6.5738,6.5231,6.4647,6.4647,6.4374,6.4101,6.4101,6.4101,6.4101,6.4101,6.4101,6.4101,6.4101,6.4101,6.3984,6.3526,6.3457,6.3302,6.2795,6.2678,0.0,6.1529,6.1101,6.0672,6.0165,6.0088,6.0088,6.0088,5.9776,5.9542,5.9542,5.8763,5.8109,5.7767,5.6535,0.0,0.0,0.0,5.1074,5.0332,4.9809,0.0,0.0,0.0,4.803,4.6933,0.0,0.0,0.0,4.3794,4.3119,0.0,0.0,0.0,0.0,0.0,0.0,0.0,0.0,0.0,0.0,0.0,0.0,0.0,0.0,0.0,0.0,6.0672,6.2551,6.5182,6.5645,6.6088,6.7013,6.8526,6.9565,6.9702,7.1109,7.2029,7.2078,7.3549,7.447,7.4533,0.0,0.0,0.0,0.0,7.6469,7.7183,7.726,7.7272,7.7272,7.7272,7.6882,7.6142,7.6843,7.6298,7.4817,7.4739,7.4583,7.435,7.357,7.3064,7.2518,6.9362,6.7569,6.6712,6.6712,6.718,6.7842,6.7842,0.0,0.0,6.7959,6.6946,6.5699,6.5699,6.5153,6.453,6.4413,6.4374,6.4374,6.4374,6.4374,6.4374,6.4374,6.4374,6.4384,6.4324,6.4333,6.4294,6.4216,6.4177,6.3934,6.3166,6.2309,6.1724,6.1607,6.1607,6.1607,6.1607,6.0906,6.0438,6.0438,0.0,0.0,5.8061,5.7159,5.5932,5.4294,5.264,5.0962,4.9307,4.9346,4.9346,4.9229,5.0087,5.0912,5.1664,5.2567,5.3035,5.2996,4.6752,4.5421,0.0,0.0,0.0,0.0,0.0,0.0,0.0,0.0,0.0,0.0,0.0,0.0,0.0,0.0,0.0,6.1567,6.2324,6.3453,6.6096,6.7554,6.8695,6.9667,7.068,7.1575,7.2289,7.3262,7.3885,7.3885,7.4808,7.534,7.5365,7.6636,7.7467,7.7689,7.839,7.8832,7.9013,7.9026,7.9026,7.9026,0.0,0.0,7.8753,7.8285,7.7857,7.7506,7.6804,7.5713,7.4388,7.4233,7.2947,7.0959,6.9596,6.8076,6.6712,6.6712,6.6829,6.6946,6.6946,6.6946,6.7063,6.7764,6.7764,6.7491,6.7491,6.7374,0.0,6.64,6.6205,6.6205,6.6205,6.6205,6.6205,6.6205,6.6205,6.6011,6.5319,6.5163,6.4968,6.4267,6.4111,6.4072,6.3906,6.3205,6.2426,6.1724,6.1607,6.1607,6.1607,6.1451,6.1334,6.1334,6.0555,5.9971,5.9815,5.8437,5.7088,5.6049,5.4401,5.304,5.2005,5.2635,5.2679,5.196,5.274,5.3241,5.3429,5.4287,5.506,5.5723,5.3682,5.2707,0.0,0.0,0.0,0.0,0.0,0.0,0.0,0.0,0.0,0.0,0.0,5.6661,5.9698,0.0,6.0544,6.3614,6.4438,6.5465,6.7642,6.9383,7.0628,7.1093,7.1913,7.2757,7.3664,7.4496,7.5145,7.5651,7.643,7.7053,7.7534,7.8351,7.8819,7.8858,7.926,7.9507,7.9507,7.9481,7.9493,7.9493,7.9493,7.9493,7.9493,7.9065,7.8909,7.887,7.8012,7.6921,7.5635,7.4778,7.3142,7.1154,7.0726,6.9518,6.7959,6.753,6.7647,6.7959,6.7491,6.7335,6.7413,6.7881,6.7686,6.7335,6.7335,6.7335,6.7257,6.6829,6.6712,6.6712,6.6712,6.6712,6.6712,6.6712,6.6712,6.6595,6.6127,6.605,6.5933,6.5504,6.5387,6.527,6.4842,6.4413,6.3867,6.2971,6.2854,6.2698,6.2309,6.2231,6.2075,6.1646,6.1218,6.075,6.0321,5.8741,5.7602,5.7172,5.5967,5.5065,5.4612,5.5009,5.5048,5.4599,5.5418,5.5847,5.5847,5.6712,5.7375,5.7797,5.8201,5.7499,0.0,0.0,0.0,0.0,0.0,0.0,0.0,5.432,5.5186,5.6152,5.7048,5.8529,6.1471,6.2006,6.2863,6.5475,6.6318,6.7334,6.9395,7.0898,7.1961,7.2518,7.3107,7.3833,7.456,7.5312,7.6154,7.7131,7.7754,7.8518,7.9429,7.9624,7.9741,7.9753,7.9897,8.0014,7.9987,8.0014,7.9975,7.9975,7.9832,7.9832,7.9987,7.9493,7.9454,7.9688,7.8714,7.7818,7.6843,7.5129,7.3453,7.205,7.1856,7.0959,6.9673,6.8621,6.8816,6.944,6.8543,6.8271,6.8271,6.8271,6.7647,6.6946,6.6946,6.6946,6.6907,6.6751,6.6712,6.6712,6.6712,6.6712,6.6712,6.6712,6.6712,6.6712,6.6712,6.6712,6.6712,6.6712,6.6712,6.6478,6.5777,6.566,6.5309,6.4257,6.4101,6.3867,6.3205,6.3127,6.2815,6.1958,6.1841,6.149,6.0642,5.9178,5.8311,5.8319,5.7495,5.7016,5.6998,5.6998,5.6992,5.7017,5.7673,5.8148,5.8318,5.9183,5.969,5.9872,6.1393,6.0808,5.6536,5.3805,5.1776,5.3323,5.3132,5.3391,0.0,5.7843,5.8889,6.0447,6.149,6.2474,6.3661,6.3857,6.4665,6.7287,6.7069,6.7735,7.1065,7.1653,7.2614,7.4961,7.5351,7.5404,7.5468,7.6222,7.7078,7.792,7.8076,7.8489,7.936,8.0139,8.0581,8.0649,8.136,8.171,8.1739,8.171,8.1734,8.1695,8.0985,8.1038,8.1661,7.9442,7.9259,8.0584,7.8987,7.7818,7.6843,7.5129,7.3843,7.2869,7.2089,7.17,7.131,6.9751,6.9712,7.0336,6.944,6.9128,6.9128,6.9128,6.8543,6.7842,6.7842,6.7842,6.7686,6.6907,6.6712,6.6712,6.6712,6.6712,6.6712,6.6712,6.6712,6.6712,6.6712,6.6712,6.6712,6.6712,6.6712,6.6673,6.6556,6.6556,6.6011,6.4335,6.4101,6.4062,6.3984,6.3984,6.3634,6.2854,6.2737,6.2396,6.1517,6.0644,6.0119,6.0099,5.929,5.8827,5.8827,5.8827,5.8827,5.8822,5.8916,5.9332,6.0113,6.0932,6.1712,6.2508,6.3444,6.2929,5.5728,5.4708,5.4372,5.4064,5.4498,5.547,5.7372,5.8448,5.9411,6.0559,6.1495,6.2711,6.4583,6.5355,6.6195,6.7764,6.8494,6.9538,7.1485,7.216,7.286,7.3977,7.4574,7.5262,7.626,7.7131,7.8001,7.8844,7.9389,8.0051,8.0935,8.1325,8.1519,8.1546,8.187,8.2065,8.2039,8.2065,8.2065,8.2065,8.1728,8.1728,8.2,8.0974,8.0896,8.1442,7.9727,7.8792,7.8285,7.6064,7.4934,7.4544,7.3648,7.3297,7.3064,7.0842,7.0297,7.0492,6.9596,6.9284,6.9284,6.9284,6.8699,6.7998,6.7998,6.7647,6.718,6.679,6.6712,6.6712,6.6712,6.6712,6.6712,6.6712,6.6712,6.6712,6.6712,6.6712,6.6712,6.6712,6.6712,6.6712,6.6712,6.6712,6.6439,6.5738,6.5621,6.5426,6.4919,6.488,6.453,6.3672,6.3595,6.3457,6.314,6.2789,6.2602,6.2596,6.2278,6.2077,6.207,6.207,6.207,6.207,6.2056,6.2251,6.2609,6.2953,6.3304,6.3694,6.456,6.456,5.601,5.5767,5.6059,5.524,5.5825,5.6879,5.7933,5.8816,5.9781,6.0828,6.1732,6.302,6.512,6.6213,6.7134,6.8193,6.9557,7.0874,7.1913,7.2627,7.3016,7.3029,7.3366,7.4314,7.6054,7.7209,7.8299,7.9389,8.0298,8.1169,8.2065,8.2104,8.2104,8.2104,8.2091,8.2052,8.2052,8.2078,8.2078,8.2078,8.1858,8.1858,8.2052,8.2104,8.1948,8.1675,8.0662,8.0078,7.9688,7.7389,7.6415,7.6298,7.4934,7.4544,7.4505,7.2401,7.1661,7.1505,7.0375,6.9985,6.9946,6.9712,6.905,6.8349,6.8349,6.792,6.7413,6.7413,6.7413,6.7413,6.7413,6.7257,6.7063,6.7063,6.6868,6.6712,6.6712,6.6712,6.6712,6.6712,6.6712,6.6712,6.6712,6.6712,6.6712,6.6712,6.6712,6.6478,6.5855,6.5543,6.5153,6.453,6.4257,6.412,6.4193,6.4193,6.4201,6.4197,6.4229,6.4216,6.4248,6.4248,6.4248,6.4248,6.4201,6.4201,6.4216,6.4418,6.4574,6.4574,6.5432,6.5985,5.8981,5.7172,5.5708,5.7309,5.7153,5.7035,5.8675,5.9729,6.0861,6.2579,6.3594,6.4492,6.5429,6.6277,6.7344,6.8973,6.9957,7.1093,7.2744,7.3029,7.3094,7.3094,7.2354,7.2549,7.4301,7.5988,7.7633,7.9267,8.0284,8.1169,8.2065,8.2104,8.2104,8.2104,8.2026,8.2012,8.2012,8.2007,8.1991,8.1991,8.1219,8.1233,8.2012,8.2052,8.1636,8.0896,8.1675,8.1558,8.0623,7.8909,7.8207,7.7973,7.5402,7.4934,7.5558,7.4622,7.4272,7.4038,7.2323,7.17,7.1583,7.0804,6.9985,6.9245,6.9245,6.9245,6.9206,6.9206,6.9206,6.9206,6.9206,6.8582,6.7959,6.7959,6.7296,6.6712,6.6712,6.6712,6.6712,6.6712,6.6712,6.6712,6.6712,6.6712,6.6712,6.6712,6.6712,6.6673,6.6673,6.5933,6.5387,6.5348,6.4608,6.4111,6.4177,6.4193,6.4216,6.4197,6.4253,6.4297,6.4297,6.4297,6.4297,6.4297,6.4241,6.4197,6.4197,6.5035,6.5471,6.5484,6.6362,6.7195,5.7694,5.7601,5.7972,5.8519,5.8909,5.9417,6.0549,6.1056,6.1603,6.2774,6.3672,6.457,6.5429,6.6712,6.8021,6.907,7.0484,7.1809,7.2899,7.3561,7.325,7.1575,7.2108,7.2341,7.1738,7.4325,7.6975,7.9272,8.0273,8.1195,8.2065,8.2104,8.2104,8.2104,8.2091,8.2091,8.2091,8.2078,8.2065,8.2065,8.1767,8.1819,8.2091,8.2104,8.1636,8.0857,8.1714,8.1597,8.0779,8.0195,7.961,7.8948,7.7545,7.6804,7.6454,7.5596,7.5246,7.5012,7.3258,7.2674,7.2518,7.1661,7.0842,7.0141,7.0141,6.9751,6.9284,6.9284,6.9284,6.9284,6.9284,6.9089,6.8855,6.8855,6.8621,6.8427,6.8427,6.7959,6.7569,6.7569,6.7102,6.6712,6.6712,6.6712,6.6712,6.6712,6.6712,6.6712,6.6712,6.6439,6.6244,6.6244,6.6011,6.5826,6.5853,6.5909,6.5925,6.5932,6.5953,6.5959,6.5946,6.5946,6.5953,6.5959,6.5959,6.592,6.5931,6.6238,6.6355,6.6399,6.7253,6.7838,5.7655,5.8694,6.0119,6.0432,6.1134,6.1876,6.211,6.2149,6.2306,6.2891,6.3672,6.457,6.5429,6.6717,6.8105,6.9479,7.094,7.2266,7.3403,7.3754,7.3297,7.1638,7.1835,7.2029,7.1792,7.3819,7.6196,7.8805,8.013,8.1169,8.2065,8.2104,8.2104,8.2104,8.2091,8.2052,8.2052,8.2052,8.2091,8.2104,8.2091,8.2091,8.2104,8.2091,8.178,8.1286,8.187,8.1792,8.1247,8.0935,8.0662,8.0312,7.9181,7.8597,7.8246,7.7389,7.6882,7.6337,7.4272,7.3375,7.3025,7.244,7.17,7.1037,7.1037,7.0648,7.018,7.018,7.018,7.018,7.018,6.9985,6.9751,6.9751,6.9518,6.9284,6.9284,6.8855,6.8465,6.8465,6.7998,6.7647,6.7647,6.7374,6.7063,6.6751,6.6712,6.6712,6.6712,6.6712,6.6712,6.6712,6.6712,6.6712,6.6693,6.6767,6.6783,6.6783,6.6811,6.6817,6.6805,6.6805,6.6811,6.6784,6.6784,6.6784,6.6795,6.7107,6.7264,6.7303,6.8161,6.8747,5.8988,6.0456,6.1993,6.2852,6.3633,6.4023,6.3204,6.2969,6.293,6.293,6.3633,6.4492,6.5312,6.617,6.7565,7.0068,7.1285,7.2487,7.4099,7.3778,7.3358,7.3191,7.1794,7.177,7.4223,7.4509,7.5532,7.7983,7.9767,8.113,8.2065,8.2104,8.2104,8.2104,8.2026,8.2012,8.2012,8.2012,8.2026,8.2104,8.2026,8.2026,8.2026,8.2026,8.1987,8.1987,8.2065,8.2065,8.1948,8.1208,8.1325,8.187,8.0156,8.0,8.0584,7.9688,7.8909,7.7896,7.5441,7.3999,7.3219,7.3181,7.2596,7.1934,7.1934,7.1934,7.1934,7.1895,7.1856,7.1856,7.1817,7.1232,7.0648,7.0648,7.0024,6.944,6.944,6.9401,6.9362,6.9362,6.9323,6.9284,6.9284,6.8621,6.7803,6.6946,6.6829,6.679,6.6712,6.6712,6.6712,6.6712,6.6712,6.6712,6.6712,6.6759,6.6783,6.6783,6.6817,6.6795,6.6795,6.6795,6.6795,6.6795,6.6795,6.6834,6.6873,6.7693,6.8122,6.82,6.9059,6.9918,6.0636,6.1842,6.2891,6.375,6.3633,6.3282,6.3047,6.2501,6.2032,6.2032,6.2735,6.3399,6.3633,6.4882,6.6511,6.8351,7.0519,7.232,7.3367,7.4957,7.5533,7.4226,7.4767,7.5262,7.5287,7.6482,7.778,7.9038,7.9585,8.0506,8.2026,8.2039,8.2026,8.2026,8.2022,8.2007,8.2007,8.2007,8.2007,8.2022,8.2007,8.1656,8.1088,8.1686,8.1311,8.0234,8.1546,8.1714,8.1169,8.1597,8.1519,8.1013,7.9922,7.9259,7.8831,7.7973,7.7506,7.735,7.7311,7.6298,7.4934,7.4272,7.3921,7.3726,7.3726,7.3726,7.3609,7.2947,7.2752,7.2635,7.1973,7.1661,7.1505,7.1505,7.131,7.1154,7.1154,7.0687,7.0258,7.0258,6.9751,6.9284,6.9284,6.9128,6.8894,6.866,6.8621,6.8154,6.6868,6.6712,6.6712,6.6712,6.6712,6.6712,6.6712,6.6759,6.6783,6.6783,6.6817,6.6795,6.6795,6.6795,6.6795,6.6795,6.6784,6.7136,6.7771,6.7994,6.8424,6.9098,6.9957,7.0504,6.1417,6.2896,6.4258,6.4765,6.4492,6.4023,6.3672,6.2891,6.2149,6.1798,6.2384,6.3008,6.3008,6.4101,6.5697,6.7709,6.9634,7.1552,7.3485,7.5343,7.6388,7.6127,7.6944,7.7443,7.7325,7.8248,7.9157,7.9987,8.0053,8.065,8.1961,8.2026,8.1998,8.1983,8.1975,8.1959,8.1959,8.1959,8.1975,8.1991,8.1975,8.1509,8.0707,8.1174,8.0683,7.9545,0.0,8.126,8.0832,8.1325,8.1247,8.0701,7.9844,7.922,7.8753,7.8285,7.7857,7.7623,7.8129,7.7428,7.6181,7.5713,7.5012,7.4388,7.4388,7.4388,7.4311,7.3804,7.3687,7.357,7.3064,7.2947,7.283,7.244,7.2362,7.2284,7.1895,7.1466,7.1115,7.1115,7.0726,7.0297,6.9946,6.9868,6.9751,6.9362,6.9284,6.8933,6.7959,6.753,6.7141,6.6751,6.6712,6.6712,6.6712,6.675,6.6931,6.7329,6.7358,6.7531,6.7927,6.7927,6.7927,6.7927,6.7961,6.8195,6.8669,6.9048,6.9477,6.9996,7.0855,7.148,6.211,6.3867,6.5585,6.5585,6.5507,6.5194,6.4336,6.336,6.2462,6.1837,6.2228,6.2696,6.2813,6.3633,6.5077,6.7381,6.8708,7.0543,7.3861,7.5188,7.6458,7.8261,7.8574,7.8971,7.9767,7.9831,8.0143,8.0883,8.0948,8.126,8.1973,8.1998,8.1983,8.1975,8.1943,8.1908,8.1908,8.1908,8.1943,8.1975,8.1943,8.1476,8.0692,8.062,8.0154,7.9462,8.0284,8.061,8.061,8.0598,8.0611,8.0533,7.9676,7.9337,7.9337,7.922,7.8714,7.8129,7.8246,7.774,7.6999,7.6999,7.6064,7.4934,7.4934,7.4934,7.4895,7.4778,7.4661,7.4544,7.4427,7.4388,7.4194,7.3453,7.3258,7.3064,7.2323,7.2167,7.2167,7.2167,7.205,7.1739,7.1037,7.0842,7.0492,6.9751,6.9634,6.9596,6.9479,6.8699,6.7881,6.7141,6.7063,6.7063,6.7063,6.7043,6.7383,6.8227,6.8287,6.8613,6.9372,6.9411,6.9411,6.9411,6.9411,6.945,6.9567,7.0348,7.081,7.105,7.1831,7.2612,6.4336,6.5234,6.5585,6.5585,6.5077,6.4297,6.3438,6.1993,6.1017,6.1564,6.1252,6.1056,6.1798,6.3243,6.4687,6.5858,6.7927,7.0348,7.3119,7.4772,7.6622,7.9071,7.9968,8.0713,8.1558,8.1597,8.1622,8.1778,8.1788,8.1866,8.2012,8.1952,8.1926,8.1911,8.1911,8.1911,8.1911,8.1911,8.1911,8.1911,8.1911,8.1445,8.0629,8.0625,8.0137,7.9415,7.9579,0.0,7.9633,7.9633,7.97,7.965,7.8754,7.8455,7.8441,7.7701,7.735,7.735,7.8051,7.774,7.6999,7.6999,7.7272,7.7623,7.7623,7.7623,7.7467,7.6765,7.6025,7.5324,7.4583,7.4388,7.435,7.4194,7.4155,7.4116,7.3999,7.396,7.396,7.396,7.3375,7.283,7.2674,7.205,7.1544,7.1388,7.1349,7.1115,7.0453,6.9596,6.9011,6.8855,6.8855,6.8855,6.8855,6.8837,6.8904,6.9085,6.9139,6.9237,6.9372,6.9411,6.9411,6.9411,6.9399,6.9751,7.0465,7.0648,7.1429,7.2846,7.3002,7.351,6.5155,6.5897,6.6131,6.5702,6.4609,6.3516,6.3086,6.1642,6.0666,6.1525,6.1369,6.1213,6.1603,6.2735,6.4062,6.539,6.6639,6.863,7.2143,7.4044,7.6053,7.8659,8.0446,8.1661,8.2065,8.2051,8.2022,8.2022,8.1975,8.1959,8.1952,8.1926,8.1911,8.1892,8.1892,8.1892,8.1892,8.1892,8.1892,8.1892,8.1892,8.1426,8.061,8.0625,8.0176,7.9398,7.9408,7.9384,7.9345,7.8917,7.8737,7.8674,7.7845,7.7547,7.752,7.7143,7.6999,7.7077,7.7467,7.735,7.6999,7.6999,7.7272,7.7623,7.7623,7.7623,7.7545,7.7116,7.6688,7.6298,7.5869,7.5752,7.5635,7.5168,7.4739,7.4388,7.4388,7.4388,7.4388,7.4388,7.4077,7.3765,7.3765,7.3414,7.2986,7.2557,7.2479,7.2167,7.131,7.0842,7.0258,6.9401,6.9284,6.9284,6.9284,6.9294,6.947,6.9965,7.0021,7.0239,7.0687,7.0732,7.0738,7.0738,7.1201,7.163,7.2065,7.2489,7.3114,7.3939,7.3939,7.4369,6.5429,6.617,6.6561,6.5585,6.414,6.2891,6.254,6.1252,6.0349,6.1252,6.1408,6.1486,6.1681,6.2423,6.3555,6.5312,6.5741,6.7303,7.1402,7.3588,7.569,7.8129,8.0592,8.2123,8.2128,8.2051,8.2007,8.2007,8.1943,8.1908,8.1887,8.1872,8.1892,8.1911,8.1892,8.1892,8.1892,8.1892,8.1892,8.1892,8.1892,8.1543,8.0882,8.0686,8.0237,7.9632,7.947,7.9423,7.9345,7.8684,7.8372,7.8294,7.7467,7.717,7.7144,7.7014,7.6987,7.6999,7.6999,7.6999,7.6999,7.6999,7.7116,7.7272,7.7272,7.7272,7.7272,7.7272,7.7155,7.6999,7.6999,7.6999,7.6843,7.6142,7.548,7.4973,7.4973,7.4973,7.4973,7.4973,7.4817,7.4661,7.4661,7.4505,7.4155,7.3492,7.3375,7.3142,7.244,7.2362,7.1856,7.0531,7.0063,6.9829,6.9829,6.9829,7.0113,7.0844,7.0871,7.1199,7.1884,7.2138,7.226,7.226,7.3119,7.3549,7.3549,7.4173,7.4603,7.4798,7.4798,7.5266,6.5585,6.617,6.6405,6.4804,6.3711,6.2579,6.1017,5.9885,5.9456,6.0354,6.051,6.0744,6.1564,6.2423,6.3555,6.5312,6.6209,6.7927,7.1519,7.4134,7.6354,7.8168,8.0618,8.2171,8.2192,8.2065,8.1998,8.1998,8.1943,8.1911,8.1887,8.1872,8.1911,8.1908,8.1911,8.1892,8.1892,8.1892,8.1892,8.1892,8.1892,8.1854,8.1737,8.096,8.0569,8.0448,7.9709,7.9392,0.0,7.9314,7.9275,7.919,7.8342,7.8022,7.8001,7.7183,7.6936,7.6999,7.6999,7.6999,7.6999,7.6999,7.7545,7.8168,7.8168,7.8168,7.8168,7.8168,7.7623,7.6999,7.6999,7.6999,7.6999,7.6882,7.6804,7.6765,7.6765,7.6765,7.6765,7.6765,7.6103,7.5596,7.5596,7.4934,7.4388,7.4272,7.4272,7.4233,7.4155,7.4155,7.4116,7.396,7.2518,7.1583,7.1583,7.1583,7.1633,7.178,7.1759,7.1823,7.1884,7.2723,7.3197,7.3197,7.3978,7.4408,7.4408,7.4447,7.4915,7.5696,7.5696,7.6164,6.5468,6.6156,6.6361,6.4696,6.3594,6.2423,6.0783,6.0119,5.9963,6.0315,6.0822,6.1291,6.1642,6.2423,6.3555,6.5312,6.5858,6.7264,7.0738,7.2534,7.4525,7.7284,7.9409,8.1031,8.2114,8.2128,8.2039,8.2039,8.1991,8.1959,8.1952,8.1908,8.1911,8.189,8.1911,8.1892,8.1892,8.1892,8.1892,8.1892,8.1892,8.1892,8.1892,8.1541,8.1364,8.1342,8.0487,8.0115,0.0,7.9576,7.9325,7.932,7.9003,7.8917,7.883,7.8014,7.7767,7.7701,7.7194,7.6999,7.6999,7.6999,7.7233,7.7506,7.7506,7.7506,7.7506,7.7506,7.7272,7.6999,7.6999,7.6999,7.6999,7.6999,7.6999,7.6999,7.6999,7.6999,7.6999,7.6999,7.6727,7.6493,7.6493,7.6181,7.5791,7.5246,7.5168,7.4973,7.4466,7.4388,7.4388,7.4388,7.3765,7.3375,7.3375,7.3375,7.3375,7.3386,7.3417,7.3406,7.347,7.3836,7.4005,7.4017,7.4837,7.5266,7.5266,7.5813,7.6242,7.6594,7.6581,7.6777,6.4942,6.574,6.5976,6.4602,6.3539,6.2326,6.0436,6.0198,6.0315,6.008,6.09,6.172,6.172,6.2423,6.3555,6.5312,6.6014,6.7342,7.0309,7.187,7.3627,7.6047,7.8058,7.983,8.1312,8.186,8.2128,8.2104,8.2065,8.2036,8.2026,8.1959,8.1929,8.1911,8.1892,8.1892,8.1892,8.1892,8.1892,8.1892,8.1892,8.1892,8.1892,8.189,8.1908,8.1887,8.1265,8.0992,0.0,8.0336,8.0046,8.0064,7.9843,7.9742,7.9641,7.8896,7.865,7.8585,7.7973,7.7584,7.7389,7.7389,7.7194,7.6999,7.6999,7.6999,7.6999,7.6999,7.6999,7.6999,7.6999,7.6999,7.6999,7.6999,7.6999,7.6999,7.6999,7.6999,7.6999,7.6999,7.6999,7.6999,7.6999,7.6999,7.6804,7.6181,7.6064,7.5869,7.5246,7.5168,7.5168,7.5168,7.5168,7.4973,7.4427,7.4388,7.4388,7.4388,7.441,7.4441,7.4459,7.4757,7.4896,7.487,7.5735,7.6164,7.6203,7.6789,7.7101,7.7095,7.7121,7.7067,6.3984,6.4804,6.5232,6.441,6.3473,6.2148,5.9663,5.9768,6.0159,5.93,6.051,6.172,6.172,6.2423,6.3555,6.5312,6.699,6.8708,7.0465,7.2885,7.4486,7.4525,7.6828,7.8741,7.9639,8.1243,8.2172,8.2116,8.2104,8.2104,8.2104,8.2036,8.1975,8.1887,8.1911,8.1892,8.1892,8.1892,8.1892,8.1892,8.1892,8.1892,8.1892,8.1892,8.1872,8.1887,8.1887,8.1904,0.0,8.1904,8.1887,8.1809,8.094,8.0608,8.0487,7.968,7.9414,7.9481,7.9481,7.8948,7.8285,7.8285,7.7701,7.6999,7.6999,7.6999,7.6999,7.6999,7.6999,7.6999,7.6999,7.6999,7.6999,7.6999,7.6999,7.6999,7.6999,7.6999,7.6999,7.6999,7.6999,7.6999,7.6999,7.6999,7.6999,7.6999,7.6999,7.6999,7.696,7.696,7.696,7.696,7.696,7.6259,7.4544,7.4388,7.4388,7.4388,7.441,7.4392,7.4392,7.5296,7.5787,7.5787,7.6627,7.7101,7.7101,7.7101,7.7095,7.7114,7.7114,7.7067,6.241,6.3047,6.3432,6.269,6.2226,6.1472,5.9553,6.0237,6.0861,5.9417,6.051,6.172,6.172,6.1915,6.2891,6.5234,6.7029,6.8708,7.0465,7.2365,7.4285,7.6053,7.9092,8.1161,8.1435,8.1968,8.2273,8.2257,8.2192,8.2172,8.2172,8.2065,8.1975,8.1975,8.1929,8.1892,8.1892,8.1892,8.1892,8.1892,8.1892,8.1911,8.1908,8.1908,8.1926,8.1975,8.1943,8.1887,8.1943,8.189,8.1911,8.1872,8.1579,8.1481,8.1381,8.0645,8.0362,8.0298,7.9715,7.9337,7.9026,7.848,7.8129,7.7779,7.7194,7.6999,7.6999,7.6999,7.6999,7.6999,7.6999,7.6999,7.6999,7.6999,7.6999,7.6999,7.6999,7.6999,7.6999,7.6999,7.6999,7.6999,7.6999,7.6999,7.6999,7.6999,7.6999,7.6999,7.6999,7.6999,7.6999,7.6999,7.6999,7.6765,7.622,7.6181,7.6181,7.6181,7.6192,7.6165,7.6186,7.6478,7.6604,7.6622,7.6903,7.7028,7.7028,7.7075,7.7121,7.7114,7.7114,7.7067,6.0995,6.1717,6.2219,6.1756,6.1599,6.1123,5.9475,6.0198,6.0822,5.9378,6.051,6.172,6.172,6.1954,6.2813,6.4804,6.6795,6.8479,6.9511,7.1434,7.3697,7.6287,7.9074,8.1066,8.1747,8.1803,8.1925,8.2254,8.2273,8.2257,8.2257,8.2116,8.2036,8.2036,8.1964,8.1892,8.1892,8.1892,8.1911,8.189,8.189,8.1908,8.1943,8.1943,8.1959,8.1991,8.1943,8.1887,0.0,8.1911,8.1892,8.1892,8.189,8.189,8.183,8.1392,8.1228,8.118,8.0624,8.026,7.9844,7.9026,7.8324,7.7701,7.7155,7.6999,7.6999,7.6999,7.6999,7.6999,7.6999,7.6999,7.6999,7.6999,7.6999,7.6999,7.6999,7.6999,7.6999,7.6999,7.6999,7.6999,7.6999,7.6999,7.6999,7.6999,7.6999,7.6999,7.6999,7.6999,7.6999,7.6999,7.6999,7.6999,7.6999,7.6999,7.6999,7.6999,7.6999,7.7011,7.6983,7.6994,7.7014,7.6995,7.7012,7.7059,7.7059,7.7067,7.7114,7.7114,7.7426,7.7575,0.0,6.062,6.1246,6.1316,6.1282,6.0859,5.9433,5.9768,0.0,5.9378,6.0549,6.1759,6.1876,6.2462,6.3282,6.4375,6.6561,6.8101,6.8085,7.0497,7.313,7.5506,7.7454,7.9176,8.0743,8.0891,8.1247,8.2037,8.211,8.2149,8.2182,8.2065,8.205,8.2116,8.1959,8.1892,8.1892,8.1892,8.1911,8.1887,8.1887,8.1943,8.1991,8.1991,8.1991,8.1991,8.1959,8.1887,8.1887,8.1929,8.1892,8.1892,8.1892,8.1892,8.1892,8.1908,8.1959,8.1991,8.1998,8.1533,8.074,7.9805,7.8363,7.6999,7.6999,7.6999,7.6999,7.6999,7.6999,7.6999,7.6999,7.6999,7.6999,7.6999,7.6999,7.6999,7.6999,7.6999,7.6999,7.6999,7.6999,7.6999,7.6999,7.6999,7.6999,7.6999,7.6999,7.6999,7.6999,7.6999,7.6999,7.6999,7.6999,7.6999,7.6999,7.6999,7.6999,7.6999,7.6999,7.6999,7.6999,7.6983,7.7004,7.7004,7.7051,7.7106,7.7075,7.7153,7.7192,7.7192,7.8089,7.848,5.7324,0.0,5.8658,5.8699,5.8697,5.8733,0.0,5.9768,6.0354,6.0159,6.0939,6.211,6.3438,6.2774,6.3164,6.6639,6.7693,6.8297,6.8905,7.2378,7.5034,7.5662,7.9023,8.0937,8.0036,8.0507,8.0702,8.0186,8.0147,8.0465,8.1208,8.1148,8.1421,8.2133,8.2051,8.1964,8.1892,8.1892,8.1911,8.1887,8.1887,8.192,8.1998,8.1998,8.2012,8.2078,8.1998,8.1983,8.1983,8.1975,8.1943,8.1908,8.1908,8.189,8.1911,8.1943,8.1975,8.2007,8.2065,8.1948,8.1519,8.0,7.8363,7.6999,7.6999,7.6999,7.6999,7.6999,7.6999,7.6999,7.6999,7.6999,7.6999,7.6999,7.6999,7.6999,7.6999,7.6999,7.6999,7.6999,7.6999,7.6999,7.6999,7.6999,7.6999,7.6999,7.6999,7.6999,7.6999,7.6999,7.6999,7.6999,7.6999,7.6999,7.6999,7.6999,7.6999,7.6999,7.6999,7.6999,7.6999,7.7011,7.7011,7.7011,7.7004,7.7034,7.7012,7.7731,7.8089,7.8129,7.9001,7.9392,5.6579,5.7465,5.8402,5.8402,5.8402,5.8636,5.9495,5.9768,5.9924,6.0315,6.1095,6.211,6.3477,6.3224,6.3852,6.6995,6.7802,6.875,7.0773,7.4388,7.6844,7.6863,7.9639,8.1045,7.9678,7.9586,7.9572,7.9528,7.9488,7.9738,8.0225,8.0584,8.1027,8.1545,8.187,8.1959,8.1964,8.1911,8.1911,8.1887,8.1887,8.192,8.1983,8.1983,8.2012,8.2039,8.2036,8.1998,8.2012,8.2007,8.1959,8.1887,8.1887,8.1908,8.189,8.1943,8.1991,8.2022,8.2026,8.1546,8.074,7.9805,7.8363,7.7077,7.7467,7.7584,7.7506,7.7116,7.6999,7.6999,7.6999,7.6999,7.6999,7.6999,7.6999,7.6999,7.6999,7.6999,7.6999,7.6999,7.6999,7.6999,7.6999,7.6999,7.6999,7.6999,7.6999,7.6999,7.6999,7.6999,7.6999,7.6999,7.6999,7.6999,7.6999,7.6999,7.6999,7.6999,7.6999,7.6999,7.6999,7.6999,7.7011,7.6983,7.6994,7.7219,7.7645,7.816,7.8604,7.9001,7.986,8.0243,5.6887,5.8016,5.9035,5.8792,5.8909,5.93,6.0011,5.9738,5.9542,6.0405,6.1182,6.2041,6.3174,6.3823,6.492,6.7047,6.8044,6.9678,7.2846,7.5879,7.783,7.7993,7.9515,8.0179,7.9197,7.8506,7.8369,7.9026,7.9065,7.9151,7.9281,8.0115,8.0657,8.0808,8.1605,8.2007,8.2007,8.1947,8.1911,8.1887,8.1887,8.1943,8.1991,8.1991,8.1929,8.1803,0.0,0.0,8.1622,8.1618,8.1586,8.1515,8.1515,8.1593,8.1692,8.1709,8.1836,8.1998,8.2012,8.0987,7.9688,7.9688,7.8636,7.7506,7.8246,7.848,7.8324,7.7584,7.7389,7.735,7.7233,7.7194,7.7155,7.7038,7.6999,7.6999,7.6999,7.7116,7.7155,7.7038,7.7116,7.7155,7.7038,7.6999,7.6999,7.6999,7.6999,7.6999,7.6999,7.6999,7.6999,7.6999,7.6999,7.6999,7.6999,7.6999,7.6999,7.6999,7.6999,7.6999,7.6999,7.6999,7.705,7.7199,7.7199,7.7648,7.8589,7.8706,7.9143,7.9899,8.0712,8.1094,5.8324,5.8856,5.8709,5.7317,5.805,5.9113,5.9216,5.9687,6.0351,6.1249,6.1523,6.2343,6.4687,6.4677,6.5528,6.9372,7.0692,7.1909,7.3933,7.5207,7.6209,7.7004,7.8603,7.8982,7.7384,7.7763,7.7832,7.7175,7.712,7.7492,7.828,7.9203,8.0069,8.0858,8.1663,8.2091,8.2091,8.1943,8.1911,8.1887,8.1887,8.1943,8.1991,8.1991,8.1602,8.0917,0.0,8.0504,7.987,7.987,7.9895,7.9895,7.9895,8.024,8.0798,8.0917,8.1399,8.2007,8.2078,8.1442,8.0584,8.0584,7.9922,7.9142,7.9298,7.9337,7.9298,7.9142,7.9104,7.8948,7.8285,7.809,7.7896,7.7194,7.6999,7.6999,7.6999,7.7584,7.7896,7.7155,7.7584,7.7857,7.7116,7.6999,7.6999,7.6999,7.6999,7.6999,7.6999,7.6999,7.6999,7.6999,7.6999,7.6999,7.6999,7.6999,7.6999,7.6999,7.6999,7.6999,7.6999,7.6999,7.7362,7.8096,7.8096,7.8525,7.9432,8.0154,8.0592,8.0729,8.1585,8.1984,5.7543,5.8038,5.8164,5.7417,5.7811,5.8476,5.8899,5.8233,5.8276,6.1015,6.1211,6.1953,6.5508,6.5859,6.6826,7.0536,7.2665,7.4441,7.613,7.7481,7.8299,7.8222,7.8909,7.8689,7.6933,7.7127,7.7175,7.6726,7.6687,7.6877,7.7307,7.823,7.9151,8.0105,8.0957,8.1607,8.2104,8.1991,8.1947,8.189,8.189,8.1657,8.1265,8.1265,8.0798,8.0014,0.0,7.9812,7.9453,7.9481,7.9467,7.9453,7.9467,7.9983,8.0714,8.1243,8.17,8.2065,8.2091,8.1519,8.0818,8.0818,8.0195,7.961,8.0078,8.0195,8.0312,8.0779,8.0234,7.9415,7.9026,7.8636,7.8207,7.7818,7.7701,7.7701,7.7701,7.8363,7.8831,7.8441,7.8675,7.8831,7.8441,7.8363,7.8363,7.8363,7.8363,7.8363,7.8363,7.8363,7.8363,7.8363,7.7973,7.7701,7.7701,7.7701,7.7506,7.7038,7.7428,7.7701,7.7701,7.8129,7.8519,7.8932,7.8971,7.94,8.0318,8.068,8.1158,8.1587,8.2006,8.2201,5.7348,5.7647,5.789,5.8279,5.8345,5.8519,5.9402,5.8192,5.7894,6.1436,6.1633,6.2375,6.6276,6.7654,6.899,7.1534,7.4158,7.6326,7.752,7.9073,7.9803,7.9074,7.8878,7.8207,7.6821,7.6687,7.6687,7.6687,7.6687,7.6687,7.6687,7.7598,7.8545,7.9488,8.0351,8.1239,8.2104,8.2036,8.1981,8.1892,8.1892,8.1426,8.061,8.061,8.0046,7.907,7.907,7.8987,7.8785,7.8869,7.8869,7.88,7.8869,7.953,8.0513,8.1579,8.2012,8.2091,8.2091,8.1663,8.1091,8.1091,8.0662,8.0234,8.0896,8.1091,8.1247,8.1909,8.113,8.0078,7.9844,7.9337,7.8831,7.8636,7.8597,7.8597,7.8597,7.922,7.9727,7.9532,7.9649,7.9727,7.9532,7.9493,7.9493,7.9493,7.9493,7.9493,7.9493,7.9493,7.9493,7.9493,7.8948,7.8597,7.8597,7.8597,7.8285,7.7623,7.8207,7.8597,7.8597,7.9181,7.961,7.9805,7.9805,8.0246,8.1165,8.1165,8.1527,8.2172,8.2182,8.2182,5.9495,5.8975,5.8163,5.9745,6.0124,6.0305,6.1119,6.1763,6.2474,6.3604,6.376,6.4578,6.7307,7.0424,7.2607,7.2857,7.5039,7.6716,7.6782,7.7598,7.8181,7.8085,7.7404,7.686,7.6726,7.6687,7.6687,7.6687,7.6687,7.6687,7.6687,7.7598,7.8545,7.9488,8.0351,8.1239,8.2104,8.2036,8.1981,8.1892,8.1892,8.1426,8.061,8.061,7.9678,7.8085,7.8085,7.7693,7.6987,7.7003,7.7019,7.7088,7.7088,7.8061,7.9695,8.132,8.1952,8.2012,8.2012,8.2,8.2026,8.2026,8.1948,8.1909,8.1987,8.2026,8.2026,8.2065,8.2026,8.1714,8.0935,8.0662,8.0428,7.961,7.9415,7.9415,7.9415,8.0078,8.0467,7.9649,8.0156,8.0467,7.9649,7.9493,7.9493,7.9493,7.9493,7.9493,7.9493,7.9493,7.9493,7.9493,7.9454,7.9415,7.9415,7.9415,7.9376,7.9337,7.9376,7.9415,7.9415,7.9454,7.9883,8.0701,8.0701,8.113,8.1999,8.1999,8.2038,8.2116,8.2101,8.2133,5.8389,5.8281,5.8023,5.9144,6.0213,6.0934,6.0694,6.0059,6.0355,6.339,6.3595,6.4218,6.7325,6.9759,7.1846,7.3479,7.5424,7.7299,7.8901,7.894,7.8823,7.8823,7.758,7.6687,7.6687,7.6687,7.6687,7.6687,7.6687,7.6687,7.6687,7.7026,7.765,7.8594,7.9504,8.0429,8.1265,8.1789,8.2022,8.1981,8.1385,8.0649,7.9756,7.9212,7.8318,7.7192,7.7192,7.6998,7.6743,7.6777,7.6809,7.6941,7.8015,7.8863,7.9618,8.1281,8.1937,8.2012,8.2012,8.2039,8.2104,8.2104,8.2104,8.2104,8.2104,8.2104,8.2104,8.2104,8.2104,8.2026,8.1675,8.1208,8.074,8.0389,8.0312,8.0312,8.0312,8.0974,8.1519,8.1169,8.1364,8.1481,8.1169,8.113,8.113,8.113,8.113,8.113,8.113,8.113,8.113,8.113,8.0623,8.0312,8.0312,8.0312,8.0545,8.1091,8.0623,8.0312,8.0312,8.0818,8.1286,8.1597,8.1597,8.1753,8.2104,8.2104,8.2104,8.2104,8.2101,8.2123,5.7968,5.8147,5.8231,5.878,5.9988,6.1007,6.0928,6.0642,6.133,6.4543,6.5178,6.5801,6.7903,6.9614,7.1403,7.3462,7.5444,7.7425,7.9484,7.9484,7.9212,7.8901,7.758,7.6687,7.6687,7.6687,7.6687,7.6687,7.6959,7.6998,7.6726,7.6959,7.7392,7.8102,7.872,7.9465,8.0348,8.1212,8.1505,8.1116,8.0487,7.9872,7.9251,7.8396,7.7503,7.6687,7.6687,7.6687,7.6687,7.676,7.6777,7.6932,7.8371,7.8971,7.9142,8.0859,8.1515,8.1579,8.1905,8.2012,8.2052,8.2104,8.2104,8.2104,8.2104,8.2104,8.2104,8.2104,8.2104,8.2104,8.2104,8.1675,8.1208,8.1208,8.1208,8.1208,8.1208,8.1675,8.2104,8.2104,8.2104,8.2104,8.2104,8.2104,8.2104,8.2104,8.2104,8.2104,8.2104,8.2104,8.2104,8.2104,8.1558,8.1208,8.1208,8.1208,8.1442,8.2065,8.1558,8.1208,8.1208,8.1792,8.2104,8.2104,8.2104,8.2104,8.2104,8.2104,8.2104,8.2104,8.2362,8.2491,5.8762,5.8983,5.8967,5.8897,5.9572,6.0633,6.2341,6.4683,6.6742,6.7635,6.915,7.0044,6.9267,7.0471,7.1908,7.2763,7.5055,7.6998,7.7891,7.8746,7.8979,7.8124,7.7231,7.6726,7.6687,7.6687,7.6687,7.6687,7.7503,7.7619,7.6764,7.7503,7.8015,7.809,7.8102,7.8495,7.9366,8.0258,8.0243,7.9296,7.9306,7.929,7.9251,7.8396,7.7503,7.6687,7.6687,7.6687,7.6687,7.6687,7.6687,7.6803,7.7658,7.8008,7.8202,7.995,8.0608,8.072,8.1664,8.1983,8.2012,8.2052,8.2104,8.2104,8.2104,8.2104,8.2104,8.2104,8.2104,8.2104,8.2104,8.2104,8.2104,8.2104,8.2104,8.2104,8.2104,8.2104,8.2104,8.2104,8.2104,8.2104,8.2104,8.2104,8.2104,8.2104,8.2104,8.2104,8.2104,8.2104,8.2104,8.2104,8.2104,8.2104,8.2104,8.2104,8.2104,8.2104,8.2104,8.2104,8.2104,8.2104,8.2104,8.2104,8.2104,8.2104,8.2104,8.2104,8.2104,8.2143,8.3,8.3415,5.798,5.7556,5.7377,5.8554,5.9957,6.1499,6.3221,6.4644,6.6198,6.8296,6.9578,7.0238,7.0005,7.1365,7.2802,7.3657,7.5444,7.7231,7.8707,7.9134,7.9212,7.894,7.8163,7.7386,7.6764,7.6687,7.6687,7.6687,7.6959,7.6959,7.6726,7.6959,7.7093,7.712,7.778,7.8202,7.8486,7.9949,8.0266,7.9385,7.9315,7.8961,7.8357,7.7464,7.6959,7.6687,7.6687,7.6687,7.6687,7.6687,7.6687,7.6803,7.7658,7.8008,7.8124,7.9251,7.9714,7.9865,8.0737,8.1042,8.1204,8.1817,8.1636,8.1286,8.1909,8.1675,8.1325,8.1909,8.2104,8.2104,8.2104,8.2104,8.2104,8.2104,8.2104,8.2104,8.2104,8.2104,8.2104,8.2104,8.2104,8.2104,8.2104,8.2104,8.2104,8.2104,8.2104,8.2104,8.2104,8.2104,8.2104,8.2104,8.2104,8.2104,8.2104,8.2104,8.2104,8.2104,8.2104,8.2104,8.2104,8.2104,8.2104,8.2104,8.2104,8.2104,8.2104,8.2104,8.2416,8.3,8.3273,8.3753,5.813,5.8198,5.8487,5.9154,6.0642,6.2546,6.4955,6.6159,6.748,7.0083,7.0704,7.0937,7.1287,7.218,7.319,7.4045,7.5599,7.7192,7.859,7.8785,7.8785,7.8785,7.8008,7.727,7.6764,7.6687,7.6687,7.6687,7.7036,7.7075,7.6726,7.7036,7.7075,7.6726,7.7268,7.7545,7.7545,7.894,7.9207,7.8358,7.8679,7.8378,7.7559,7.6949,7.6687,7.6687,7.6687,7.6687,7.6687,7.6687,7.6687,7.6764,7.727,7.7464,7.758,7.8474,7.8802,7.8993,7.9826,8.0154,8.0264,8.0815,8.062,8.0362,8.0857,8.0676,8.0481,8.1351,8.1585,8.1675,8.2026,8.2104,8.2104,8.2104,8.2104,8.2104,8.2104,8.2104,8.2104,8.2104,8.2104,8.2104,8.2104,8.2104,8.2104,8.2104,8.2104,8.2104,8.2104,8.2104,8.2104,8.2104,8.2104,8.2104,8.2104,8.2104,8.2104,8.2104,8.2104,8.2104,8.2104,8.2104,8.2104,8.2104,8.2104,8.2104,8.2104,8.2455,8.2883,8.3429,8.4091,8.4715,5.8661,5.9749,6.072,6.0332,6.1575,6.3789,6.7169,6.8529,6.9811,7.2375,7.2336,7.2064,7.288,7.3152,7.3501,7.42,7.5677,7.6998,7.7891,7.8008,7.8008,7.8008,7.7308,7.6803,7.6726,7.6687,7.6687,7.6687,7.7425,7.7541,7.6726,7.7464,7.7503,7.6726,7.6687,7.6687,7.6687,7.7572,7.7589,7.6802,7.7694,7.7683,7.6888,7.6755,7.6704,7.6687,7.6687,7.6687,7.6687,7.6687,7.6687,7.6687,7.6687,7.6687,7.6803,7.758,7.7891,7.8008,7.8954,7.9282,7.9282,7.9369,7.9345,7.9306,7.9384,7.9375,7.9558,8.0532,8.0793,8.1013,8.187,8.2104,8.2104,8.2104,8.2104,8.2104,8.2104,8.2104,8.2104,8.2104,8.2104,8.2104,8.2104,8.2104,8.2104,8.2104,8.2104,8.2104,8.2104,8.2104,8.2104,8.2104,8.2104,8.2104,8.2104,8.2104,8.2104,8.2104,8.2104,8.2104,8.2104,8.2104,8.2104,8.2104,8.2104,8.2143,8.2221,8.3,8.3468,8.3663,8.526,8.604,5.7495,5.7146,5.7146,6.0332,6.2896,6.5382,6.8179,6.8956,6.9811,7.2375,7.3307,7.3695,7.389,7.5016,7.5754,7.5288,7.6065,7.6998,7.7891,7.8008,7.8008,7.8008,7.7813,7.7464,7.6764,7.6687,7.6687,7.6687,7.6881,7.692,7.6726,7.6881,7.6881,7.6726,7.6687,7.6687,7.6687,7.7571,7.7572,7.6739,7.7642,7.7649,7.6821,7.678,7.6738,7.6687,7.6687,7.6687,7.6687,7.6687,7.6687,7.6687,7.6687,7.6687,7.6726,7.692,7.6998,7.7114,7.7986,7.8297,7.8414,7.9165,7.8948,7.852,7.919,7.8985,7.878,8.0337,8.0793,8.1013,8.187,8.2104,8.2104,8.2104,8.2104,8.2104,8.2104,8.2104,8.2104,8.2104,8.2104,8.2104,8.2104,8.2104,8.2104,8.2104,8.2104,8.2104,8.2104,8.2104,8.2104,8.2104,8.2104,8.2104,8.2104,8.2104,8.2104,8.2104,8.2104,8.2104,8.2104,8.2104,8.2104,8.2104,8.2104,8.2455,8.3117,8.3312,8.4091,8.5455,8.5845,8.6351,5.7366,5.7535,5.8273,6.1769,6.4255,6.6392,6.8606,6.9422,7.0277,7.2452,7.3268,7.3812,7.4667,7.5521,7.6104,7.6065,7.6415,7.6881,7.7308,7.7386,7.7386,7.7386,7.7386,7.7192,7.6726,7.6687,7.6687,7.6687,7.6687,7.6687,7.6687,7.6687,7.6687,7.6687,7.6687,7.6687,7.6687,7.7153,7.7159,7.6741,7.7245,7.7223,7.6795,7.6794,7.6767,7.6687,7.6687,7.6687,7.6687,7.6687,7.6687,7.6687,7.6687,7.6687,7.6687,7.6687,7.6687,7.6764,7.7231,7.7386,7.7464,7.7965,7.7809,7.7499,7.796,7.7836,7.7881,7.9647,8.0143,8.0481,8.1753,8.2104,8.2104,8.2104,8.2104,8.2104,8.2104,8.2104,8.2104,8.2104,8.2104,8.2104,8.2104,8.2104,8.2104,8.2104,8.2104,8.2104,8.2104,8.2104,8.2104,8.2104,8.2104,8.2104,8.2104,8.2104,8.2104,8.2104,8.2104,8.2104,8.2104,8.2104,8.2104,8.2104,8.2494,8.2961,8.339,8.4247,8.5104,8.6001,8.639,8.6819,5.7457,5.905,6.1109,6.3401,6.5265,6.6975,6.8684,6.9616,7.0588,7.2336,7.2802,7.3385,7.4977,7.5288,7.5521,7.6376,7.6493,7.6531,7.6687,7.6687,7.6687,7.6687,7.6687,7.6687,7.6687,7.6687,7.6687,7.6687,7.6687,7.6687,7.6687,7.6687,7.6687,7.6687,7.6687,7.6687,7.6687,7.6687,7.6743,7.6777,7.6801,7.6804,7.6789,7.6814,7.6777,7.6715,7.6699,7.6704,7.6687,7.6687,7.6687,7.6687,7.6687,7.6687,7.6687,7.6687,7.6687,7.6687,7.6687,7.6687,7.6687,7.6687,7.6687,7.6687,7.6687,7.676,7.7143,7.8902,7.9453,7.9884,8.1624,8.2091,8.2104,8.2104,8.2104,8.2104,8.2104,8.2104,8.2104,8.2104,8.2104,8.2104,8.2104,8.2104,8.2104,8.2104,8.2104,8.2104,8.2104,8.2104,8.2104,8.2104,8.2104,8.2104,8.2104,8.2104,8.2104,8.2104,8.2104,8.2182,8.2299,8.2299,8.2416,8.2533,8.3117,8.3546,8.3858,8.5299,8.6079,8.6235,8.6897,8.7209,5.6991,5.9943,6.2624,6.3711,6.5265,6.6975,6.8684,6.9189,6.9733,7.1442,7.2375,7.319,7.42,7.4356,7.4667,7.5521,7.5638,7.591,7.6609,7.6687,7.6687,7.6687,7.6687,7.6687,7.6687,7.6687,7.6687,7.6687,7.6687,7.6687,7.6687,7.6687,7.6687,7.6687,7.6687,7.6687,7.6687,7.6687,7.6687,7.6687,7.6786,7.6793,7.6809,7.6805,7.6755,7.6702,7.6765,7.6738,7.6687,7.6687,7.6687,7.6687,7.6687,7.6687,7.6687,7.6687,7.6687,7.6687,7.6687,7.6687,7.6687,7.6687,7.6687,7.6687,7.6687,7.676,7.7143,7.8909,7.9462,7.987,8.1583,8.2012,8.2026,8.2104,8.2039,8.2026,8.2104,8.2104,8.2104,8.2104,8.2104,8.2104,8.2104,8.2104,8.2104,8.2104,8.2104,8.2104,8.2104,8.2104,8.2104,8.2104,8.2104,8.2104,8.2104,8.2104,8.2104,8.2104,8.2104,8.2455,8.3195,8.3234,8.3585,8.4325,8.3741,8.413,8.565,8.5884,8.6351,8.7053,8.7131,8.7209,5.7029,5.9011,6.0837,6.2196,6.3478,6.4955,6.713,6.8412,6.9461,7.0626,7.1559,7.2452,7.3307,7.3462,7.3773,7.4628,7.4783,7.49,7.5249,7.5288,7.5288,7.5288,7.5288,7.5288,7.5288,7.5288,7.5288,7.5288,7.5288,7.5288,7.5288,7.5288,7.5288,7.5288,7.5288,7.5288,7.5288,7.5793,7.6259,7.6687,7.6721,7.6747,7.6755,7.6777,7.6766,7.6756,7.6783,7.6817,7.6816,7.678,7.6752,7.6738,7.6721,7.6687,7.6687,7.6687,7.6687,7.6687,7.6687,7.6687,7.6687,7.6687,7.6687,7.6687,7.6687,7.6743,7.711,7.8893,7.9431,7.9851,8.1569,8.1998,8.2036,8.2091,8.2039,8.2026,8.2104,8.2104,8.2104,8.2104,8.2104,8.2104,8.2104,8.2104,8.2104,8.2104,8.2104,8.2104,8.2104,8.2104,8.2104,8.2104,8.2104,8.2104,8.2104,8.2104,8.2104,8.2104,8.2572,8.3,8.339,8.3858,8.452,8.5416,8.5066,8.5221,8.6001,8.6468,8.6858,8.7209,8.7209,8.7209,5.6874,5.835,5.9671,6.0526,6.2196,6.41,6.5809,6.7519,6.9072,7.0083,7.0821,7.152,7.2413,7.2569,7.2841,7.3734,7.389,7.3967,7.4162,7.42,7.42,7.42,7.42,7.42,7.42,7.42,7.42,7.42,7.42,7.42,7.42,7.42,7.42,7.42,7.42,7.42,7.42,7.4822,7.556,7.6415,7.6415,7.6493,7.6687,7.6754,7.677,7.6794,7.6797,7.6829,7.6844,7.6825,7.679,7.6819,7.6752,7.6715,7.6715,7.6704,7.6687,7.6687,7.6687,7.6687,7.6687,7.6687,7.6687,7.6687,7.6687,7.6687,7.7075,7.8876,7.9398,7.9804,8.154,8.1952,8.1991,8.2078,8.2168,8.227,8.213,8.2104,8.2104,8.2104,8.2104,8.2104,8.2104,8.2104,8.2104,8.2104,8.2104,8.2104,8.2104,8.2104,8.2104,8.2104,8.2104,8.2104,8.2104,8.2104,8.2104,8.2104,8.2922,8.3507,8.3702,8.4559,8.5416,8.6274,8.6312,8.6312,8.6312,8.6897,8.7209,8.7209,8.7209,8.7209,5.6136,5.8778,6.0875,5.9322,6.2663,6.612,6.5421,6.6625,6.8334,6.9966,7.0354,7.0626,7.152,7.1675,7.1947,7.2841,7.2957,7.3268,7.4084,7.42,7.42,7.42,7.42,7.42,7.42,7.42,7.42,7.42,7.42,7.42,7.42,7.42,7.42,7.42,7.42,7.42,7.42,7.4239,7.4706,7.556,7.556,7.5949,7.6687,7.6687,7.6754,7.678,7.6794,7.6782,7.6718,7.6788,7.6782,7.6814,7.678,7.6793,7.678,7.6715,7.6687,7.6687,7.6687,7.6687,7.6687,7.6687,7.6687,7.6687,7.6687,7.6687,7.7075,7.8823,7.9364,7.9787,8.1459,8.1887,8.1904,8.1998,8.2575,8.2948,8.2247,8.2104,8.2104,8.2104,8.2104,8.2104,8.2104,8.2104,8.2104,8.2104,8.2104,8.2104,8.2104,8.2104,8.2104,8.2104,8.2104,8.2104,8.2104,8.2104,8.2104,8.2104,8.2922,8.378,8.4598,8.5455,8.6312,8.7131,8.7131,8.7131,8.7131,8.717,8.7209,8.7209,8.7209,8.7209,5.6214,5.8389,6.0293,5.9088,6.0604,6.2468,6.2701,6.4527,6.6314,6.6897,6.8373,6.9616,6.9927,7.086,7.1714,7.2025,7.2064,7.218,7.2491,7.253,7.253,7.253,7.253,7.253,7.253,7.253,7.253,7.253,7.253,7.253,7.253,7.253,7.253,7.253,7.253,7.2802,7.3346,7.3385,7.3812,7.4667,7.5211,7.5638,7.5949,7.6454,7.6704,7.6738,7.6752,7.6777,7.6841,7.6814,7.6785,7.679,7.6817,7.6755,7.6731,7.6768,7.6747,7.6687,7.6687,7.6687,7.6687,7.6687,7.6687,7.6687,7.6687,7.6687,7.6959,7.8124,7.888,7.9714,8.1459,8.2297,8.2668,8.2737,8.3003,8.3034,8.222,8.2052,8.2104,8.2104,8.2104,8.2104,8.2104,8.2104,8.2104,8.2104,8.2104,8.2104,8.2104,8.2104,8.2104,8.2104,8.2104,8.2104,8.2104,8.2611,8.2922,8.2922,8.4286,8.5221,8.5533,8.6312,8.6897,8.7209,8.7209,8.7209,8.7209,8.7209,8.7209,8.7209,8.7209,8.7209,5.6214,5.8156,5.9904,5.9011,5.9904,6.1109,6.1691,6.3362,6.4955,6.5537,6.7014,6.8412,6.8995,7.0005,7.086,7.1131,7.1403,7.1598,7.1598,7.1598,7.1598,7.1598,7.1598,7.1598,7.1598,7.1598,7.1598,7.1598,7.1598,7.1598,7.1598,7.1598,7.1598,7.1598,7.1598,7.187,7.2452,7.2452,7.2918,7.3773,7.4356,7.4939,7.5521,7.6065,7.6454,7.6687,7.6687,7.6754,7.6819,7.6809,7.6808,7.6778,7.6788,7.6755,7.6736,7.677,7.6751,7.6715,7.6716,7.6741,7.6728,7.6747,7.677,7.677,7.677,7.6754,7.6971,7.8137,7.888,7.9696,8.1463,8.2318,8.2784,8.3113,8.2987,8.2791,8.2504,8.2259,8.2104,8.2104,8.2104,8.2104,8.2104,8.2104,8.2104,8.2104,8.2104,8.2104,8.2104,8.2104,8.2104,8.2104,8.2104,8.2221,8.2494,8.3078,8.3507,8.3819,8.5182,8.6001,8.6001,8.678,8.7209,8.7209,8.7209,8.7209,8.7209,8.7209,8.7209,8.7209,8.7209,8.7209,0.0,0.0,0.0,5.9011,6.0681,6.2546,6.2585,6.3245,6.4372,6.6042,6.6392,6.6975,6.8684,6.9034,6.9306,7.0083,7.0976,7.152,7.152,7.152,7.152,7.1559,7.1559,7.1559,7.1598,7.1598,7.1598,7.1598,7.1598,7.1598,7.1598,7.1598,7.1598,7.1598,7.1598,7.1598,7.1598,7.1598,7.2025,7.288,7.288,7.3773,7.5444,7.5482,7.591,7.6687,7.6687,7.6687,7.6726,7.6786,7.6816,7.6791,7.6817,7.6783,7.6795,7.6716,7.6719,7.6718,7.677,7.6789,7.6816,7.6887,7.6882,7.6882,7.6882,7.6833,7.7166,7.8878,7.932,7.9735,8.1465,8.1968,8.218,8.2921,8.2543,8.227,8.3081,8.2635,8.2104,8.2104,8.2104,8.2104,8.2104,8.2104,8.2104,8.2104,8.2104,8.2104,8.2104,8.2104,8.2104,8.2104,8.2104,8.2455,8.3312,8.3429,8.3819,8.4676,8.5533,8.604,8.604,8.678,8.7209,8.7209,8.7209,8.7209,8.7209,8.7209,8.7209,8.7209,8.7209,8.7209,5.6991,0.0,0.0,0.0,0.0,0.0,5.9749,6.0565,6.1652,6.3401,6.4255,6.5226,6.6897,6.7208,6.7519,6.8334,6.9228,6.9811,6.9811,6.9811,7.0005,7.0588,7.0665,7.0898,7.152,7.1598,7.1598,7.1598,7.1598,7.1598,7.1598,7.1598,7.1598,7.1598,7.1598,7.1598,7.1598,7.1598,7.1714,7.1986,7.2608,7.3152,7.3657,7.4939,7.5599,7.5871,7.6454,7.6687,7.6687,7.6704,7.6721,7.6738,7.678,7.676,7.6716,7.6761,7.6749,7.6719,7.6717,7.6739,7.6783,7.6802,7.6868,7.6882,7.6882,7.6909,7.7092,7.8222,7.8988,7.9973,8.2248,8.3321,8.3671,8.3193,8.2958,8.2776,8.2419,8.2192,8.2039,8.2104,8.2104,8.2104,8.2104,8.2104,8.2104,8.2104,8.2104,8.2104,8.2104,8.2104,8.2104,8.2104,8.2104,8.2455,8.3312,8.3974,8.4715,8.5572,8.639,8.6858,8.6858,8.7092,8.7209,8.7209,8.7209,8.7209,8.7209,8.7209,8.7209,8.7209,8.7209,8.7209,0.0,0.0,5.9438,5.9788,0.0,0.0,5.9166,5.9205,5.9438,6.0798,6.1769,6.2779,6.4139,6.4955,6.5498,6.5654,6.6703,6.7868,6.8956,6.9111,6.9267,6.9733,6.9811,7.0005,7.051,7.0549,7.0704,7.1015,7.1054,7.1209,7.1559,7.1598,7.1598,7.1598,7.1598,7.1598,7.1598,7.1598,7.1598,7.1598,7.2103,7.2569,7.2957,7.4317,7.5172,7.5521,7.6337,7.6687,7.6687,7.6687,7.6687,7.6687,7.6738,7.6738,7.6702,7.6738,7.6712,7.6685,7.6717,7.6782,7.6795,7.6836,7.6896,7.6926,7.6926,7.6934,7.7189,7.8436,7.9634,8.0922,8.2362,8.3127,8.3345,8.2798,8.2682,8.2559,8.2108,8.1983,8.2026,8.2104,8.2104,8.2104,8.2104,8.2104,8.2104,8.2104,8.2104,8.2104,8.2104,8.2104,8.2104,8.2104,8.2104,8.2611,8.3819,8.4403,8.5221,8.6429,8.6936,8.7209,8.7209,8.7209,8.7209,8.7209,8.7209,8.7209,8.7209,8.7209,8.7209,8.7209,8.7209,8.7209,0.0,0.0,0.0,6.107,6.0176,0.0,5.9827,5.8933,5.8234,5.8933,5.971,6.0565,6.1652,6.3012,6.3789,6.309,6.4216,6.6003,6.8334,6.8762,6.8839,6.8956,6.8956,6.8995,6.9111,6.9111,6.9422,7.0121,7.016,7.051,7.1287,7.1326,7.1365,7.1442,7.1442,7.1481,7.1598,7.1598,7.1598,7.1598,7.1598,7.2025,7.2802,7.3657,7.4511,7.5405,7.6221,7.6609,7.6687,7.6687,7.6687,7.6687,7.6687,7.6687,7.6687,7.6687,7.6687,7.6704,7.678,7.6793,7.6816,7.6872,7.6931,7.6991,7.6992,7.7013,7.734,7.9002,8.068,8.1972,8.196,8.2038,8.2104,8.2022,8.1998,8.2012,8.2007,8.1998,8.2026,8.2104,8.2104,8.2104,8.2104,8.2104,8.2104,8.2104,8.2104,8.2104,8.2104,8.2104,8.2104,8.2104,8.2104,8.2805,8.4559,8.4715,8.5416,8.7092,8.7209,8.7209,8.7209,8.7209,8.7209,8.7209,8.7209,8.7209,8.7209,8.7209,8.7209,8.7209,8.7209,8.7209,0.0,0.0,0.0,0.0,6.0642,0.0,5.9322,5.9904,6.072,6.0875,6.1031,6.1808,6.4061,6.4216,6.4178,6.4644,6.4993,6.5382,6.5887,6.6547,6.7285,6.7985,6.8062,6.8334,6.9034,6.9111,6.9189,6.9306,6.9344,6.9422,6.9578,6.9578,6.9888,7.0549,7.0549,7.0898,7.1598,7.1598,7.1598,7.1598,7.1598,7.1675,7.187,7.2763,7.3618,7.4511,7.5366,7.6104,7.6687,7.6687,7.6687,7.6687,7.6687,7.6687,7.6687,7.6687,7.6687,7.6687,7.6721,7.6752,7.6804,7.6827,7.6864,7.6931,7.699,7.6991,7.722,7.8317,7.9899,8.1212,8.1129,8.1665,8.2162,8.2104,8.2091,8.2091,8.2091,8.2091,8.2104,8.2182,8.2143,8.2104,8.2104,8.2104,8.2104,8.2104,8.2104,8.2104,8.2104,8.2104,8.2104,8.2104,8.2104,8.2805,8.4559,8.4715,8.5416,8.7092,8.7209,8.7209,8.7209,8.7209,8.7209,8.7209,8.7209,8.7209,8.7209,8.7209,8.7209,8.7209,8.7209,8.7209,0.0,0.0,0.0,6.125,0.0,0.0,0.0,5.9477,5.9632,6.0021,6.0099,6.0642,6.2352,6.2663,6.2857,6.3245,6.3323,6.375,6.5032,6.5576,6.6003,6.647,6.6508,6.6858,6.7713,6.7402,6.7519,6.8373,6.8839,6.9111,6.9111,6.9111,6.9267,6.9694,6.9694,7.0083,7.0937,7.0937,7.117,7.1598,7.1598,7.1598,7.1636,7.2491,7.3385,7.4239,7.5133,7.5949,7.6687,7.6687,7.6687,7.6687,7.6687,7.6687,7.6687,7.6687,7.6687,7.6687,7.6687,7.6699,7.6738,7.6738,7.6793,7.6856,7.6894,7.7254,7.7733,7.825,7.9326,8.0452,8.0868,8.1251,8.1711,8.2045,8.2151,8.2151,8.2089,8.2116,8.2116,8.2167,8.2155,8.2143,8.2104,8.2104,8.2104,8.2104,8.2104,8.2104,8.2104,8.2104,8.2104,8.2104,8.2104,8.2611,8.3935,8.4442,8.5221,8.6507,8.6975,8.7209,8.7209,8.7209,8.7209,8.7209,8.7209,8.7209,8.7209,8.7209,8.7209,8.7209,8.7209,8.7209,0.0,0.0,0.0,0.0,0.0,6.09,0.0,0.0,0.0,5.8972,5.9166,5.9555,6.0448,6.1186,6.1614,6.1419,6.1691,6.2507,6.4216,6.476,6.5149,6.5654,6.511,6.5265,6.6625,6.5809,6.5732,6.6975,6.7868,6.8373,6.8373,6.8529,6.8684,6.8839,6.8839,6.9228,7.0044,7.0238,7.0665,7.1365,7.152,7.1598,7.1636,7.2336,7.3229,7.4239,7.4939,7.5793,7.6687,7.6687,7.6687,7.6687,7.6687,7.6687,7.6687,7.6687,7.6687,7.6687,7.6687,7.6687,7.6687,7.6687,7.6762,7.6804,7.6804,7.7401,7.8047,7.8106,7.8757,7.9616,8.0308,8.0732,8.1155,8.1828,8.2093,8.2201,8.2143,8.2162,8.2151,8.2201,8.2218,8.2182,8.2143,8.2104,8.2104,8.2104,8.2104,8.2104,8.2104,8.2104,8.2104,8.2104,8.2104,8.2455,8.3312,8.4052,8.4871,8.5923,8.6624,8.7053,8.7209,8.7209,8.7209,8.7209,8.7209,8.7209,8.7209,8.7209,8.7209,8.7209,8.7209,8.7209,0.0,0.0,0.0,0.0,6.3524,0.0,0.0,0.0,6.1691,6.0254,0.0,6.1381,6.2235,0.0,0.0,6.1536,6.2701,6.3284,6.2002,6.3168,6.4955,6.7247,6.4838,6.4216,6.7363,6.6159,6.4993,6.445,6.5188,6.5654,6.5654,6.6392,6.7169,6.7907,6.7946,6.8373,6.9228,6.9927,7.0354,7.0471,7.1209,7.1598,7.1598,7.1714,7.2647,7.42,7.4317,7.5249,7.6687,7.6687,7.6687,7.6687,7.6687,7.6687,7.6687,7.6687,7.6687,7.6687,7.6687,7.6687,7.6687,7.6687,7.6762,7.6804,7.6804,7.6926,7.7083,7.7148,7.7773,7.8512,7.864,7.9834,8.1005,8.1116,8.174,8.2287,8.2287,8.228,8.2273,8.2201,8.2268,8.226,8.2182,8.2143,8.2104,8.2104,8.2104,8.2104,8.2104,8.2104,8.2104,8.2104,8.2104,8.2455,8.3312,8.3507,8.4247,8.5884,8.6079,8.6468,8.717,8.7209,8.7209,8.7209,8.7209,8.7209,8.7209,8.7209,8.7209,8.7209,8.7209,8.7209,0.0,0.0,0.0,0.0,0.0,0.0,6.1795,0.0,6.1788,0.0,0.0,0.0,0.0,0.0,0.0,0.0,6.1924,6.1847,6.2119,6.107,6.1614,6.5149,6.3867,6.3245,6.4683,6.4644,6.4372,6.4022,6.476,6.4993,6.4527,6.577,6.6431,6.6314,6.678,6.7441,6.8334,6.9189,6.9849,7.0316,7.117,7.1598,7.1598,7.1598,7.2297,7.3462,7.3462,7.4434,7.5988,7.5988,7.6298,7.6687,7.6687,7.6687,7.6687,7.6687,7.6687,7.6687,7.6687,7.6687,7.6687,7.6687,7.6738,7.6738,7.678,7.6838,7.6856,7.6927,7.7222,7.7656,7.8198,7.8922,7.9756,8.0771,8.1278,8.1669,8.2176,8.2293,8.2293,8.226,8.2266,8.2287,8.2245,8.2182,8.2143,8.2104,8.2104,8.2104,8.2104,8.2104,8.2104,8.2104,8.2104,8.226,8.2611,8.3585,8.4481,8.5182,8.6157,8.6858,8.7209,8.7209,8.7209,8.7209,8.7209,8.7209,8.7209,8.7209,8.7209,8.7209,8.7209,8.7209,6.5057,0.0,0.0,0.0,0.0,0.0,0.0,0.0,0.0,0.0,6.2502,0.0,0.0,0.0,6.2157,6.2313,0.0,6.1458,6.2235,6.0215,5.9982,6.3556,6.3867,6.3556,6.309,6.3634,6.3789,6.3323,6.3828,6.3906,6.3323,6.4877,6.5615,6.5226,6.6042,6.6819,6.7441,6.8296,6.915,6.9966,7.0821,7.1365,7.1598,7.1598,7.2064,7.2918,7.2918,7.389,7.5482,7.5482,7.5988,7.6687,7.6687,7.6687,7.6687,7.6687,7.6687,7.6687,7.6687,7.6687,7.6687,7.6687,7.6687,7.6704,7.6752,7.678,7.678,7.6847,7.6912,7.7097,7.7769,7.8122,7.8762,8.0246,8.0821,8.1239,8.2098,8.2293,8.2305,8.2289,8.2301,8.23,8.2304,8.2229,8.2182,8.2143,8.2143,8.2143,8.2143,8.2104,8.2104,8.2104,8.2104,8.2104,8.2104,8.3468,8.4559,8.5027,8.639,8.7209,8.7209,8.7209,8.7209,8.7209,8.7209,8.7209,8.7209,8.7209,8.7209,8.7209,8.7209,8.7209,0.0,0.0,0.0,6.5064,0.0,0.0,0.0,0.0,6.3303,0.0,0.0,0.0,0.0,0.0,0.0,0.0,6.2818,0.0,0.0,6.1342,6.1963,6.3789,6.5421,6.5732,6.41,6.3983,6.3284,6.1614,6.1497,6.1497,6.1497,6.3129,6.4411,6.5188,6.6042,6.6508,6.6547,6.7402,6.8296,6.915,6.9966,7.0782,7.1598,7.1598,7.2064,7.2918,7.2918,7.389,7.5482,7.5482,7.5988,7.6687,7.6687,7.6687,7.6687,7.6687,7.6687,7.6687,7.6687,7.6687,7.6687,7.6687,7.6687,7.6687,7.6687,7.6687,7.6738,7.6768,7.6816,7.6838,7.6933,7.7608,7.8515,7.9414,8.0336,8.1239,8.2098,8.2293,8.2305,8.2289,8.2301,8.2304,8.2304,8.2241,8.2182,8.2182,8.2182,8.2182,8.2182,8.2143,8.2104,8.2104,8.2104,8.2104,8.2104,8.2922,8.4169,8.5845,8.6741,8.7209,8.7209,8.7209,8.7209,8.7209,8.7209,8.7209,8.7209,8.7209,8.7209,8.7209,8.7209,8.7209,0.0,0.0,6.6242,6.5712,0.0,0.0,0.0,0.0,0.0,0.0,0.0,0.0,0.0,0.0,0.0,0.0,6.2711,6.2546,0.0,6.0526,6.0759,6.1342,6.2429,6.2896,6.2313,6.1225,6.0565,6.0526,5.9516,5.9127,5.9671,6.1886,6.3245,6.3556,6.4916,6.5926,6.6508,6.7363,6.8257,6.9111,6.9927,7.0743,7.1598,7.1598,7.1753,7.2025,7.2025,7.2685,7.3812,7.4395,7.5133,7.5949,7.6493,7.6687,7.6687,7.6687,7.6687,7.6687,7.6687,7.6687,7.6687,7.6687,7.6687,7.6687,7.6687,7.6687,7.6704,7.6715,7.6767,7.6816,7.6809,7.7511,7.8461,7.9375,8.0272,8.1162,8.2104,8.2293,8.2293,8.2305,8.2297,8.2304,8.2304,8.2297,8.2232,8.2226,8.2218,8.2192,8.2194,8.2182,8.2143,8.2104,8.2104,8.2104,8.2104,8.3429,8.4988,8.6702,8.7053,8.7209,8.7209,8.7209,8.7209,8.7209,8.7209,8.7209,8.7209,8.7209,8.7209,8.7209,8.7209,8.7209,6.6916,6.6637,0.0,6.6049,6.4715,0.0,6.3415,0.0,6.4232,0.0,0.0,0.0,0.0,0.0,0.0,6.349,6.2975,6.2051,0.0,5.9827,5.9749,6.006,6.1147,6.1614,6.0992,6.0215,5.971,5.9632,5.8078,5.7768,5.9205,6.0565,6.173,6.2663,6.4333,6.5615,6.6508,6.7052,6.7946,6.9111,6.9616,7.0471,7.1598,7.1598,7.1598,7.1598,7.1598,7.2103,7.2957,7.3851,7.4706,7.556,7.6376,7.6687,7.6687,7.6687,7.6687,7.6687,7.6687,7.6687,7.6687,7.6687,7.6687,7.6687,7.6687,7.6687,7.6687,7.6687,7.6731,7.6767,7.6767,7.7451,7.8402,7.9304,8.0222,8.113,8.2029,8.2253,8.2276,8.226,8.2289,8.2304,8.2304,8.2304,8.2304,8.225,8.2246,8.2254,8.2245,8.2221,8.2182,8.2143,8.2143,8.2377,8.2961,8.4052,8.5416,8.7092,8.7209,8.7209,8.7209,8.7209,8.7365,8.7676,8.7365,8.7365,8.7676,8.7365,8.7209,8.7209,8.7209,8.7209]},{"header":{"parameterUnit":"m.s-1","parameterCategory":1,"la1":30.6,"la2":29.2853,"lo1":-89.7004,"lo2":-87.6739,"dy":0.0162,"dx":0.0183,"nx":112,"ny":82,"refTime":"2024-03-14T18:00:00:Z","depth":0,"parameterNumber":3,"parameterNumberName":"V-component_of_WINDS"},"data":[0.0,0.0,0.0,0.0,0.0,0.0,0.0,0.0,0.0,0.0,0.0,0.0,0.0,0.0,0.0,0.0,0.0,0.0,0.0,0.0,0.0,0.0,0.0,0.0,0.0,0.0,0.0,0.0,0.0,0.0,0.0,0.0,0.0,0.0,0.0,0.0,0.0,0.0,0.0,0.0,0.0,0.0,0.0,0.0,0.0,0.0,0.0,0.0,0.0,0.0,0.0,0.0,0.0,0.0,0.0,0.0,0.0,0.0,0.0,0.0,0.0,0.0,0.0,0.0,0.0,0.0,0.0,0.0,0.0,0.0,0.0,0.0,0.0,0.0,0.0,0.0,0.0,0.0,0.0,0.0,0.0,0.0,0.0,0.0,0.0,0.0,0.0,0.0,0.0,0.0,-0.4701,-0.4832,-0.4773,-0.4128,-0.2921,-0.2774,-0.2395,-0.17,0.0,0.0,0.0,0.0,0.0,0.0,0.0,0.0,0.0,0.0,0.0,0.0,0.0,0.0,0.0,0.0,0.0,0.0,0.0,0.0,0.0,0.0,0.0,0.0,0.0,0.0,0.0,0.0,0.0,0.0,0.0,0.0,0.0,0.0,0.0,0.0,0.0,0.0,0.0,0.0,0.0,0.0,0.0,0.0,0.0,0.0,0.0,0.0,0.0,0.0,0.0,0.0,0.0,0.0,0.0,0.0,0.0,0.0,0.0,0.0,0.0,0.0,0.0,0.0,0.0,0.0,0.0,0.0,0.0,0.0,0.0,0.0,0.0,0.0,0.0,0.0,0.0,0.0,0.0,0.0,0.0,0.0,0.0,0.0,0.0,0.0,0.0,0.0,0.0,0.0,0.0,0.0,0.0,0.0,0.0,0.0,0.0,0.0,0.0,0.0,0.0,0.0,0.0,0.0,-0.4204,-0.383,-0.3484,-0.2937,-0.2259,-0.2057,-0.1937,-0.1659,0.0,0.0,0.0,0.0,0.0,0.0,0.0,0.0,0.0,0.0,0.0,0.0,0.0,0.0,0.0,0.0,0.0,0.0,0.0,0.0,0.0,0.0,0.0,0.0,0.0,0.0,0.0,0.0,0.0,0.0,0.0,0.0,0.0,0.0,0.0,0.0,0.0,0.0,0.0,0.0,0.0,0.0,0.0,0.0,0.0,0.0,0.0,0.0,0.0,0.0,0.0,0.0,0.0,0.0,0.0,0.0,0.0,0.0,0.0,0.0,0.0,0.0,0.0,0.0,0.0,0.0,0.0,0.0,0.0,0.0,0.0,0.0,0.0,0.0,0.0,0.0,0.0,0.0,0.0,0.0,0.0,0.0,0.0,0.0,0.0,0.0,0.0,0.0,0.0,0.0,0.0,0.0,0.0,0.0,0.0,0.0,0.0,0.0,0.0,0.0,0.0,0.0,0.0,-0.4399,-0.4421,-0.438,-0.3957,-0.3362,-0.2655,-0.2316,-0.2067,-0.1673,-0.1517,0.0,0.0,0.0,0.0,0.0,0.0,0.0,0.0,0.0,0.0,0.0,0.0,0.0,0.0,0.0,0.0,0.0,0.0,0.0,0.0,0.0,0.0,0.0,0.0,0.0,0.0,0.0,0.0,0.0,0.0,0.0,0.0,0.0,0.0,0.0,0.0,0.0,0.0,0.0,0.0,0.0,0.0,0.0,0.0,0.0,0.0,0.0,0.0,0.0,0.0,0.0,0.0,0.0,0.0,0.0,0.0,0.0,0.0,0.0,0.0,0.0,0.0,0.0,0.0,0.0,0.0,0.0,0.0,0.0,0.0,0.0,0.0,0.0,0.0,0.0,0.0,0.0,0.0,0.0,0.0,0.0,0.0,0.0,0.0,0.0,0.0,0.0,0.0,0.0,0.0,0.0,0.0,0.0,0.0,0.0,0.0,0.0,0.0,0.0,0.0,0.0,0.0,-0.4931,-0.4829,-0.4749,-0.4389,-0.3899,-0.3177,-0.2678,-0.229,-0.1892,-0.1574,0.0,0.0,0.0,0.0,0.0,0.0,0.0,0.0,0.0,0.0,0.0,0.0,0.0,0.0,0.0,0.0,0.0,0.0,0.0,0.0,0.0,0.0,0.0,0.0,0.0,0.0,0.0,0.0,0.0,0.0,0.0,0.0,0.0,0.0,0.0,0.0,0.0,0.0,0.0,0.0,0.0,0.0,0.0,0.0,0.0,0.0,0.0,0.0,0.0,0.0,0.0,0.0,0.0,0.0,0.0,0.0,0.0,0.0,0.0,0.0,0.0,0.0,0.0,0.0,0.0,0.0,0.0,0.0,0.0,0.0,0.0,0.0,0.0,0.0,0.0,0.0,0.0,0.0,0.0,0.0,0.0,0.0,0.0,0.0,0.0,0.0,0.0,0.0,0.0,0.0,0.0,0.0,0.0,0.0,0.0,0.0,0.0,0.0,0.0,0.0,0.0,0.0,-0.4654,-0.4777,-0.4014,-0.4093,-0.3871,-0.3093,-0.2618,-0.2218,-0.2133,-0.1636,0.0,0.0,0.0,0.0,0.0,0.0,0.0,0.0,0.0,0.0,0.0,0.0,0.0,0.0,0.0,0.0,0.0,0.0,0.0,0.0,0.0,0.0,0.0,0.0,0.0,0.0,0.0,0.0,0.0,0.0,0.0,0.0,0.0,0.0,0.0,0.0,0.0,0.0,0.0,0.0,0.0,0.0,0.0,0.0,0.0,0.0,0.0,0.0,0.0,0.0,0.0,0.0,0.0,0.0,0.0,0.0,0.0,0.0,0.0,0.0,0.0,0.0,0.0,0.0,0.0,0.0,0.0,0.0,0.0,0.0,0.0,0.0,0.0,0.0,0.0,0.0,0.0,0.0,0.0,0.0,0.0,0.0,0.0,0.0,0.0,0.0,0.0,0.0,0.0,0.0,0.0,0.0,0.0,0.0,0.0,0.0,0.0,0.0,0.0,0.0,0.0,0.0,-0.4324,-0.4506,-0.4636,-0.438,-0.4036,-0.3744,-0.3261,-0.2813,-0.2209,0.0,0.0,0.0,0.0,0.0,0.0,0.0,0.0,0.0,0.0,0.0,0.0,0.0,0.0,0.0,0.0,0.0,0.0,0.0,0.0,0.0,0.0,0.0,0.0,0.0,0.0,0.0,0.0,0.0,0.0,0.0,0.0,0.0,0.0,0.0,0.0,0.0,0.0,0.0,0.0,0.0,0.0,0.0,0.0,0.0,0.0,0.0,0.0,0.0,0.0,0.0,0.0,0.0,0.0,0.0,0.0,0.0,0.0,0.0,0.0,0.0,0.0,0.0,0.0,0.0,0.0,0.0,0.0,0.0,0.0,0.0,0.0,0.0,0.0,0.0,0.0,0.0,0.0,0.0,0.0,0.0,0.0,0.0,0.0,0.0,0.0,0.0,0.0,0.0,0.0,0.0,0.0,0.0,0.0,0.0,0.0,0.0,0.0,0.0,0.0,0.0,0.0,-0.4016,-0.4079,-0.4327,-0.4703,-0.4409,-0.4164,-0.4101,-0.3602,-0.3013,-0.2377,0.0,0.0,0.0,0.0,0.0,0.0,0.0,0.0,0.0,0.0,0.0,0.0,0.0,0.0,0.0,0.0,0.0,0.0,0.0,0.0,0.0,0.0,0.0,0.0,0.0,0.0,0.0,0.0,0.0,0.0,0.0,0.0,0.0,0.0,0.0,0.0,0.0,0.0,0.0,0.0,0.0,0.0,0.0,0.0,0.0,0.0,0.0,0.0,0.0,0.0,0.0,0.0,0.0,0.0,0.0,0.0,0.0,0.0,0.0,0.0,0.0,0.0,0.0,0.0,0.0,0.0,0.0,0.0,0.0,0.0,0.0,0.0,0.0,0.0,0.0,0.0,0.0,0.0,0.0,0.0,0.0,0.0,0.0,0.0,0.0,0.0,0.0,0.0,0.0,0.0,0.0,0.0,0.0,0.0,0.0,0.0,0.0,0.0,0.0,0.0,0.0,0.0,-0.3872,-0.4144,-0.4389,-0.4196,-0.4161,-0.4101,-0.4038,-0.3477,-0.2998,0.0,0.0,0.0,0.0,0.0,0.0,0.0,0.0,0.0,0.0,0.0,0.0,0.0,0.0,0.0,0.0,0.0,0.0,0.0,0.0,0.0,0.0,0.0,0.0,0.0,0.0,0.0,0.0,0.0,0.0,0.0,0.0,0.0,0.0,0.0,0.0,0.0,0.0,0.0,0.0,0.0,0.0,0.0,0.0,0.0,0.0,0.0,0.0,0.0,0.0,0.0,0.0,0.0,0.0,0.0,0.0,0.0,0.0,0.0,0.0,0.0,0.0,0.0,0.0,0.0,0.0,0.0,0.0,0.0,0.0,0.0,0.0,0.0,0.0,0.0,0.0,0.0,0.0,0.0,0.0,0.0,0.0,0.0,0.0,0.0,0.0,0.0,0.0,0.0,0.0,0.0,0.0,0.0,0.0,0.0,0.0,0.0,0.0,0.0,0.0,0.0,0.0,0.0,-0.3804,-0.4005,-0.4108,-0.4079,-0.4112,-0.4085,-0.3984,-0.3643,-0.3275,-0.2587,0.0,0.0,0.0,0.0,0.0,0.0,0.0,0.0,0.0,0.0,0.0,0.0,0.0,0.0,0.0,0.0,0.0,0.0,0.0,0.0,0.0,0.0,0.0,0.0,0.0,0.0,0.0,0.0,0.0,0.0,0.0,0.0,0.0,0.0,0.0,0.0,0.0,0.0,0.0,0.0,0.0,0.0,0.0,0.0,0.0,0.0,0.0,0.0,0.0,0.0,0.0,0.0,0.0,0.0,0.0,0.0,0.0,0.0,0.0,0.0,0.0,0.0,0.0,0.0,0.0,0.0,0.0,0.0,0.0,0.0,0.0,0.0,0.0,0.0,0.0,0.0,0.0,0.0,0.0,0.0,0.0,0.0,0.0,0.0,0.0,0.0,0.0,0.0,0.0,0.0,0.0,0.0,0.0,0.0,0.0,0.0,0.0,0.0,0.0,0.0,0.0,0.0,-0.3856,-0.3911,-0.3981,-0.4063,-0.4104,-0.3952,-0.3712,-0.3546,-0.3203,-0.2496,0.0,0.0,0.0,0.0,0.0,0.0,0.0,0.0,0.0,0.0,0.0,0.0,0.0,0.0,0.0,0.0,0.0,0.0,0.0,0.0,0.0,0.0,0.0,0.0,0.0,0.0,0.0,0.0,0.0,0.0,0.0,0.0,0.0,0.0,0.0,0.0,0.0,0.0,0.0,0.0,0.0,0.0,0.0,0.0,0.0,0.0,0.0,0.0,0.0,0.0,0.0,0.0,0.0,0.0,0.0,0.0,0.0,0.0,0.0,0.0,0.0,0.0,0.0,0.0,0.0,0.0,0.0,0.0,0.0,0.0,0.0,0.0,0.0,0.0,0.0,0.0,0.0,0.0,0.0,0.0,0.0,0.0,0.0,0.0,0.0,0.0,0.0,0.0,0.0,0.0,0.0,0.0,0.0,0.0,0.0,0.0,0.0,0.0,0.0,0.0,0.0,0.0,-0.3966,-0.3954,-0.3995,-0.4106,-0.4123,-0.3949,-0.3589,-0.331,-0.2996,-0.2441,0.0,0.0,0.0,0.0,0.0,0.0,0.0,0.0,0.0,0.0,0.0,0.0,0.0,0.0,0.0,0.0,0.0,0.0,0.0,0.0,0.0,0.0,0.0,0.0,0.0,0.0,0.0,0.0,0.0,0.0,0.0,0.0,0.0,0.0,0.0,0.0,0.0,0.0,0.0,0.0,0.0,0.0,0.0,0.0,0.0,0.0,0.0,0.0,0.0,0.0,0.0,0.0,0.0,0.0,0.0,0.0,0.0,0.0,0.0,0.0,-0.3493,0.0,0.0,0.0,0.0,0.0,0.0,0.0,0.0,0.0,0.0,0.0,0.0,0.0,0.0,0.0,0.0,0.0,0.0,0.0,0.0,0.0,0.0,0.0,0.0,0.0,0.0,0.0,0.0,0.0,0.0,0.0,0.0,0.0,0.0,0.0,0.0,0.0,0.0,0.0,0.0,0.0,-0.3898,-0.3925,-0.3978,-0.4046,-0.4098,-0.4079,-0.3836,-0.3428,-0.3124,-0.2902,-0.2161,0.0,0.0,0.0,0.0,0.0,0.0,0.0,0.0,0.0,0.0,0.0,0.0,0.0,0.0,0.0,0.0,0.0,0.0,0.0,0.0,0.0,0.0,0.0,0.0,0.0,0.0,0.0,0.0,0.0,0.0,0.0,0.0,0.0,0.0,0.0,0.0,0.0,0.0,0.0,0.0,0.0,0.0,0.0,0.0,0.0,0.0,0.0,0.0,0.0,0.0,0.0,0.0,0.0,0.0,0.0,0.0,0.0,0.0,0.0,0.0,-0.3545,0.0,0.0,0.0,0.0,0.0,0.0,0.0,0.0,0.0,0.0,0.0,0.0,0.0,0.0,0.0,0.0,0.0,0.0,0.0,0.0,0.0,0.0,0.0,0.0,0.0,0.0,0.0,0.0,0.0,0.0,0.0,0.0,0.0,0.0,0.0,0.0,0.0,0.0,0.0,0.0,-0.3659,-0.3813,-0.3929,-0.3986,-0.4046,-0.392,-0.371,-0.3355,-0.2985,-0.2815,-0.2196,0.0,0.0,0.0,0.0,0.0,0.0,0.0,0.0,0.0,0.0,0.0,0.0,0.0,0.0,0.0,0.0,0.0,0.0,0.0,0.0,0.0,0.0,0.0,0.0,0.0,0.0,0.0,0.0,0.0,0.0,0.0,0.0,0.0,0.0,0.0,0.0,0.0,0.0,0.0,0.0,0.0,0.0,0.0,0.0,0.0,0.0,0.0,0.0,0.0,0.0,0.0,0.0,0.0,-0.3948,-0.3997,-0.3997,-0.3986,-0.4011,-0.4049,-0.3741,-0.3681,-0.379,-0.3638,0.0,0.0,0.0,0.0,0.0,0.0,0.0,0.0,0.0,0.0,0.0,0.0,0.0,0.0,0.0,0.0,0.0,0.0,0.0,0.0,0.0,0.0,0.0,0.0,-0.3629,-0.3659,0.0,0.0,0.0,0.0,0.0,0.0,0.0,0.0,0.0,0.0,0.0,0.0,-0.3546,-0.3719,-0.3899,-0.3959,-0.4006,-0.3891,-0.3472,-0.3167,-0.2842,-0.261,-0.2234,-0.1985,0.0,0.0,0.0,0.0,0.0,0.0,0.0,0.0,0.0,0.0,0.0,0.0,0.0,0.0,0.0,0.0,0.0,0.0,0.0,0.0,0.0,0.0,0.0,0.0,0.0,0.0,0.0,0.0,0.0,0.0,0.0,0.0,-0.3275,-0.3398,0.0,0.0,0.0,0.0,0.0,0.0,0.0,0.0,0.0,0.0,0.0,0.0,0.0,-0.3935,-0.3976,-0.4098,-0.4158,-0.4158,-0.4174,-0.4183,-0.418,-0.4128,-0.4136,-0.4188,-0.4087,0.0,-0.3924,-0.3902,0.0,0.0,0.0,0.0,0.0,0.0,0.0,0.0,0.0,0.0,0.0,0.0,0.0,0.0,0.0,0.0,0.0,0.0,0.0,0.0,0.0,0.0,-0.3777,-0.3743,-0.3774,-0.3802,0.0,-0.3463,-0.3213,-0.3076,-0.2992,0.0,0.0,0.0,0.0,0.0,0.0,0.0,-0.3772,-0.3872,-0.3959,-0.4016,-0.403,-0.3907,-0.3525,-0.3187,-0.2868,-0.2811,-0.2342,-0.2233,-0.2449,-0.2048,0.0,0.0,0.0,0.0,0.0,0.0,0.0,0.0,0.0,0.0,0.0,0.0,0.0,0.0,0.0,0.0,0.0,0.0,0.0,0.0,0.0,0.0,0.0,0.0,0.0,0.0,0.0,0.0,0.0,-0.3384,-0.3501,-0.3556,-0.3613,-0.3649,0.0,0.0,0.0,0.0,0.0,0.0,0.0,0.0,0.0,-0.4016,-0.4074,-0.4128,-0.4188,-0.4275,-0.4319,-0.4319,-0.4352,-0.4365,-0.4365,-0.4338,-0.4341,-0.4365,-0.4338,-0.4278,-0.4191,-0.4055,-0.3951,-0.3872,0.0,0.0,0.0,0.0,-0.3768,-0.3755,-0.3856,-0.3847,0.0,-0.3741,0.0,0.0,0.0,0.0,0.0,0.0,0.0,0.0,0.0,0.0,-0.3702,-0.3891,-0.3801,-0.3697,-0.361,-0.3302,-0.316,0.0,-0.3298,-0.3096,-0.2727,0.0,0.0,0.0,0.0,-0.3573,-0.3561,-0.3774,-0.3921,-0.3981,-0.3986,-0.3865,-0.3491,-0.32,-0.279,-0.2628,-0.23,-0.2227,-0.2281,-0.231,-0.2147,0.0,0.0,0.0,0.0,0.0,0.0,0.0,0.0,0.0,0.0,0.0,0.0,0.0,0.0,0.0,0.0,0.0,0.0,0.0,0.0,0.0,0.0,0.0,0.0,0.0,0.0,0.0,0.0,-0.3548,-0.3643,-0.3676,-0.3747,-0.3788,0.0,0.0,0.0,0.0,0.0,0.0,-0.4076,-0.4082,-0.4145,-0.4281,-0.4283,-0.4322,-0.4398,-0.4444,-0.4474,-0.4491,-0.4531,-0.4559,-0.4575,-0.4575,-0.4575,-0.4575,-0.4542,-0.4504,-0.445,-0.4221,-0.4109,-0.4074,-0.3986,-0.3943,-0.3935,-0.3978,-0.3967,-0.3946,-0.4079,-0.4068,-0.3984,-0.3907,-0.3842,-0.3766,-0.3616,0.0,0.0,0.0,0.0,-0.3517,-0.3846,-0.3915,-0.383,-0.3954,-0.3868,-0.3754,-0.3534,-0.3378,-0.3382,0.0,-0.3448,-0.3232,-0.2891,0.0,0.0,0.0,0.0,-0.3571,-0.3444,-0.3688,-0.3899,-0.3946,-0.3951,-0.3704,-0.3455,-0.3086,-0.2823,-0.2307,-0.2365,-0.2312,-0.2275,-0.2467,-0.2427,-0.2005,0.0,0.0,0.0,0.0,0.0,0.0,0.0,0.0,0.0,0.0,0.0,0.0,0.0,0.0,0.0,0.0,0.0,0.0,0.0,0.0,0.0,0.0,0.0,0.0,0.0,0.0,0.0,0.0,0.0,-0.3665,-0.3782,0.0,0.0,0.0,0.0,-0.3951,-0.4049,-0.4139,-0.4204,-0.4207,-0.4289,-0.4463,-0.4469,-0.4526,-0.4646,-0.4649,-0.4679,-0.4736,-0.4739,-0.4771,-0.4828,-0.4828,-0.4828,-0.482,-0.4706,-0.4654,-0.4638,-0.4455,-0.4311,-0.4207,-0.4202,-0.4164,-0.4112,-0.4115,-0.4115,-0.4115,-0.4123,-0.4123,-0.4125,-0.4177,-0.4153,-0.409,-0.4025,-0.4006,0.0,0.0,-0.4063,-0.4109,-0.4115,-0.4161,-0.4207,-0.4207,-0.4253,-0.4147,-0.3821,-0.4158,-0.4279,0.0,-0.3084,-0.316,-0.3045,0.0,-0.3507,-0.3137,-0.3529,-0.3847,-0.3749,-0.3872,-0.3948,-0.3951,-0.3951,-0.3702,-0.3086,-0.296,-0.2714,-0.2097,-0.2549,-0.2747,-0.2353,-0.2841,-0.283,-0.2065,-0.1975,0.0,0.0,0.0,0.0,0.0,0.0,0.0,0.0,0.0,0.0,0.0,0.0,0.0,0.0,0.0,0.0,0.0,0.0,0.0,0.0,0.0,0.0,0.0,0.0,0.0,0.0,0.0,0.0,-0.3847,-0.3959,0.0,-0.4,-0.409,-0.4161,-0.418,-0.4519,-0.4612,-0.4442,-0.4724,-0.4794,-0.4654,-0.4657,-0.4698,-0.4779,-0.4782,-0.4793,-0.4815,-0.4815,-0.4826,-0.4845,-0.4845,-0.4845,-0.4845,-0.4798,-0.4782,-0.4774,-0.467,-0.4531,-0.4384,-0.4349,-0.4319,-0.43,-0.43,-0.4275,-0.4248,-0.4289,-0.4251,-0.4174,-0.4117,-0.406,-0.4016,-0.403,-0.4036,-0.4052,-0.4131,-0.4166,-0.4194,-0.4232,-0.4259,-0.4275,-0.4275,-0.4158,-0.3897,-0.3744,-0.3725,-0.3672,-0.3546,-0.3684,-0.3798,-0.33,-0.3548,-0.3668,-0.3235,-0.3558,-0.3897,-0.3823,-0.3899,-0.3951,-0.3951,-0.3951,-0.3702,-0.3086,-0.3209,-0.295,-0.1948,-0.2397,-0.2596,-0.2554,-0.2725,-0.2766,-0.2471,-0.2339,-0.2065,0.0,0.0,0.0,0.0,0.0,0.0,0.0,0.0,0.0,0.0,0.0,0.0,0.0,0.0,0.0,0.0,0.0,0.0,0.0,0.0,0.0,0.0,0.0,0.0,0.0,-0.3905,-0.4014,-0.4038,-0.4161,-0.4232,-0.4191,-0.4411,-0.4482,-0.4365,-0.4857,-0.4952,-0.463,-0.4924,-0.4994,-0.4839,-0.4845,-0.4883,-0.4965,-0.4965,-0.4965,-0.4965,-0.4965,-0.4957,-0.4935,-0.4957,-0.4943,-0.4905,-0.4905,-0.4894,-0.4872,-0.4812,-0.4703,-0.4567,-0.4488,-0.4444,-0.4425,-0.4425,-0.4401,-0.4373,-0.4412,-0.4373,-0.4292,-0.4213,-0.4147,-0.4109,-0.4145,-0.4142,-0.4145,-0.4224,-0.4248,-0.4256,-0.4297,-0.4308,-0.4308,-0.4308,-0.4174,-0.3902,-0.3633,-0.3497,-0.3488,-0.3455,-0.3873,-0.3992,-0.3612,-0.3775,-0.3907,-0.3549,-0.3751,-0.3948,-0.3948,-0.3967,-0.3978,-0.3978,-0.3962,-0.3702,-0.3209,-0.3193,-0.2925,-0.2173,-0.2367,-0.2554,-0.2511,-0.2694,-0.276,-0.2386,-0.2381,-0.2125,-0.1492,0.0,0.0,0.0,0.0,0.0,0.0,0.0,0.0,0.0,0.0,0.0,0.0,0.0,0.0,0.0,0.0,0.0,0.0,0.0,0.0,0.0,0.0,0.0,-0.3956,-0.4057,-0.4155,-0.4218,-0.4379,-0.4442,-0.433,-0.4899,-0.4982,-0.4496,-0.5036,-0.514,-0.476,-0.4766,-0.4845,-0.5022,-0.5027,-0.5082,-0.5202,-0.5202,-0.5202,-0.5202,-0.5202,-0.5172,-0.5117,-0.5175,-0.5139,-0.5027,-0.5027,-0.4995,-0.4937,-0.4877,-0.4815,-0.4747,-0.4627,-0.4542,-0.4488,-0.4488,-0.4488,-0.4485,-0.4482,-0.4482,-0.4482,-0.4482,-0.4444,-0.4401,-0.4401,-0.436,-0.4313,-0.4313,-0.4313,-0.4313,-0.4313,-0.4313,-0.4313,-0.4313,-0.4313,-0.4176,-0.3367,-0.3501,-0.377,-0.3362,-0.3459,-0.3806,-0.401,-0.4128,-0.4128,-0.4125,-0.4125,0.0,-0.4125,-0.4074,-0.4038,-0.4038,-0.3986,-0.383,-0.3581,-0.3165,-0.2772,-0.2408,-0.2575,-0.2511,-0.2246,-0.276,-0.2821,-0.2133,-0.1988,-0.1876,-0.1798,0.0,0.0,0.0,0.0,0.0,0.0,0.0,0.0,0.0,0.0,0.0,0.0,0.0,0.0,0.0,0.0,0.0,0.0,0.0,0.0,0.0,-0.4321,-0.4279,-0.4071,-0.4441,-0.4562,-0.4398,-0.4774,-0.484,-0.4564,-0.4796,-0.4847,-0.4681,-0.5242,-0.5343,-0.4946,-0.5303,-0.5373,-0.515,-0.5153,-0.5169,-0.5202,-0.5202,-0.5202,-0.5202,-0.5202,-0.5194,-0.5177,-0.5194,-0.5185,-0.5153,-0.5153,-0.5117,-0.506,-0.4997,-0.4913,-0.4812,-0.4736,-0.4668,-0.4616,-0.4616,-0.4586,-0.4542,-0.4499,-0.4482,-0.4482,-0.4482,-0.4471,-0.4461,-0.4461,-0.4447,-0.4433,-0.4433,-0.4433,-0.4433,-0.4433,-0.4433,-0.4433,-0.4433,-0.4433,-0.4422,-0.4108,-0.41,-0.4224,-0.4044,-0.4026,-0.4129,-0.4202,-0.4191,-0.4177,-0.4134,-0.4125,0.0,-0.4125,-0.4112,-0.4101,-0.4101,-0.4046,-0.3886,-0.3513,-0.3307,-0.3,-0.2492,-0.2532,-0.2594,-0.2244,-0.276,-0.3057,-0.2826,-0.2285,-0.2077,0.0,0.0,0.0,0.0,0.0,0.0,0.0,0.0,0.0,0.0,0.0,0.0,0.0,0.0,0.0,0.0,0.0,0.0,0.0,0.0,0.0,0.0,-0.4603,-0.458,-0.4297,-0.4919,-0.5147,-0.469,-0.5213,-0.529,-0.4736,-0.5268,-0.5474,-0.4867,-0.5599,-0.5691,-0.5095,-0.5291,-0.55,-0.5564,-0.5403,-0.5417,-0.5607,-0.5443,-0.5278,-0.5278,-0.5278,-0.5264,-0.5243,-0.5267,-0.5251,-0.5202,-0.5202,-0.5183,-0.5145,-0.5085,-0.5019,0.0,0.0,0.0,0.0,0.0,-0.4657,-0.4646,-0.4608,-0.4597,-0.4597,-0.4597,-0.4561,-0.4521,-0.4521,-0.4501,-0.4482,-0.4482,-0.4482,-0.4482,-0.4482,-0.4482,-0.4482,-0.4482,-0.4482,-0.4474,-0.4303,-0.4159,-0.4149,-0.4116,-0.4108,0.0,-0.4303,-0.4273,-0.4243,-0.4207,-0.4202,-0.4202,-0.4202,-0.418,-0.4164,-0.4164,-0.4109,-0.3936,-0.3786,-0.3458,0.0,0.0,0.0,-0.2453,-0.2418,-0.2719,0.0,0.0,0.0,-0.2307,-0.2357,0.0,0.0,0.0,-0.1721,-0.1977,0.0,0.0,0.0,0.0,0.0,0.0,0.0,0.0,0.0,0.0,0.0,0.0,0.0,0.0,0.0,0.0,-0.4775,-0.4786,-0.4701,-0.531,-0.5637,-0.4833,-0.5544,-0.578,-0.5027,-0.6065,-0.6302,-0.5198,-0.595,-0.6188,-0.5375,0.0,0.0,0.0,0.0,-0.5683,-0.6074,-0.5572,-0.5403,-0.5403,-0.5403,-0.5376,-0.5324,-0.5373,-0.5335,-0.5232,-0.5226,-0.5215,-0.5199,-0.5145,-0.5109,-0.5071,-0.485,-0.4725,-0.4665,-0.4665,-0.4698,-0.4744,-0.4744,0.0,0.0,-0.4752,-0.4681,-0.4594,-0.4594,-0.4556,-0.4512,-0.4504,-0.4501,-0.4501,-0.4501,-0.4501,-0.4501,-0.4501,-0.4501,-0.4361,-0.4075,-0.3935,-0.3932,-0.3928,-0.3925,-0.405,-0.4417,-0.4357,-0.4316,-0.4308,-0.4308,-0.4308,-0.4308,-0.4259,-0.4226,-0.4226,0.0,0.0,-0.406,-0.3496,-0.3054,-0.2964,-0.2413,-0.2336,-0.2584,-0.2586,-0.2586,-0.258,-0.2625,-0.2557,-0.2369,-0.2295,-0.2316,-0.2314,-0.2041,-0.2082,0.0,0.0,0.0,0.0,0.0,0.0,0.0,0.0,0.0,0.0,0.0,0.0,0.0,0.0,0.0,-0.4845,-0.5179,-0.5273,-0.5057,-0.591,-0.6312,-0.5483,-0.5563,-0.5633,-0.5531,-0.5605,-0.5653,-0.5653,-0.5887,-0.6095,-0.6262,-0.6536,-0.6437,-0.6114,-0.6169,-0.6031,-0.5698,-0.5526,-0.5526,-0.5526,0.0,0.0,-0.5507,-0.5474,-0.5444,-0.542,-0.5371,-0.5294,-0.5202,-0.5191,-0.5101,-0.4962,-0.4867,-0.476,-0.4665,-0.4665,-0.4673,-0.4681,-0.4681,-0.4681,-0.4689,-0.4739,-0.4739,-0.4719,-0.4719,-0.4711,0.0,-0.4643,-0.463,-0.463,-0.463,-0.463,-0.463,-0.463,-0.463,-0.4616,-0.4424,-0.4414,-0.4401,-0.4353,-0.4343,-0.434,-0.4469,-0.442,-0.4365,-0.4316,-0.4308,-0.4308,-0.4308,-0.4297,-0.4289,-0.4289,-0.4234,-0.4194,-0.4183,-0.3702,-0.3367,-0.306,-0.2375,-0.22,-0.2612,-0.2528,-0.2415,-0.2723,-0.2764,-0.2907,-0.3034,-0.3083,-0.3247,-0.3286,-0.2696,-0.2647,0.0,0.0,0.0,0.0,0.0,0.0,0.0,0.0,0.0,0.0,0.0,-0.4459,-0.4698,0.0,-0.4898,-0.4727,-0.5213,-0.5584,-0.5324,-0.5613,-0.5714,-0.5283,-0.5818,-0.6046,-0.5474,-0.5863,-0.6079,-0.5622,-0.6183,-0.6233,-0.6102,-0.6166,-0.6203,-0.6206,-0.6064,-0.5908,-0.5908,-0.5732,-0.5559,-0.5559,-0.5559,-0.5559,-0.5559,-0.5529,-0.5518,-0.5515,-0.5455,-0.5379,-0.5289,-0.5229,-0.5115,-0.4976,-0.4946,-0.4861,-0.4752,-0.4722,-0.473,-0.4752,-0.4719,-0.4709,-0.4714,-0.4747,-0.4733,-0.4709,-0.4709,-0.4709,-0.4703,-0.4673,-0.4665,-0.4665,-0.4665,-0.4665,-0.4665,-0.4665,-0.4665,-0.4657,-0.4624,-0.4619,-0.461,-0.458,-0.4572,-0.4564,-0.4534,-0.4504,-0.4466,-0.4403,-0.4395,-0.4384,-0.4357,-0.4352,-0.4341,-0.4311,-0.4281,-0.4248,-0.4218,-0.385,-0.3271,-0.2496,-0.2321,-0.2404,-0.2862,-0.2763,-0.2765,-0.31,-0.3147,-0.3171,-0.3171,-0.3096,-0.3132,-0.3282,-0.305,-0.3013,0.0,0.0,0.0,0.0,0.0,0.0,0.0,-0.3203,-0.3738,-0.3927,-0.3989,-0.4093,-0.4568,-0.4744,-0.4809,-0.4435,-0.5219,-0.5743,-0.5461,-0.5269,-0.519,-0.5071,-0.6075,-0.6297,-0.5541,-0.6423,-0.6663,-0.5732,-0.629,-0.6524,-0.5903,-0.5917,-0.5926,-0.6277,-0.5937,-0.5946,-0.6295,-0.5946,-0.5943,-0.5943,-0.5757,-0.5757,-0.5769,-0.5559,-0.5556,-0.5572,-0.5504,-0.5442,-0.5373,-0.5254,-0.5136,-0.5038,-0.5025,-0.4962,-0.4872,-0.4798,-0.4812,-0.4856,-0.4793,-0.4774,-0.4774,-0.4774,-0.473,-0.4681,-0.4681,-0.4681,-0.4679,-0.4668,-0.4665,-0.4665,-0.4665,-0.4665,-0.4665,-0.4665,-0.4665,-0.4665,-0.4665,-0.4665,-0.4665,-0.4665,-0.4665,-0.4649,-0.46,-0.4591,-0.4567,-0.4493,-0.4482,-0.4466,-0.442,-0.4414,-0.4392,-0.4333,-0.4324,-0.43,-0.4108,-0.3749,-0.3184,-0.2164,-0.2259,-0.2489,-0.2862,-0.2862,-0.2987,-0.3238,-0.3401,-0.3302,-0.3056,-0.2972,-0.2998,-0.3269,-0.3352,-0.332,-0.1727,-0.2584,-0.2487,-0.1979,-0.1855,-0.2214,0.0,-0.3158,-0.3344,-0.4094,-0.43,-0.4232,-0.4033,-0.4605,-0.4805,-0.4263,-0.5131,-0.5628,-0.5125,-0.5639,-0.5874,-0.5406,-0.5434,-0.5769,-0.6437,-0.6334,-0.6405,-0.6646,-0.6659,-0.6867,-0.6769,-0.6835,-0.6696,-0.6347,-0.676,-0.679,-0.6433,-0.679,-0.6971,-0.6968,-0.6551,-0.6378,-0.6427,-0.5729,-0.5542,-0.5635,-0.5523,-0.5442,-0.5373,-0.5254,-0.5164,-0.5095,-0.5041,-0.5014,-0.4986,-0.4877,-0.4875,-0.4918,-0.4856,-0.4834,-0.4834,-0.4834,-0.4793,-0.4744,-0.4744,-0.4744,-0.4733,-0.4679,-0.4665,-0.4665,-0.4665,-0.4665,-0.4665,-0.4665,-0.4665,-0.4665,-0.4665,-0.4665,-0.4665,-0.4665,-0.4665,-0.4662,-0.4654,-0.4654,-0.4616,-0.4499,-0.4482,-0.448,-0.4474,-0.4474,-0.445,-0.4395,-0.4387,-0.4226,-0.3897,-0.3444,-0.3019,-0.2624,-0.233,-0.2183,-0.2183,-0.2183,-0.2183,-0.2311,-0.283,-0.3109,-0.315,-0.386,-0.391,-0.3686,-0.3742,-0.3849,-0.2433,-0.2508,-0.2136,-0.2006,-0.1903,-0.2058,-0.238,-0.2807,-0.3114,-0.3571,-0.3627,-0.3561,-0.3667,-0.3854,-0.4194,-0.4145,-0.494,-0.5625,-0.5783,-0.6155,-0.6214,-0.5985,-0.5869,-0.6088,-0.6337,-0.624,-0.6139,-0.6378,-0.6422,-0.6476,-0.6192,-0.6222,-0.6237,-0.5881,-0.6264,-0.6279,-0.6097,-0.6279,-0.6279,-0.6279,-0.6073,-0.6073,-0.6094,-0.5662,-0.5657,-0.5695,-0.5575,-0.551,-0.5474,-0.5319,-0.524,-0.5213,-0.515,-0.5125,-0.5109,-0.4954,-0.4916,-0.4929,-0.4867,-0.4845,-0.4845,-0.4845,-0.4804,-0.4755,-0.4755,-0.473,-0.4698,-0.467,-0.4665,-0.4665,-0.4665,-0.4665,-0.4665,-0.4665,-0.4665,-0.4665,-0.4665,-0.4665,-0.4665,-0.4665,-0.4665,-0.4665,-0.4665,-0.4665,-0.4646,-0.4597,-0.4589,-0.4575,-0.454,-0.4537,-0.4512,-0.4452,-0.4447,-0.4159,-0.3585,-0.3565,-0.3418,-0.2733,-0.2855,-0.2982,-0.3117,-0.3117,-0.3117,-0.3117,-0.3388,-0.3399,-0.3281,-0.3437,-0.3456,-0.3477,-0.3383,-0.3383,-0.3058,-0.2435,-0.1958,-0.1929,-0.1949,-0.1986,-0.2023,-0.2439,-0.2741,-0.2922,-0.283,-0.2889,-0.3128,-0.318,-0.3518,-0.4171,-0.4864,-0.5578,-0.6292,-0.6194,-0.6228,-0.6068,-0.6257,-0.6175,-0.5986,-0.6246,-0.6334,-0.6422,-0.632,-0.621,-0.5739,-0.5741,-0.5741,-0.5741,-0.592,-0.5918,-0.5918,-0.6099,-0.6099,-0.6099,-0.5904,-0.5904,-0.5918,-0.5741,-0.573,-0.5711,-0.564,-0.56,-0.5572,-0.5412,-0.5343,-0.5335,-0.524,-0.5213,-0.521,-0.5063,-0.5011,-0.5,-0.4921,-0.4894,-0.4891,-0.4875,-0.4828,-0.4779,-0.4779,-0.4749,-0.4714,-0.4714,-0.4714,-0.4714,-0.4714,-0.4703,-0.4689,-0.4689,-0.4676,-0.4665,-0.4665,-0.4665,-0.4665,-0.4665,-0.4665,-0.4665,-0.4665,-0.4665,-0.4665,-0.4665,-0.4665,-0.4649,-0.4605,-0.4583,-0.4556,-0.4512,-0.4493,-0.4203,-0.3645,-0.3645,-0.3505,-0.2803,-0.2945,-0.3225,-0.3367,-0.3367,-0.3367,-0.3367,-0.3505,-0.3505,-0.3225,-0.3094,-0.3102,-0.3102,-0.3143,-0.3025,-0.3091,-0.2496,-0.1945,-0.2001,-0.1996,-0.1992,-0.2049,-0.2086,-0.2125,-0.2185,-0.2221,-0.2252,-0.2285,-0.2604,-0.3235,-0.4219,-0.4739,-0.5283,-0.6204,-0.6068,-0.5753,-0.5753,-0.5694,-0.571,-0.5848,-0.6314,-0.6792,-0.6935,-0.6495,-0.621,-0.5739,-0.5741,-0.5741,-0.5741,-0.6276,-0.6454,-0.6454,-0.6994,-0.7173,-0.7173,-0.657,-0.6393,-0.6454,-0.5918,-0.5709,-0.5657,-0.5711,-0.5703,-0.5638,-0.5518,-0.5469,-0.5452,-0.5273,-0.524,-0.5283,-0.5218,-0.5194,-0.5177,-0.5057,-0.5014,-0.5006,-0.4951,-0.4894,-0.4842,-0.4842,-0.4842,-0.4839,-0.4839,-0.4839,-0.4839,-0.4839,-0.4796,-0.4752,-0.4752,-0.4706,-0.4665,-0.4665,-0.4665,-0.4665,-0.4665,-0.4665,-0.4665,-0.4665,-0.4665,-0.4665,-0.4665,-0.4665,-0.4662,-0.4662,-0.461,-0.4572,-0.457,-0.4518,-0.4343,-0.3925,-0.3645,-0.3225,-0.2803,-0.2384,-0.2245,-0.2245,-0.2245,-0.2245,-0.2245,-0.2664,-0.2803,-0.2803,-0.3266,-0.3145,-0.2859,-0.3333,-0.3081,-0.3024,-0.2515,-0.2024,-0.2044,-0.2057,-0.2075,-0.2114,-0.2132,-0.2151,-0.2192,-0.2223,-0.2255,-0.2285,-0.2475,-0.297,-0.4527,-0.4465,-0.4549,-0.5737,-0.5789,-0.5765,-0.5633,-0.5833,-0.6329,-0.6908,-0.6503,-0.6227,-0.6413,-0.6141,-0.5856,-0.5739,-0.5741,-0.5741,-0.5741,-0.592,-0.592,-0.592,-0.6099,-0.6279,-0.6279,-0.6076,-0.5901,-0.592,-0.5741,-0.5709,-0.5654,-0.5714,-0.5706,-0.5649,-0.5608,-0.5567,-0.5521,-0.5422,-0.5371,-0.5346,-0.5286,-0.5262,-0.5245,-0.5123,-0.5082,-0.5071,-0.5011,-0.4954,-0.4905,-0.4905,-0.4877,-0.4845,-0.4845,-0.4845,-0.4845,-0.4845,-0.4831,-0.4815,-0.4815,-0.4798,-0.4785,-0.4785,-0.4752,-0.4725,-0.4725,-0.4692,-0.4665,-0.4665,-0.4665,-0.4665,-0.4665,-0.4665,-0.4665,-0.4665,-0.4646,-0.4632,-0.4632,-0.4616,-0.4459,-0.4028,-0.3743,-0.3455,-0.3311,-0.288,-0.2736,-0.3023,-0.3023,-0.288,-0.2736,-0.2736,-0.2734,-0.2446,-0.2602,-0.2607,-0.2464,-0.2642,-0.2665,-0.3022,-0.2563,-0.2099,-0.211,-0.2135,-0.2161,-0.2169,-0.217,-0.2176,-0.2196,-0.2223,-0.2255,-0.2285,-0.233,-0.2825,-0.425,-0.4028,-0.4104,-0.5294,-0.5319,-0.5125,-0.5324,-0.5811,-0.6302,-0.6755,-0.6458,-0.6164,-0.6375,-0.5955,-0.5676,-0.5739,-0.5741,-0.5741,-0.5741,-0.592,-0.5918,-0.5918,-0.5918,-0.592,-0.5741,-0.592,-0.592,-0.5741,-0.592,-0.5898,-0.5684,-0.5725,-0.5719,-0.5681,-0.566,-0.564,-0.5616,-0.5537,-0.5496,-0.5472,-0.5412,-0.5376,-0.5338,-0.5194,-0.5131,-0.5106,-0.5066,-0.5014,-0.4967,-0.4967,-0.494,-0.4907,-0.4907,-0.4907,-0.4907,-0.4907,-0.4894,-0.4877,-0.4877,-0.4861,-0.4845,-0.4845,-0.4815,-0.4788,-0.4788,-0.4755,-0.473,-0.473,-0.4711,-0.4689,-0.4668,-0.4665,-0.4665,-0.4665,-0.4665,-0.4665,-0.4665,-0.4665,-0.4665,-0.4371,-0.3791,-0.35,-0.35,-0.2917,-0.2771,-0.3063,-0.3063,-0.2917,-0.2624,-0.2624,-0.2624,-0.2333,-0.2343,-0.2349,-0.235,-0.238,-0.2401,-0.2962,-0.2507,-0.2165,-0.2195,-0.2222,-0.2236,-0.2207,-0.2199,-0.2198,-0.2198,-0.2222,-0.2252,-0.2281,-0.2311,-0.2655,-0.3519,-0.3424,-0.364,-0.4857,-0.4351,-0.4166,-0.4958,-0.5335,-0.5648,-0.5842,-0.6191,-0.6608,-0.6823,-0.6103,-0.5673,-0.5739,-0.5741,-0.5741,-0.5741,-0.6276,-0.6454,-0.6454,-0.6454,-0.6276,-0.5741,-0.6276,-0.6276,-0.5736,-0.6276,-0.6273,-0.5733,-0.5739,-0.5739,-0.573,-0.5679,-0.5687,-0.5725,-0.5605,-0.5594,-0.5635,-0.5572,-0.5518,-0.5447,-0.5275,-0.5175,-0.512,-0.5117,-0.5076,-0.503,-0.503,-0.503,-0.503,-0.5027,-0.5025,-0.5025,-0.5022,-0.4981,-0.494,-0.494,-0.4897,-0.4856,-0.4856,-0.4853,-0.485,-0.485,-0.4848,-0.4845,-0.4845,-0.4798,-0.4741,-0.4681,-0.4673,-0.467,-0.4665,-0.4665,-0.4665,-0.4665,-0.4665,-0.4665,-0.4665,-0.3937,-0.35,-0.35,-0.2771,-0.2333,-0.2333,-0.2333,-0.2333,-0.2333,-0.2333,-0.2334,-0.2335,-0.2364,-0.2379,-0.2382,-0.2412,-0.2442,-0.1853,-0.2024,-0.2196,-0.2226,-0.2222,-0.221,-0.2202,-0.2183,-0.2166,-0.2166,-0.2191,-0.2214,-0.2222,-0.2266,-0.2613,-0.3433,-0.3079,-0.3,-0.4006,-0.4256,-0.4454,-0.4702,-0.5392,-0.6088,-0.6256,-0.6019,-0.5951,-0.6394,-0.5914,-0.563,-0.5736,-0.6097,-0.6276,-0.6276,-0.6815,-0.6994,-0.6994,-0.6994,-0.6994,-0.6815,-0.6994,-0.6965,-0.6738,-0.6608,-0.6399,-0.6138,-0.5881,-0.5714,-0.5676,-0.5706,-0.57,-0.5665,-0.5589,-0.5542,-0.5512,-0.5452,-0.542,-0.5409,-0.5406,-0.5335,-0.524,-0.5194,-0.5169,-0.5155,-0.5155,-0.5155,-0.5147,-0.5101,-0.5087,-0.5079,-0.5033,-0.5011,-0.5,-0.5,-0.4986,-0.4976,-0.4976,-0.4943,-0.4913,-0.4913,-0.4877,-0.4845,-0.4845,-0.4834,-0.4818,-0.4801,-0.4798,-0.4766,-0.4676,-0.4665,-0.4665,-0.4665,-0.4665,-0.4665,-0.4665,-0.3937,-0.35,-0.35,-0.2771,-0.2333,-0.2333,-0.2333,-0.2333,-0.2333,-0.2624,-0.2638,-0.2367,-0.2672,-0.2688,-0.2413,-0.2443,-0.2462,-0.1876,-0.2059,-0.2244,-0.2262,-0.2252,-0.2236,-0.2223,-0.2196,-0.217,-0.2158,-0.2178,-0.22,-0.22,-0.2238,-0.2438,-0.2956,-0.2736,-0.2655,-0.3208,-0.3619,-0.3836,-0.4323,-0.5043,-0.5755,-0.6255,-0.5986,-0.5882,-0.6295,-0.5949,-0.5816,-0.6091,-0.6276,-0.6633,-0.6812,-0.7352,-0.7531,-0.7531,-0.7531,-0.7352,-0.7173,-0.7352,-0.731,-0.7061,-0.7102,-0.6882,-0.6435,0.0,-0.6039,-0.6007,-0.5687,-0.5681,-0.5643,-0.5583,-0.554,-0.5507,-0.5474,-0.5444,-0.5428,-0.5463,-0.5414,-0.5327,-0.5294,-0.5245,-0.5202,-0.5202,-0.5202,-0.5196,-0.5161,-0.5153,-0.5145,-0.5109,-0.5101,-0.5093,-0.5066,-0.506,-0.5055,-0.5027,-0.4997,-0.4973,-0.4973,-0.4946,-0.4916,-0.4891,-0.4886,-0.4877,-0.485,-0.4845,-0.482,-0.4752,-0.4722,-0.4695,-0.4668,-0.4665,-0.4665,-0.4665,-0.4083,-0.3654,-0.3529,-0.2941,-0.2506,-0.2372,-0.2372,-0.2372,-0.2372,-0.2522,-0.253,-0.2398,-0.2713,-0.273,-0.2444,-0.2474,-0.2496,-0.2169,-0.223,-0.229,-0.229,-0.2288,-0.2277,-0.2247,-0.2213,-0.2181,-0.2159,-0.2173,-0.2189,-0.2193,-0.2222,-0.2273,-0.2353,-0.2399,-0.2463,-0.2579,-0.2626,-0.3171,-0.393,-0.4634,-0.5176,-0.6103,-0.6283,-0.6307,-0.6366,-0.6016,-0.6039,-0.6451,-0.6633,-0.6812,-0.7352,-0.771,-0.8067,-0.8067,-0.8067,-0.771,-0.7352,-0.771,-0.7666,-0.7237,-0.7585,-0.7541,-0.6952,-0.6495,-0.6344,-0.6344,-0.5989,-0.5814,-0.5808,-0.5746,-0.5548,-0.5548,-0.554,-0.5504,-0.5463,-0.5472,-0.5436,-0.5384,-0.5384,-0.5319,-0.524,-0.524,-0.524,-0.5237,-0.5229,-0.5221,-0.5213,-0.5204,-0.5202,-0.5188,-0.5136,-0.5123,-0.5109,-0.5057,-0.5046,-0.5046,-0.5046,-0.5038,-0.5016,-0.4967,-0.4954,-0.4929,-0.4877,-0.4869,-0.4867,-0.4858,-0.4804,-0.4747,-0.4695,-0.4689,-0.4689,-0.4689,-0.4394,-0.3974,-0.3576,-0.3131,-0.2846,-0.2423,-0.2424,-0.2424,-0.2424,-0.2424,-0.2425,-0.2429,-0.2457,-0.2627,-0.2481,-0.2508,-0.2536,-0.2247,-0.2278,-0.229,-0.229,-0.2273,-0.2245,-0.2215,-0.2165,-0.2131,-0.215,-0.2139,-0.2132,-0.2158,-0.2208,-0.2259,-0.23,-0.2372,-0.2457,-0.2553,-0.3265,-0.3848,-0.4144,-0.4891,-0.5467,-0.5703,-0.6243,-0.6424,-0.6436,-0.6796,-0.6803,-0.6454,-0.717,-0.7889,-0.8429,-0.8429,-0.8429,-0.8429,-0.8429,-0.8429,-0.8429,-0.8429,-0.8381,-0.8297,-0.7941,-0.7716,-0.7472,-0.6962,0.0,-0.6792,-0.6792,-0.6448,-0.6094,-0.6025,-0.583,-0.5485,-0.5433,-0.5409,-0.5409,-0.5458,-0.5436,-0.5384,-0.5384,-0.5403,-0.5428,-0.5428,-0.5428,-0.5417,-0.5368,-0.5316,-0.5267,-0.5215,-0.5202,-0.5199,-0.5188,-0.5185,-0.5183,-0.5175,-0.5172,-0.5172,-0.5172,-0.5131,-0.5093,-0.5082,-0.5038,-0.5003,-0.4992,-0.4989,-0.4973,-0.4927,-0.4867,-0.4826,-0.4815,-0.4815,-0.4815,-0.4815,-0.4512,-0.4063,-0.3621,-0.3321,-0.2872,-0.2423,-0.2424,-0.2424,-0.2424,-0.2727,-0.2741,-0.2461,-0.2776,-0.2806,-0.2544,-0.2549,-0.2567,-0.2275,-0.2301,-0.2309,-0.2294,-0.2256,-0.2218,-0.2203,-0.2153,-0.2119,-0.2148,-0.2143,-0.2138,-0.2151,-0.2191,-0.2237,-0.2283,-0.2327,-0.2397,-0.2519,-0.2909,-0.3487,-0.3778,-0.4744,-0.5352,-0.5739,-0.6458,-0.6815,-0.6815,-0.7352,-0.7531,-0.717,-0.7889,-0.8429,-0.8607,-0.8607,-0.8607,-0.8607,-0.8607,-0.8607,-0.8607,-0.8607,-0.8558,-0.8473,-0.7941,-0.772,-0.7645,-0.7122,-0.6945,-0.6942,-0.6904,-0.6716,-0.6537,-0.6127,-0.5933,-0.5761,-0.5564,-0.5384,-0.539,-0.5417,-0.5409,-0.5384,-0.5384,-0.5403,-0.5428,-0.5428,-0.5428,-0.5422,-0.5392,-0.5363,-0.5335,-0.5305,-0.5297,-0.5289,-0.5256,-0.5226,-0.5202,-0.5202,-0.5202,-0.5202,-0.5202,-0.518,-0.5158,-0.5158,-0.5134,-0.5104,-0.5074,-0.5068,-0.5046,-0.4986,-0.4954,-0.4913,-0.4853,-0.4845,-0.4845,-0.4845,-0.4694,-0.4401,-0.3973,-0.367,-0.322,-0.2777,-0.2625,-0.247,-0.247,-0.2642,-0.2658,-0.2517,-0.269,-0.2713,-0.2582,-0.2582,-0.2597,-0.2285,-0.2311,-0.2324,-0.229,-0.224,-0.2196,-0.2184,-0.2139,-0.2239,-0.2139,-0.2144,-0.2147,-0.2154,-0.218,-0.2219,-0.2281,-0.2296,-0.235,-0.2493,-0.257,-0.2808,-0.3411,-0.4224,-0.4843,-0.5383,-0.6458,-0.6994,-0.6994,-0.771,-0.8067,-0.7885,-0.8425,-0.8607,-0.8429,-0.8607,-0.8607,-0.8607,-0.8607,-0.8607,-0.8607,-0.8607,-0.857,-0.8501,-0.8125,-0.7903,-0.7668,-0.7302,-0.6949,-0.6942,-0.6884,-0.6857,-0.685,-0.6437,-0.6243,-0.6071,-0.5723,-0.5552,-0.5384,-0.5384,-0.5384,-0.5384,-0.5384,-0.5392,-0.5403,-0.5403,-0.5403,-0.5403,-0.5403,-0.5395,-0.5384,-0.5384,-0.5384,-0.5373,-0.5324,-0.5278,-0.5243,-0.5243,-0.5243,-0.5243,-0.5243,-0.5232,-0.5221,-0.5221,-0.521,-0.5185,-0.5139,-0.5131,-0.5115,-0.5066,-0.506,-0.5025,-0.4932,-0.4899,-0.4883,-0.4883,-0.4883,-0.4749,-0.4333,-0.3869,-0.3576,-0.3139,-0.2677,-0.2523,-0.2523,-0.2553,-0.2568,-0.2568,-0.259,-0.2605,-0.2612,-0.2612,-0.2628,-0.229,-0.2311,-0.2319,-0.2263,-0.2225,-0.2185,-0.2131,-0.2091,-0.2076,-0.2108,-0.2113,-0.2121,-0.215,-0.218,-0.2219,-0.2281,-0.2312,-0.2372,-0.2497,-0.2589,-0.2833,-0.3413,-0.3696,-0.3947,-0.4307,-0.5739,-0.6633,-0.6633,-0.771,-0.8429,-0.7885,-0.8425,-0.8429,-0.8067,-0.8429,-0.8607,-0.8607,-0.8607,-0.8607,-0.8607,-0.8607,-0.8603,-0.8591,-0.8509,-0.8113,-0.7746,-0.7675,-0.7295,0.0,-0.7288,-0.7284,-0.6928,-0.7199,-0.6826,-0.6139,-0.6074,-0.5717,-0.5384,-0.5384,-0.5384,-0.5384,-0.5384,-0.5422,-0.5466,-0.5466,-0.5466,-0.5466,-0.5466,-0.5428,-0.5384,-0.5384,-0.5384,-0.5384,-0.5376,-0.5371,-0.5368,-0.5368,-0.5368,-0.5368,-0.5368,-0.5322,-0.5286,-0.5286,-0.524,-0.5202,-0.5194,-0.5194,-0.5191,-0.5185,-0.5185,-0.5183,-0.5172,-0.5071,-0.5006,-0.5006,-0.5006,-0.4852,-0.439,-0.4075,-0.3607,-0.3139,-0.2698,-0.2556,-0.2556,-0.2583,-0.2598,-0.2598,-0.26,-0.2616,-0.2643,-0.2643,-0.266,-0.2286,-0.1444,-0.0869,-0.1977,-0.2221,-0.218,-0.2123,-0.2099,-0.2094,-0.2106,-0.2124,-0.214,-0.2153,-0.218,-0.2219,-0.2281,-0.23,-0.2349,-0.247,-0.2533,-0.2602,-0.3036,-0.3641,-0.4069,-0.4303,-0.5383,-0.6097,-0.6097,-0.7173,-0.7531,-0.717,-0.8067,-0.8429,-0.8246,-0.8429,-0.8607,-0.8607,-0.8607,-0.8607,-0.8607,-0.8607,-0.8607,-0.8607,-0.8211,-0.8014,-0.7832,-0.775,-0.7538,0.0,-0.7838,-0.7988,-0.7638,-0.7259,-0.6904,-0.655,-0.5969,-0.5608,-0.5433,-0.5398,-0.5384,-0.5384,-0.5384,-0.5401,-0.542,-0.542,-0.542,-0.542,-0.542,-0.5403,-0.5384,-0.5384,-0.5384,-0.5384,-0.5384,-0.5384,-0.5384,-0.5384,-0.5384,-0.5384,-0.5384,-0.5365,-0.5349,-0.5349,-0.5327,-0.53,-0.5262,-0.5256,-0.5243,-0.5207,-0.5202,-0.5202,-0.5202,-0.5158,-0.5131,-0.5131,-0.5131,-0.5131,-0.4971,-0.449,-0.4008,-0.3529,-0.3224,-0.2908,-0.2585,-0.2613,-0.2628,-0.2628,-0.2647,-0.2662,-0.2675,-0.3009,-0.3017,-0.1559,-0.0574,0.0288,-0.0987,-0.1386,-0.1496,-0.1978,-0.2102,-0.2106,-0.2098,-0.2127,-0.2155,-0.2155,-0.218,-0.2219,-0.2281,-0.2305,-0.2352,-0.2455,-0.251,-0.2571,-0.2656,-0.3237,-0.3834,-0.3906,-0.4648,-0.5383,-0.5741,-0.6279,-0.6637,-0.6276,-0.7531,-0.825,-0.8429,-0.8607,-0.8607,-0.8607,-0.8607,-0.8607,-0.8607,-0.8607,-0.8607,-0.8607,-0.8246,-0.8067,-0.7885,-0.7825,-0.7799,0.0,-0.8089,-0.8237,-0.8062,-0.7512,-0.7327,-0.7143,-0.6209,-0.5845,-0.5667,-0.5452,-0.5425,-0.5412,-0.5412,-0.5398,-0.5384,-0.5384,-0.5384,-0.5384,-0.5384,-0.5384,-0.5384,-0.5384,-0.5384,-0.5384,-0.5384,-0.5384,-0.5384,-0.5384,-0.5384,-0.5384,-0.5384,-0.5384,-0.5384,-0.5384,-0.5384,-0.5371,-0.5327,-0.5319,-0.5305,-0.5262,-0.5256,-0.5256,-0.5256,-0.5256,-0.5243,-0.5204,-0.5202,-0.5202,-0.5202,-0.4877,-0.439,-0.4065,-0.3591,-0.3106,-0.2778,-0.2645,-0.266,-0.2661,-0.2682,-0.2692,-0.2861,-0.3199,-0.3533,0.0,0.0283,0.0569,0.0703,0.0692,0.0136,-0.1693,-0.2087,-0.2101,-0.2071,-0.2113,-0.2155,-0.2155,-0.218,-0.2219,-0.2281,-0.2339,-0.2399,-0.2461,-0.2545,-0.2601,-0.2602,-0.2683,-0.275,-0.2781,-0.3725,-0.4666,-0.5562,-0.5741,-0.5741,-0.5741,-0.6637,-0.7352,-0.7885,-0.8429,-0.8607,-0.8607,-0.8607,-0.8607,-0.8607,-0.8607,-0.8607,-0.8607,-0.8607,-0.8425,-0.7885,-0.7885,-0.7706,0.0,-0.7706,-0.7885,-0.7877,-0.8329,-0.8117,-0.775,-0.7146,-0.6599,-0.6255,-0.5732,-0.5521,-0.5474,-0.5474,-0.5433,-0.5384,-0.5384,-0.5384,-0.5384,-0.5384,-0.5384,-0.5384,-0.5384,-0.5384,-0.5384,-0.5384,-0.5384,-0.5384,-0.5384,-0.5384,-0.5384,-0.5384,-0.5384,-0.5384,-0.5384,-0.5384,-0.5384,-0.5384,-0.5384,-0.5384,-0.5382,-0.5382,-0.5382,-0.5382,-0.5382,-0.5333,-0.5213,-0.5202,-0.5202,-0.5202,-0.4877,-0.455,-0.455,-0.3781,-0.3309,-0.3309,-0.2843,-0.2692,-0.2692,-0.2692,-0.2861,-0.3367,-0.3367,-0.3533,-0.1226,-0.0138,0.083,-0.0821,0.0272,0.1207,-0.1429,-0.2104,-0.2125,-0.2075,-0.2113,-0.2155,-0.2155,-0.2162,-0.2196,-0.2278,-0.2341,-0.2399,-0.2461,-0.1579,-0.1297,-0.249,-0.2762,-0.2834,-0.2844,-0.3221,-0.3412,-0.3771,-0.4307,-0.4666,-0.4666,-0.6279,-0.7352,-0.7352,-0.825,-0.8607,-0.8607,-0.8607,-0.8607,-0.8607,-0.8607,-0.8429,-0.8067,-0.8067,-0.7889,-0.7352,-0.771,-0.7885,-0.771,-0.8246,-0.8429,-0.8425,-0.8215,-0.8025,-0.7836,-0.6878,-0.6501,-0.632,-0.5749,-0.5548,-0.5526,-0.5488,-0.5463,-0.5439,-0.5398,-0.5384,-0.5384,-0.5384,-0.5384,-0.5384,-0.5384,-0.5384,-0.5384,-0.5384,-0.5384,-0.5384,-0.5384,-0.5384,-0.5384,-0.5384,-0.5384,-0.5384,-0.5384,-0.5384,-0.5384,-0.5384,-0.5384,-0.5384,-0.5384,-0.5384,-0.5384,-0.5384,-0.5384,-0.5368,-0.533,-0.5327,-0.5327,-0.5327,-0.5161,-0.4992,-0.466,-0.4343,-0.4182,-0.3848,-0.3694,-0.3532,-0.3532,-0.3365,-0.3199,-0.3367,-0.3367,-0.3533,-0.1597,-0.0404,0.095,-0.0404,0.0538,0.1067,-0.1428,-0.2102,-0.2124,-0.2074,-0.2113,-0.2155,-0.2155,-0.2163,-0.2193,-0.2263,-0.2333,-0.2242,-0.1668,-0.1247,-0.1447,-0.2497,-0.2071,-0.2123,-0.2855,-0.2321,-0.2145,-0.2872,-0.3412,-0.3771,-0.3771,-0.5562,-0.6637,-0.6637,-0.7892,-0.8607,-0.8607,-0.8607,-0.8429,-0.8246,-0.8246,-0.8067,-0.771,-0.771,-0.7531,-0.7173,-0.771,-0.7885,0.0,-0.8429,-0.8607,-0.8607,-0.8246,-0.8246,-0.806,-0.73,-0.6928,-0.6567,-0.6168,-0.5788,-0.5583,-0.5526,-0.5477,-0.5433,-0.5395,-0.5384,-0.5384,-0.5384,-0.5384,-0.5384,-0.5384,-0.5384,-0.5384,-0.5384,-0.5384,-0.5384,-0.5384,-0.5384,-0.5384,-0.5384,-0.5384,-0.5384,-0.5384,-0.5384,-0.5384,-0.5384,-0.5384,-0.5384,-0.5384,-0.5384,-0.5384,-0.5384,-0.5384,-0.5384,-0.5384,-0.5384,-0.5384,-0.5384,-0.5384,-0.5216,-0.5046,-0.4878,-0.4542,-0.4204,-0.3868,-0.3701,-0.3701,-0.3533,-0.3367,-0.3367,-0.338,-0.3557,0.0,-0.0794,0.0668,0.1204,0.0936,0.0133,-0.1556,-0.2087,0.0,-0.2074,-0.2114,-0.2157,-0.2161,-0.2181,-0.221,-0.2248,-0.2324,-0.1783,-0.0297,-0.1231,-0.2234,-0.2472,-0.1014,-0.0691,-0.2467,-0.1059,-0.0709,-0.2327,-0.2509,-0.251,-0.269,-0.448,-0.5378,-0.5562,-0.7531,-0.8607,-0.8607,-0.8607,-0.8429,-0.7885,-0.7885,-0.771,-0.7173,-0.7173,-0.7173,-0.7173,-0.7531,-0.7885,-0.7885,-0.825,-0.8607,-0.8607,-0.8607,-0.8607,-0.8607,-0.8067,-0.7531,-0.7173,-0.6633,-0.6059,-0.5646,-0.5581,-0.548,-0.5384,-0.5384,-0.5384,-0.5384,-0.5384,-0.5384,-0.5384,-0.5384,-0.5384,-0.5384,-0.5384,-0.5384,-0.5384,-0.5384,-0.5384,-0.5384,-0.5384,-0.5384,-0.5384,-0.5384,-0.5384,-0.5384,-0.5384,-0.5384,-0.5384,-0.5384,-0.5384,-0.5384,-0.5384,-0.5384,-0.5384,-0.5384,-0.5384,-0.5384,-0.5384,-0.5384,-0.5384,-0.5384,-0.5046,-0.471,-0.471,-0.387,-0.3535,-0.3365,-0.3369,-0.337,-0.337,-0.3409,-0.3426,-0.1501,0.0,-0.128,-0.1153,-0.1281,-0.141,0.0,-0.2087,-0.2108,-0.2101,-0.2128,-0.2169,-0.2215,-0.2192,-0.2206,-0.2327,-0.2364,-0.1788,-0.0301,0.079,0.0819,-0.0495,-0.0345,-0.0177,-0.0698,-0.0351,0.0352,0.1225,0.1224,0.0702,-0.0709,-0.1948,-0.3199,-0.4664,-0.6458,-0.7892,-0.8607,-0.8607,-0.8429,-0.7885,-0.7885,-0.7527,-0.6633,-0.6633,-0.6454,-0.6099,-0.6633,-0.6812,-0.6812,-0.7352,-0.771,-0.8067,-0.8067,-0.8246,-0.8429,-0.771,-0.7352,-0.6994,-0.6279,-0.573,-0.57,-0.5594,-0.548,-0.5384,-0.5384,-0.5384,-0.5384,-0.5384,-0.5384,-0.5384,-0.5384,-0.5384,-0.5384,-0.5384,-0.5384,-0.5384,-0.5384,-0.5384,-0.5384,-0.5384,-0.5384,-0.5384,-0.5384,-0.5384,-0.5384,-0.5384,-0.5384,-0.5384,-0.5384,-0.5384,-0.5384,-0.5384,-0.5384,-0.5384,-0.5384,-0.5384,-0.5384,-0.5384,-0.5384,-0.5384,-0.5384,-0.5216,-0.5216,-0.5216,-0.471,-0.4206,-0.3868,-0.3564,-0.3409,-0.3411,-0.3104,-0.3119,-0.1605,-0.2007,-0.2039,-0.2039,-0.2039,-0.2048,-0.2078,-0.2087,-0.2093,-0.2106,-0.2133,-0.2169,-0.2217,-0.1518,-0.1393,-0.2193,-0.1183,0.015,0.1081,0.1948,0.218,0.1342,0.1216,0.1238,0.1217,0.191,0.2431,0.2603,0.2602,0.2088,0.1225,-0.0527,-0.2122,-0.3026,-0.5725,-0.7531,-0.7892,-0.8429,-0.8429,-0.7885,-0.7885,-0.7527,-0.6812,-0.6812,-0.6454,-0.6097,-0.6637,-0.6633,-0.6454,-0.6994,-0.7531,-0.7885,-0.7885,-0.8067,-0.8246,-0.771,-0.7173,-0.6815,-0.6276,-0.5881,-0.5646,-0.5581,-0.548,-0.539,-0.5417,-0.5425,-0.542,-0.5392,-0.5384,-0.5384,-0.5384,-0.5384,-0.5384,-0.5384,-0.5384,-0.5384,-0.5384,-0.5384,-0.5384,-0.5384,-0.5384,-0.5384,-0.5384,-0.5384,-0.5384,-0.5384,-0.5384,-0.5384,-0.5384,-0.5384,-0.5384,-0.5384,-0.5384,-0.5384,-0.5384,-0.5384,-0.5384,-0.5384,-0.5384,-0.5384,-0.5384,-0.5384,-0.5216,-0.5046,-0.4878,-0.4385,-0.373,-0.3583,-0.326,-0.3104,-0.3138,-0.3328,-0.1738,-0.1899,-0.1804,-0.2053,-0.2057,-0.2071,-0.1833,-0.1825,-0.1819,-0.1714,-0.1869,-0.1896,-0.193,-0.0835,-0.0425,-0.1756,0.0594,0.2585,0.2544,0.2981,0.3058,0.2894,0.295,0.2975,0.3112,0.4458,0.4793,0.345,0.3452,0.3283,0.2942,0.0524,-0.1056,-0.1411,-0.4991,-0.6994,-0.6994,-0.8071,-0.8429,-0.7885,-0.7885,-0.771,-0.7173,-0.7173,-0.6988,-0.6618,0.0,0.0,-0.6424,-0.6961,-0.7317,-0.767,-0.767,-0.7677,-0.7866,-0.7688,-0.716,-0.6633,-0.6454,-0.6018,-0.5572,-0.5572,-0.5499,-0.542,-0.5472,-0.5488,-0.5477,-0.5425,-0.5412,-0.5409,-0.5401,-0.5398,-0.5395,-0.5387,-0.5384,-0.5384,-0.5384,-0.5392,-0.5395,-0.5387,-0.5392,-0.5395,-0.5387,-0.5384,-0.5384,-0.5384,-0.5384,-0.5384,-0.5384,-0.5384,-0.5384,-0.5384,-0.5384,-0.5384,-0.5384,-0.5384,-0.5384,-0.5384,-0.5384,-0.5384,-0.5384,-0.5384,-0.5219,-0.4722,-0.4722,-0.4409,-0.3603,-0.3608,-0.3455,-0.3139,-0.3348,-0.3541,-0.2037,-0.1156,-0.0512,-0.1751,-0.2027,-0.1806,-0.0517,-0.026,-0.0263,-0.0267,-0.0268,-0.0272,-0.0282,-0.1129,-0.1573,-0.0605,0.1234,0.2511,0.2743,0.5259,0.5998,0.3194,0.4119,0.5004,0.4902,0.5097,0.5784,0.7091,0.7256,0.6609,0.4959,0.2939,0.1223,-0.0353,-0.3923,-0.592,-0.592,-0.771,-0.8429,-0.7885,-0.7885,-0.771,-0.7173,-0.7173,-0.7139,-0.6901,0.0,-0.6689,-0.6286,-0.6286,-0.6463,-0.6463,-0.6463,-0.702,-0.778,-0.6901,-0.6764,-0.6994,-0.6099,-0.5695,-0.5635,-0.5635,-0.5589,-0.5534,-0.5545,-0.5548,-0.5545,-0.5534,-0.5531,-0.5521,-0.5474,-0.5461,-0.5447,-0.5398,-0.5384,-0.5384,-0.5384,-0.5425,-0.5447,-0.5395,-0.5425,-0.5444,-0.5392,-0.5384,-0.5384,-0.5384,-0.5384,-0.5384,-0.5384,-0.5384,-0.5384,-0.5384,-0.5384,-0.5384,-0.5384,-0.5384,-0.5384,-0.5384,-0.5384,-0.5384,-0.5384,-0.5384,-0.524,-0.4777,-0.4777,-0.4803,-0.4684,-0.4376,-0.4224,-0.4584,-0.3919,-0.3759,-0.2009,-0.1013,-0.0127,-0.0752,-0.0378,0.0255,0.09,0.1016,0.0763,0.0,-0.0134,-0.0135,0.0143,0.0287,0.1166,0.3542,0.3967,0.439,0.549,0.6268,0.6334,0.5813,0.5518,0.5848,0.6731,0.6748,0.7091,0.8064,0.806,0.7741,0.6933,0.5127,0.3283,0.1398,-0.1766,-0.4277,-0.5741,-0.7173,-0.8071,-0.8246,-0.8246,-0.8222,-0.7825,-0.7825,-0.778,-0.7352,0.0,-0.6983,-0.6602,-0.6255,-0.6429,-0.6602,-0.6429,-0.6822,-0.7417,-0.6751,-0.643,-0.6279,-0.592,-0.57,-0.5651,-0.5651,-0.5608,-0.5567,-0.56,-0.5608,-0.5616,-0.5649,-0.561,-0.5553,-0.5526,-0.5499,-0.5469,-0.5442,-0.5433,-0.5433,-0.5433,-0.548,-0.5512,-0.5485,-0.5501,-0.5512,-0.5485,-0.548,-0.548,-0.548,-0.548,-0.548,-0.548,-0.548,-0.548,-0.548,-0.5452,-0.5433,-0.5433,-0.5433,-0.542,-0.5387,-0.5414,-0.5433,-0.5433,-0.5463,-0.5491,-0.5173,-0.5176,-0.5204,-0.4912,-0.4758,-0.4608,-0.4633,-0.4118,-0.4128,-0.2003,-0.1006,0.0126,0.0509,0.1273,0.2044,0.2464,0.2414,0.2022,0.1072,0.0941,0.0953,0.1301,0.2363,0.3918,0.6573,0.6162,0.6007,0.7977,0.6918,0.6631,0.8137,0.6901,0.6498,0.7905,0.806,0.806,0.806,0.806,0.806,0.806,0.6277,0.446,0.2602,-0.0175,-0.2837,-0.5741,-0.6637,-0.7713,-0.8607,-0.8607,-0.8558,-0.8473,-0.8473,-0.8237,-0.7788,-0.7788,-0.7432,-0.7066,-0.6553,-0.6553,-0.6894,-0.6553,-0.6608,-0.7044,-0.6958,-0.6454,-0.592,-0.592,-0.5889,-0.567,-0.567,-0.564,-0.561,-0.5657,-0.567,-0.5681,-0.5728,-0.5673,-0.56,-0.5583,-0.5548,-0.5512,-0.5499,-0.5496,-0.5496,-0.5496,-0.554,-0.5575,-0.5561,-0.557,-0.5575,-0.5561,-0.5559,-0.5559,-0.5559,-0.5559,-0.5559,-0.5559,-0.5559,-0.5559,-0.5559,-0.5521,-0.5496,-0.5496,-0.5496,-0.5474,-0.5428,-0.5469,-0.5496,-0.5496,-0.5537,-0.5567,-0.5581,-0.5581,-0.5435,-0.5142,-0.5142,-0.4986,-0.4666,-0.4487,-0.4487,-0.2078,-0.1029,0.0381,0.1564,0.1968,0.2369,0.4006,0.4319,0.4232,0.4308,0.4319,0.4374,0.4559,0.477,0.4918,0.5254,0.5412,0.6038,0.7901,0.7985,0.8045,0.8207,0.7965,0.7909,0.8064,0.806,0.806,0.806,0.806,0.806,0.806,0.6277,0.446,0.2602,-0.0175,-0.2837,-0.5741,-0.6637,-0.7713,-0.8607,-0.8607,-0.8558,-0.8473,-0.8473,-0.8375,-0.8207,-0.8207,-0.7823,-0.7413,-0.7245,-0.7077,-0.6744,-0.6744,-0.6829,-0.6972,-0.7651,-0.717,-0.6454,-0.6454,-0.6094,-0.5736,-0.5736,-0.573,-0.5728,-0.5733,-0.5736,-0.5736,-0.5739,-0.5736,-0.5714,-0.566,-0.564,-0.5624,-0.5567,-0.5553,-0.5553,-0.5553,-0.56,-0.5627,-0.557,-0.5605,-0.5627,-0.557,-0.5559,-0.5559,-0.5559,-0.5559,-0.5559,-0.5559,-0.5559,-0.5559,-0.5559,-0.5556,-0.5553,-0.5553,-0.5553,-0.5551,-0.5548,-0.5551,-0.5553,-0.5553,-0.5556,-0.5586,-0.5643,-0.5643,-0.5673,-0.5554,-0.5554,-0.5557,-0.5562,-0.5201,-0.4664,-0.1019,0.0254,0.1646,0.297,0.4079,0.4929,0.5443,0.5519,0.528,0.4572,0.4447,0.4491,0.4855,0.5797,0.6602,0.6752,0.6931,0.7443,0.8293,0.8297,0.8285,0.8285,0.8154,0.806,0.806,0.806,0.806,0.806,0.806,0.806,0.806,0.7417,0.6111,0.4291,0.2082,-0.0351,-0.3193,-0.5182,-0.6815,-0.7713,-0.8195,-0.8477,-0.8383,-0.8326,-0.8232,-0.8113,-0.8113,-0.8093,-0.7897,-0.7562,-0.7227,-0.707,-0.734,-0.7073,-0.6966,-0.7648,-0.7349,-0.6454,-0.6454,-0.6097,-0.5741,-0.5741,-0.5741,-0.5741,-0.5741,-0.5741,-0.5741,-0.5741,-0.5741,-0.5736,-0.5711,-0.5679,-0.5646,-0.5621,-0.5616,-0.5616,-0.5616,-0.5662,-0.57,-0.5676,-0.5689,-0.5698,-0.5676,-0.5673,-0.5673,-0.5673,-0.5673,-0.5673,-0.5673,-0.5673,-0.5673,-0.5673,-0.5638,-0.5616,-0.5616,-0.5616,-0.5632,-0.567,-0.5638,-0.5616,-0.5616,-0.5651,-0.5684,-0.5706,-0.5706,-0.5717,-0.5741,-0.5741,-0.5741,-0.5741,-0.5201,-0.4843,0.0253,0.1396,0.2415,0.3853,0.4985,0.5874,0.6269,0.6374,0.6176,0.5363,0.5273,0.5323,0.5493,0.655,0.7505,0.7721,0.7929,0.8138,0.8354,0.8354,0.8326,0.8293,0.8154,0.806,0.806,0.806,0.806,0.806,0.8089,0.8093,0.8064,0.8089,0.7282,0.529,0.4126,0.2081,-0.0701,-0.3546,-0.5342,-0.6384,-0.775,-0.8395,-0.833,-0.824,-0.8146,-0.806,-0.806,-0.806,-0.806,-0.7729,-0.7562,-0.7577,-0.7719,-0.7604,-0.7446,-0.7964,-0.767,-0.6958,-0.6806,-0.6454,-0.5918,-0.5741,-0.5741,-0.5741,-0.5741,-0.5741,-0.5741,-0.5741,-0.5741,-0.5741,-0.5741,-0.5711,-0.5679,-0.5679,-0.5679,-0.5679,-0.5679,-0.5711,-0.5741,-0.5741,-0.5741,-0.5741,-0.5741,-0.5741,-0.5741,-0.5741,-0.5741,-0.5741,-0.5741,-0.5741,-0.5741,-0.5741,-0.5703,-0.5679,-0.5679,-0.5679,-0.5695,-0.5739,-0.5703,-0.5679,-0.5679,-0.5719,-0.5741,-0.5741,-0.5741,-0.5741,-0.5741,-0.5741,-0.5741,-0.5741,-0.5398,-0.5226,0.1795,0.2189,0.2575,0.386,0.4296,0.4772,0.6277,0.6798,0.7015,0.7109,0.7268,0.7362,0.728,0.7407,0.7558,0.7648,0.7889,0.8093,0.8187,0.8277,0.8301,0.8211,0.8117,0.8064,0.806,0.806,0.806,0.806,0.8146,0.8158,0.8068,0.8146,0.734,0.5461,0.529,0.3942,0.1212,-0.1576,-0.3328,-0.4329,-0.6938,-0.8334,-0.833,-0.824,-0.8146,-0.806,-0.806,-0.806,-0.806,-0.806,-0.806,-0.8072,-0.8162,-0.8199,-0.8219,-0.8403,-0.8117,-0.7772,-0.7324,-0.6812,-0.6454,-0.5918,-0.5741,-0.5741,-0.5741,-0.5741,-0.5741,-0.5741,-0.5741,-0.5741,-0.5741,-0.5741,-0.5741,-0.5741,-0.5741,-0.5741,-0.5741,-0.5741,-0.5741,-0.5741,-0.5741,-0.5741,-0.5741,-0.5741,-0.5741,-0.5741,-0.5741,-0.5741,-0.5741,-0.5741,-0.5741,-0.5741,-0.5741,-0.5741,-0.5741,-0.5741,-0.5741,-0.5741,-0.5741,-0.5741,-0.5741,-0.5741,-0.5741,-0.5741,-0.5741,-0.5741,-0.5741,-0.5741,-0.5741,-0.5744,-0.5804,-0.5467,0.2785,0.3394,0.3761,0.5252,0.5773,0.6057,0.6505,0.6794,0.6958,0.7178,0.7313,0.7382,0.7358,0.7501,0.7652,0.7742,0.7929,0.8117,0.8272,0.8317,0.8326,0.8297,0.8215,0.8134,0.8068,0.806,0.806,0.806,0.8089,0.8089,0.8064,0.8089,0.7933,0.7256,0.5951,0.4954,0.4113,0.1396,-0.1051,-0.3293,-0.4677,-0.6388,-0.8236,-0.8142,-0.8089,-0.806,-0.806,-0.806,-0.806,-0.806,-0.806,-0.8072,-0.8162,-0.8199,-0.8211,-0.833,-0.8027,-0.769,-0.7596,-0.7268,-0.6748,-0.6439,-0.6246,-0.6219,-0.5728,-0.5711,-0.5687,-0.5728,-0.5741,-0.5741,-0.5741,-0.5741,-0.5741,-0.5741,-0.5741,-0.5741,-0.5741,-0.5741,-0.5741,-0.5741,-0.5741,-0.5741,-0.5741,-0.5741,-0.5741,-0.5741,-0.5741,-0.5741,-0.5741,-0.5741,-0.5741,-0.5741,-0.5741,-0.5741,-0.5741,-0.5741,-0.5741,-0.5741,-0.5741,-0.5741,-0.5741,-0.5741,-0.5741,-0.5741,-0.5741,-0.5741,-0.5741,-0.5741,-0.5763,-0.5804,-0.5823,-0.5673,0.4192,0.4836,0.5117,0.5956,0.6374,0.6574,0.6827,0.6954,0.7092,0.7366,0.7431,0.7456,0.7493,0.7586,0.7693,0.7782,0.7946,0.8113,0.826,0.8281,0.8281,0.8281,0.8199,0.8121,0.8068,0.806,0.806,0.806,0.8097,0.8101,0.8064,0.8097,0.8101,0.8064,0.693,0.6443,0.6443,0.3619,0.1383,-0.0342,-0.2232,-0.3936,-0.5764,-0.7409,-0.806,-0.806,-0.806,-0.806,-0.806,-0.806,-0.806,-0.8068,-0.8121,-0.8142,-0.8154,-0.8248,-0.8109,-0.778,-0.7686,-0.7541,-0.7199,-0.6715,-0.6699,-0.6501,-0.6186,-0.5995,-0.5981,-0.5867,-0.5884,-0.5711,-0.5736,-0.5741,-0.5741,-0.5741,-0.5741,-0.5741,-0.5741,-0.5741,-0.5741,-0.5741,-0.5741,-0.5741,-0.5741,-0.5741,-0.5741,-0.5741,-0.5741,-0.5741,-0.5741,-0.5741,-0.5741,-0.5741,-0.5741,-0.5741,-0.5741,-0.5741,-0.5741,-0.5741,-0.5741,-0.5741,-0.5741,-0.5741,-0.5741,-0.5741,-0.5741,-0.5741,-0.5741,-0.5766,-0.5796,-0.5834,-0.588,-0.5924,0.5778,0.628,0.6382,0.6341,0.6472,0.6705,0.706,0.7203,0.7337,0.7607,0.7603,0.7574,0.766,0.7689,0.7725,0.7799,0.7954,0.8093,0.8187,0.8199,0.8199,0.8199,0.8125,0.8072,0.8064,0.806,0.806,0.806,0.8138,0.815,0.8064,0.8142,0.8146,0.8064,0.806,0.806,0.806,0.5594,0.4066,0.3353,0.0339,-0.1356,-0.2013,-0.6041,-0.7893,-0.806,-0.806,-0.806,-0.806,-0.806,-0.806,-0.806,-0.806,-0.806,-0.8072,-0.8154,-0.8187,-0.8199,-0.7776,-0.7634,-0.7634,-0.7118,-0.6942,-0.6938,-0.6945,-0.6596,-0.6261,-0.6338,-0.6004,-0.5665,-0.5725,-0.5741,-0.5741,-0.5741,-0.5741,-0.5741,-0.5741,-0.5741,-0.5741,-0.5741,-0.5741,-0.5741,-0.5741,-0.5741,-0.5741,-0.5741,-0.5741,-0.5741,-0.5741,-0.5741,-0.5741,-0.5741,-0.5741,-0.5741,-0.5741,-0.5741,-0.5741,-0.5741,-0.5741,-0.5741,-0.5741,-0.5741,-0.5741,-0.5741,-0.5741,-0.5744,-0.5749,-0.5804,-0.5837,-0.585,-0.5962,-0.6016,0.5663,0.6006,0.6006,0.6341,0.6611,0.6872,0.7166,0.7248,0.7337,0.7607,0.7705,0.7746,0.7766,0.7885,0.7962,0.7913,0.7995,0.8093,0.8187,0.8199,0.8199,0.8199,0.8179,0.8142,0.8068,0.806,0.806,0.806,0.8081,0.8085,0.8064,0.8081,0.8081,0.8064,0.806,0.806,0.806,0.7469,0.6105,0.3854,0.2881,0.1016,-0.1509,-0.4528,-0.6714,-0.806,-0.806,-0.806,-0.806,-0.806,-0.806,-0.806,-0.806,-0.806,-0.8064,-0.8085,-0.8093,-0.8105,-0.8025,-0.8057,-0.8069,-0.7623,-0.7428,-0.7388,-0.6928,-0.6563,-0.62,-0.6323,-0.6004,-0.5665,-0.5725,-0.5741,-0.5741,-0.5741,-0.5741,-0.5741,-0.5741,-0.5741,-0.5741,-0.5741,-0.5741,-0.5741,-0.5741,-0.5741,-0.5741,-0.5741,-0.5741,-0.5741,-0.5741,-0.5741,-0.5741,-0.5741,-0.5741,-0.5741,-0.5741,-0.5741,-0.5741,-0.5741,-0.5741,-0.5741,-0.5741,-0.5741,-0.5741,-0.5741,-0.5741,-0.5766,-0.5812,-0.5826,-0.588,-0.5976,-0.6003,-0.6038,0.5776,0.6047,0.6125,0.6492,0.6754,0.6978,0.7211,0.7297,0.7386,0.7615,0.7701,0.7758,0.7848,0.7938,0.7999,0.7995,0.8032,0.8081,0.8125,0.8134,0.8134,0.8134,0.8134,0.8113,0.8064,0.806,0.806,0.806,0.806,0.806,0.806,0.806,0.806,0.806,0.806,0.806,0.806,0.8109,0.726,0.5703,0.5232,0.354,0.0503,-0.3521,-0.6379,-0.806,-0.806,-0.806,-0.806,-0.806,-0.806,-0.806,-0.806,-0.806,-0.806,-0.806,-0.806,-0.8068,-0.8117,-0.8134,-0.8142,-0.7851,-0.7835,-0.7804,-0.7507,-0.7152,-0.6643,-0.6618,-0.6307,-0.5981,-0.5717,-0.5741,-0.5741,-0.5741,-0.5741,-0.5741,-0.5741,-0.5741,-0.5741,-0.5741,-0.5741,-0.5741,-0.5741,-0.5741,-0.5741,-0.5741,-0.5741,-0.5741,-0.5741,-0.5741,-0.5741,-0.5741,-0.5741,-0.5741,-0.5741,-0.5741,-0.5741,-0.5741,-0.5741,-0.5741,-0.5741,-0.5741,-0.5741,-0.5741,-0.5769,-0.5801,-0.5831,-0.5891,-0.5951,-0.6014,-0.6041,-0.6071,0.6039,0.6206,0.6423,0.6664,0.686,0.7039,0.7219,0.7317,0.7419,0.7603,0.7652,0.7713,0.788,0.7913,0.7938,0.8027,0.804,0.8044,0.806,0.806,0.806,0.806,0.806,0.806,0.806,0.806,0.806,0.806,0.806,0.806,0.806,0.806,0.806,0.806,0.806,0.806,0.806,0.806,0.7897,0.7562,0.6888,0.5371,0.2682,-0.1844,-0.52,-0.7387,-0.7554,-0.7893,-0.806,-0.806,-0.806,-0.806,-0.806,-0.806,-0.806,-0.806,-0.806,-0.806,-0.806,-0.806,-0.806,-0.806,-0.806,-0.806,-0.806,-0.7729,-0.7428,-0.7077,-0.6602,-0.6112,-0.5887,-0.592,-0.5741,-0.5741,-0.5741,-0.5741,-0.5741,-0.5741,-0.5741,-0.5741,-0.5741,-0.5741,-0.5741,-0.5741,-0.5741,-0.5741,-0.5741,-0.5741,-0.5741,-0.5741,-0.5741,-0.5741,-0.5741,-0.5741,-0.5741,-0.5741,-0.5741,-0.5741,-0.5741,-0.5747,-0.5755,-0.5755,-0.5763,-0.5771,-0.5812,-0.5842,-0.5864,-0.5965,-0.6019,-0.603,-0.6076,-0.6098,0.599,0.63,0.6582,0.6696,0.686,0.7039,0.7219,0.7272,0.7329,0.7509,0.7607,0.7693,0.7799,0.7815,0.7848,0.7938,0.795,0.7978,0.8052,0.806,0.806,0.806,0.806,0.806,0.806,0.806,0.806,0.806,0.806,0.806,0.806,0.806,0.806,0.806,0.806,0.806,0.806,0.806,0.806,0.806,0.7056,0.5538,0.3186,0.2179,-0.067,-0.4523,-0.5368,-0.6714,-0.806,-0.806,-0.806,-0.806,-0.806,-0.806,-0.806,-0.806,-0.806,-0.806,-0.806,-0.806,-0.806,-0.806,-0.806,-0.806,-0.806,-0.7729,-0.7428,-0.7424,-0.6952,-0.6286,-0.6421,-0.6454,-0.6276,-0.5741,-0.6097,-0.6276,-0.5741,-0.5741,-0.5741,-0.5741,-0.5741,-0.5741,-0.5741,-0.5741,-0.5741,-0.5741,-0.5741,-0.5741,-0.5741,-0.5741,-0.5741,-0.5741,-0.5741,-0.5741,-0.5741,-0.5741,-0.5741,-0.5741,-0.5741,-0.5766,-0.5818,-0.582,-0.5845,-0.5897,-0.5856,-0.5883,-0.5989,-0.6006,-0.6038,-0.6087,-0.6093,-0.6098,0.5994,0.6202,0.6394,0.6537,0.6672,0.6827,0.7056,0.719,0.7301,0.7423,0.7521,0.7615,0.7705,0.7721,0.7754,0.7844,0.786,0.7872,0.7909,0.7913,0.7913,0.7913,0.7913,0.7913,0.7913,0.7913,0.7913,0.7913,0.7913,0.7913,0.7913,0.7913,0.7913,0.7913,0.7913,0.7913,0.7913,0.7966,0.8015,0.806,0.7725,0.7052,0.6041,0.52,0.2178,-0.2513,-0.2849,-0.3858,-0.5203,-0.6211,-0.6546,-0.6714,-0.7725,-0.806,-0.806,-0.806,-0.806,-0.806,-0.806,-0.806,-0.806,-0.806,-0.806,-0.806,-0.806,-0.7897,-0.7765,-0.7597,-0.7299,-0.6986,-0.6599,-0.6633,-0.6637,-0.592,-0.6097,-0.6276,-0.5741,-0.5741,-0.5741,-0.5741,-0.5741,-0.5741,-0.5741,-0.5741,-0.5741,-0.5741,-0.5741,-0.5741,-0.5741,-0.5741,-0.5741,-0.5741,-0.5741,-0.5741,-0.5741,-0.5741,-0.5741,-0.5741,-0.5774,-0.5804,-0.5831,-0.5864,-0.591,-0.5973,-0.5948,-0.5959,-0.6014,-0.6046,-0.6074,-0.6098,-0.6098,-0.6098,0.5978,0.6133,0.6272,0.6362,0.6537,0.6737,0.6917,0.7096,0.726,0.7366,0.7444,0.7517,0.7611,0.7627,0.7656,0.775,0.7766,0.7774,0.7795,0.7799,0.7799,0.7799,0.7799,0.7799,0.7799,0.7799,0.7799,0.7799,0.7799,0.7799,0.7799,0.7799,0.7799,0.7799,0.7799,0.7799,0.7799,0.7864,0.7942,0.8032,0.8032,0.804,0.806,0.7391,0.4695,0.067,0.0,-0.1006,-0.218,-0.369,-0.436,-0.453,-0.6546,-0.7387,-0.7387,-0.7893,-0.806,-0.806,-0.806,-0.806,-0.806,-0.806,-0.806,-0.806,-0.806,-0.806,-0.8101,-0.7769,-0.7645,-0.7509,-0.6955,-0.717,-0.7173,-0.6099,-0.6467,-0.6655,-0.5923,-0.5741,-0.5741,-0.5741,-0.5741,-0.5741,-0.5741,-0.5741,-0.5741,-0.5741,-0.5741,-0.5741,-0.5741,-0.5741,-0.5741,-0.5741,-0.5741,-0.5741,-0.5741,-0.5741,-0.5741,-0.5741,-0.5798,-0.5839,-0.5853,-0.5913,-0.5973,-0.6033,-0.6036,-0.6036,-0.6036,-0.6076,-0.6098,-0.6098,-0.6098,-0.6098,0.59,0.6178,0.6398,0.6235,0.6586,0.6949,0.6876,0.7003,0.7182,0.7354,0.7395,0.7423,0.7517,0.7533,0.7562,0.7656,0.7668,0.7701,0.7787,0.7799,0.7799,0.7799,0.7799,0.7799,0.7799,0.7799,0.7799,0.7799,0.7799,0.7799,0.7799,0.7799,0.7799,0.7799,0.7799,0.7799,0.7799,0.7803,0.7852,0.7942,0.7942,0.7983,0.806,0.806,0.7391,0.6211,0.3521,0.1508,-0.0167,-0.1173,-0.1508,-0.1844,-0.4528,-0.5538,-0.5706,-0.7387,-0.806,-0.806,-0.806,-0.806,-0.806,-0.806,-0.806,-0.806,-0.806,-0.806,-0.8101,-0.8285,-0.7992,-0.7683,-0.7844,-0.7885,-0.7706,-0.6633,-0.7224,-0.7439,-0.5932,-0.5741,-0.5741,-0.5741,-0.5741,-0.5741,-0.5741,-0.5741,-0.5741,-0.5741,-0.5741,-0.5741,-0.5741,-0.5741,-0.5741,-0.5741,-0.5741,-0.5741,-0.5741,-0.5741,-0.5741,-0.5741,-0.5798,-0.5858,-0.5916,-0.5976,-0.6036,-0.6093,-0.6093,-0.6093,-0.6093,-0.6096,-0.6098,-0.6098,-0.6098,-0.6098,0.5908,0.6137,0.6337,0.621,0.637,0.6566,0.659,0.6782,0.697,0.7031,0.7186,0.7317,0.735,0.7448,0.7537,0.757,0.7574,0.7586,0.7619,0.7623,0.7623,0.7623,0.7623,0.7623,0.7623,0.7623,0.7623,0.7623,0.7623,0.7623,0.7623,0.7623,0.7623,0.7623,0.7623,0.7652,0.7709,0.7713,0.7758,0.7848,0.7905,0.795,0.7983,0.8036,0.7893,0.7558,0.6546,0.52,0.3355,0.1844,0.134,0.1005,-0.1676,-0.3519,-0.4693,-0.5873,-0.7052,-0.806,-0.806,-0.806,-0.806,-0.806,-0.806,-0.806,-0.806,-0.806,-0.8089,-0.8211,-0.8117,-0.8027,-0.7844,-0.8106,-0.8324,-0.7602,-0.7262,-0.69,-0.629,-0.5918,-0.5741,-0.5741,-0.5741,-0.5741,-0.5741,-0.5741,-0.5741,-0.5741,-0.5741,-0.5741,-0.5741,-0.5741,-0.5741,-0.5741,-0.5741,-0.5741,-0.5741,-0.5777,-0.5798,-0.5798,-0.5894,-0.5959,-0.5981,-0.6036,-0.6076,-0.6098,-0.6098,-0.6098,-0.6098,-0.6098,-0.6098,-0.6098,-0.6098,-0.6098,0.5908,0.6112,0.6296,0.6202,0.6296,0.6423,0.6484,0.666,0.6827,0.6888,0.7043,0.719,0.7252,0.7358,0.7448,0.7476,0.7505,0.7525,0.7525,0.7525,0.7525,0.7525,0.7525,0.7525,0.7525,0.7525,0.7525,0.7525,0.7525,0.7525,0.7525,0.7525,0.7525,0.7525,0.7525,0.7554,0.7615,0.7615,0.7664,0.7754,0.7815,0.7876,0.7938,0.7995,0.8036,0.806,0.806,0.7391,0.6214,0.4698,0.4025,0.3856,0.1173,-0.067,-0.1842,-0.3184,-0.4358,-0.5533,-0.6038,-0.6208,-0.6376,-0.7052,-0.7223,-0.7223,-0.7223,-0.7391,-0.7581,-0.7696,-0.8117,-0.8201,-0.8203,-0.8289,-0.8336,-0.8186,-0.7443,-0.6516,-0.6674,-0.6293,-0.5741,-0.5741,-0.5741,-0.5741,-0.5741,-0.5741,-0.5741,-0.5741,-0.5741,-0.5741,-0.5741,-0.5741,-0.5741,-0.5741,-0.5741,-0.5749,-0.5769,-0.5809,-0.5839,-0.5861,-0.5957,-0.6014,-0.6014,-0.6068,-0.6098,-0.6098,-0.6098,-0.6098,-0.6098,-0.6098,-0.6098,-0.6098,-0.6098,-0.6098,0.0,0.0,0.0,0.6202,0.6378,0.6574,0.6578,0.6647,0.6766,0.6941,0.6978,0.7039,0.7219,0.7256,0.7284,0.7366,0.746,0.7517,0.7517,0.7517,0.7517,0.7521,0.7521,0.7521,0.7525,0.7525,0.7525,0.7525,0.7525,0.7525,0.7525,0.7525,0.7525,0.7525,0.7525,0.7525,0.7525,0.7525,0.757,0.766,0.766,0.7754,0.7929,0.7934,0.7978,0.806,0.806,0.806,0.8064,0.7056,0.6721,0.655,0.3858,0.2849,0.2514,0.0669,0.0,-0.0335,-0.201,-0.2682,-0.3018,-0.4703,-0.5376,-0.5376,-0.5376,-0.6047,-0.6751,-0.6901,-0.7638,-0.8205,-0.8562,-0.8254,-0.8094,-0.8533,-0.7585,-0.6655,-0.7269,-0.6504,-0.5741,-0.5741,-0.5741,-0.5741,-0.5741,-0.5741,-0.5741,-0.5741,-0.5741,-0.5741,-0.5741,-0.5741,-0.5741,-0.5741,-0.5741,-0.5766,-0.5826,-0.5834,-0.5861,-0.5921,-0.5981,-0.6016,-0.6016,-0.6068,-0.6098,-0.6098,-0.6098,-0.6098,-0.6098,-0.6098,-0.6098,-0.6098,-0.6098,-0.6098,0.599,0.0,0.0,0.0,0.0,0.0,0.628,0.6366,0.648,0.6664,0.6754,0.6856,0.7031,0.7064,0.7096,0.7182,0.7276,0.7337,0.7337,0.7337,0.7358,0.7419,0.7427,0.7452,0.7517,0.7525,0.7525,0.7525,0.7525,0.7525,0.7525,0.7525,0.7525,0.7525,0.7525,0.7525,0.7525,0.7525,0.7537,0.7566,0.7631,0.7689,0.7742,0.7876,0.7946,0.7974,0.8036,0.806,0.806,0.7893,0.7725,0.7558,0.6211,0.4863,0.3517,0.2345,0.1172,-0.0,-0.0502,-0.1674,-0.2849,-0.3353,-0.4365,-0.5376,-0.5376,-0.5547,-0.5729,-0.5813,-0.6043,-0.647,-0.7377,-0.7656,-0.7688,-0.8561,-0.8171,-0.7606,-0.7211,-0.6649,-0.6097,-0.5741,-0.5741,-0.5741,-0.5741,-0.5741,-0.5741,-0.5741,-0.5741,-0.5741,-0.5741,-0.5741,-0.5741,-0.5741,-0.5741,-0.5766,-0.5826,-0.5872,-0.5924,-0.5984,-0.6041,-0.6074,-0.6074,-0.609,-0.6098,-0.6098,-0.6098,-0.6098,-0.6098,-0.6098,-0.6098,-0.6098,-0.6098,-0.6098,0.0,0.0,0.6247,0.6284,0.0,0.0,0.6219,0.6223,0.6247,0.639,0.6492,0.6598,0.6741,0.6827,0.6884,0.69,0.7011,0.7133,0.7248,0.7264,0.728,0.7329,0.7337,0.7358,0.7411,0.7415,0.7431,0.7464,0.7468,0.7484,0.7521,0.7525,0.7525,0.7525,0.7525,0.7525,0.7525,0.7525,0.7525,0.7525,0.7578,0.7627,0.7668,0.7811,0.7901,0.7938,0.8023,0.806,0.806,0.806,0.806,0.806,0.7558,0.6714,0.57,0.5198,0.4356,0.3348,0.2511,0.1508,0.0503,-0.0168,-0.1678,-0.3191,-0.3191,-0.3864,-0.489,-0.4969,-0.5219,-0.5836,-0.6482,-0.6725,-0.6925,-0.779,-0.7779,-0.7405,-0.7184,-0.6812,-0.6276,-0.5741,-0.5741,-0.5741,-0.5741,-0.5741,-0.5741,-0.5741,-0.5741,-0.5741,-0.5741,-0.5741,-0.5741,-0.5741,-0.5741,-0.5777,-0.5861,-0.5902,-0.5959,-0.6044,-0.6079,-0.6098,-0.6098,-0.6098,-0.6098,-0.6098,-0.6098,-0.6098,-0.6098,-0.6098,-0.6098,-0.6098,-0.6098,-0.6098,0.0,0.0,0.0,0.6419,0.6325,0.0,0.6288,0.6194,0.6121,0.6194,0.6276,0.6366,0.648,0.6623,0.6705,0.6631,0.6749,0.6937,0.7182,0.7227,0.7235,0.7248,0.7248,0.7252,0.7264,0.7264,0.7297,0.737,0.7374,0.7411,0.7493,0.7497,0.7501,0.7509,0.7509,0.7513,0.7525,0.7525,0.7525,0.7525,0.7525,0.757,0.7652,0.7742,0.7831,0.7925,0.8011,0.8052,0.806,0.806,0.806,0.806,0.806,0.806,0.806,0.806,0.806,0.7893,0.6211,0.5538,0.5203,0.3524,0.1847,0.0336,0.0,-0.168,-0.3546,-0.3968,-0.4758,-0.5373,-0.5552,-0.5557,-0.5741,-0.6815,-0.6633,-0.6454,-0.6994,-0.6633,-0.6276,-0.5741,-0.5741,-0.5741,-0.5741,-0.5741,-0.5741,-0.5741,-0.5741,-0.5741,-0.5741,-0.5741,-0.5741,-0.5741,-0.5741,-0.579,-0.5913,-0.5924,-0.5973,-0.609,-0.6098,-0.6098,-0.6098,-0.6098,-0.6098,-0.6098,-0.6098,-0.6098,-0.6098,-0.6098,-0.6098,-0.6098,-0.6098,-0.6098,0.0,0.0,0.0,0.0,0.6374,0.0,0.6235,0.6296,0.6382,0.6398,0.6415,0.6496,0.6733,0.6749,0.6745,0.6794,0.6831,0.6872,0.6925,0.6994,0.7072,0.7145,0.7154,0.7182,0.7256,0.7264,0.7272,0.7284,0.7288,0.7297,0.7313,0.7313,0.7346,0.7415,0.7415,0.7452,0.7525,0.7525,0.7525,0.7525,0.7525,0.7533,0.7554,0.7648,0.7738,0.7831,0.7921,0.7999,0.806,0.806,0.806,0.806,0.806,0.806,0.806,0.806,0.806,0.806,0.7725,0.6546,0.5371,0.5036,0.3692,0.1847,0.0504,-0.0336,-0.1011,-0.2564,-0.3139,-0.3546,-0.4429,-0.4637,-0.4845,-0.5741,-0.592,-0.592,-0.592,-0.592,-0.5741,-0.5747,-0.5744,-0.5741,-0.5741,-0.5741,-0.5741,-0.5741,-0.5741,-0.5741,-0.5741,-0.5741,-0.5741,-0.5741,-0.5741,-0.579,-0.5913,-0.5924,-0.5973,-0.609,-0.6098,-0.6098,-0.6098,-0.6098,-0.6098,-0.6098,-0.6098,-0.6098,-0.6098,-0.6098,-0.6098,-0.6098,-0.6098,-0.6098,0.0,0.0,0.0,0.6573,0.0,0.0,0.0,0.6251,0.6268,0.6308,0.6317,0.6374,0.6553,0.6586,0.6607,0.6647,0.6656,0.67,0.6835,0.6892,0.6937,0.6986,0.699,0.7027,0.7117,0.7084,0.7096,0.7186,0.7235,0.7264,0.7264,0.7264,0.728,0.7325,0.7325,0.7366,0.7456,0.7456,0.748,0.7525,0.7525,0.7525,0.7529,0.7619,0.7713,0.7803,0.7897,0.7983,0.806,0.806,0.806,0.806,0.806,0.806,0.806,0.806,0.806,0.806,0.806,0.7554,0.6714,0.6714,0.5538,0.386,0.3021,0.1348,-0.0339,-0.222,-0.277,-0.2985,-0.3354,-0.3547,-0.3746,-0.4838,-0.5025,-0.5025,-0.538,-0.5562,-0.5562,-0.5386,-0.5565,-0.5744,-0.5741,-0.5741,-0.5741,-0.5741,-0.5741,-0.5741,-0.5741,-0.5741,-0.5741,-0.5741,-0.5741,-0.5777,-0.5869,-0.5905,-0.5959,-0.6049,-0.6082,-0.6098,-0.6098,-0.6098,-0.6098,-0.6098,-0.6098,-0.6098,-0.6098,-0.6098,-0.6098,-0.6098,-0.6098,-0.6098,0.0,0.0,0.0,0.0,0.0,0.6535,0.0,0.0,0.0,0.6198,0.6219,0.6259,0.6353,0.6431,0.6476,0.6455,0.6484,0.657,0.6749,0.6807,0.6847,0.69,0.6843,0.686,0.7003,0.6917,0.6909,0.7039,0.7133,0.7186,0.7186,0.7203,0.7219,0.7235,0.7235,0.7276,0.7362,0.7382,0.7427,0.7501,0.7517,0.7525,0.7529,0.7603,0.7697,0.7803,0.7876,0.7966,0.806,0.806,0.806,0.806,0.806,0.806,0.806,0.806,0.806,0.806,0.806,0.806,0.806,0.806,0.6885,0.5371,0.5371,0.3041,0.017,-0.1704,-0.2234,-0.2259,-0.2629,-0.2819,-0.3011,-0.3752,-0.3943,-0.4128,-0.4485,-0.4845,-0.5025,-0.4848,-0.5209,-0.5747,-0.5744,-0.5741,-0.5741,-0.5741,-0.5741,-0.5741,-0.5741,-0.5741,-0.5741,-0.5741,-0.5741,-0.5766,-0.5826,-0.5878,-0.5935,-0.6008,-0.6057,-0.6087,-0.6098,-0.6098,-0.6098,-0.6098,-0.6098,-0.6098,-0.6098,-0.6098,-0.6098,-0.6098,-0.6098,-0.6098,0.0,0.0,0.0,0.0,0.7659,0.0,0.0,0.0,0.6484,0.6333,0.0,0.6451,0.6541,0.0,0.0,0.6468,0.659,0.6651,0.6517,0.6639,0.6827,0.7068,0.6815,0.6749,0.708,0.6954,0.6831,0.6774,0.6851,0.69,0.69,0.6978,0.706,0.7137,0.7141,0.7186,0.7276,0.735,0.7395,0.7407,0.7484,0.7525,0.7525,0.7537,0.7635,0.7799,0.7811,0.7909,0.806,0.806,0.806,0.806,0.806,0.806,0.806,0.806,0.806,0.806,0.806,0.806,0.806,0.806,0.6885,0.5371,0.5371,0.4031,0.2018,0.0168,-0.0339,-0.0685,-0.2231,-0.2788,-0.2829,-0.301,-0.3033,-0.3053,-0.3053,-0.3233,-0.3412,-0.4128,-0.5032,-0.5752,-0.5747,-0.5744,-0.5741,-0.5741,-0.5741,-0.5741,-0.5741,-0.5741,-0.5741,-0.5741,-0.5741,-0.5766,-0.5826,-0.5839,-0.5891,-0.6006,-0.6019,-0.6046,-0.6096,-0.6098,-0.6098,-0.6098,-0.6098,-0.6098,-0.6098,-0.6098,-0.6098,-0.6098,-0.6098,-0.6098,0.0,0.0,0.0,0.0,0.0,0.0,0.7314,0.0,0.704,0.0,0.0,0.0,0.0,0.0,0.0,0.0,0.6509,0.65,0.6529,0.6419,0.6476,0.6847,0.6713,0.6647,0.6798,0.6794,0.6766,0.6729,0.6807,0.6831,0.6782,0.6913,0.6982,0.697,0.7019,0.7088,0.7182,0.7272,0.7341,0.739,0.748,0.7525,0.7525,0.7525,0.7599,0.7721,0.7721,0.7823,0.7987,0.7987,0.8019,0.806,0.806,0.806,0.806,0.806,0.806,0.806,0.806,0.806,0.806,0.806,0.7558,0.6714,0.5706,0.4868,0.386,0.2014,0.0842,-0.0169,-0.0853,-0.1894,-0.2785,-0.2821,-0.2838,-0.2852,-0.287,-0.2874,-0.2874,-0.2693,-0.2513,-0.3053,-0.5391,-0.5747,-0.5744,-0.5741,-0.5741,-0.5741,-0.5741,-0.5741,-0.5741,-0.5741,-0.5741,-0.5752,-0.5777,-0.5845,-0.5907,-0.5957,-0.6025,-0.6074,-0.6098,-0.6098,-0.6098,-0.6098,-0.6098,-0.6098,-0.6098,-0.6098,-0.6098,-0.6098,-0.6098,-0.6098,1.0741,0.0,0.0,0.0,0.0,0.0,0.0,0.0,0.0,0.0,0.6983,0.0,0.0,0.0,0.6533,0.6549,0.0,0.646,0.6541,0.6329,0.6304,0.668,0.6713,0.668,0.6631,0.6688,0.6705,0.6656,0.6709,0.6717,0.6656,0.6819,0.6896,0.6856,0.6941,0.7023,0.7088,0.7178,0.7268,0.7354,0.7444,0.7501,0.7525,0.7525,0.7574,0.7664,0.7664,0.7766,0.7934,0.7934,0.7987,0.806,0.806,0.806,0.806,0.806,0.806,0.806,0.806,0.806,0.806,0.806,0.806,0.7893,0.6546,0.6211,0.5706,0.4027,0.2518,0.1346,0.0848,-0.0682,-0.2062,-0.2101,-0.2469,-0.2837,-0.2867,-0.2874,-0.2515,-0.1616,-0.0718,-0.0898,-0.3593,-0.5029,-0.5747,-0.5744,-0.5744,-0.5744,-0.5744,-0.5741,-0.5741,-0.5741,-0.5741,-0.5741,-0.5741,-0.5837,-0.5913,-0.5946,-0.6041,-0.6098,-0.6098,-0.6098,-0.6098,-0.6098,-0.6098,-0.6098,-0.6098,-0.6098,-0.6098,-0.6098,-0.6098,-0.6098,0.0,0.0,0.0,1.0451,0.0,0.0,0.0,0.0,0.8756,0.0,0.0,0.0,0.0,0.0,0.0,0.0,0.6602,0.0,0.0,0.6447,0.6513,0.6705,0.6876,0.6909,0.6737,0.6725,0.6651,0.6476,0.6464,0.6464,0.6464,0.6635,0.677,0.6851,0.6941,0.699,0.6994,0.7084,0.7178,0.7268,0.7354,0.7439,0.7525,0.7525,0.7574,0.7664,0.7664,0.7766,0.7934,0.7934,0.7987,0.806,0.806,0.806,0.806,0.806,0.806,0.806,0.806,0.806,0.806,0.806,0.806,0.806,0.806,0.806,0.7558,0.5873,0.5203,0.4868,0.3023,0.1185,-0.0171,-0.0173,-0.1578,-0.2837,-0.2867,-0.2874,-0.2515,-0.1616,-0.0718,-0.0,-0.018,-0.3231,-0.5747,-0.5747,-0.5747,-0.5747,-0.5747,-0.5744,-0.5741,-0.5741,-0.5741,-0.5741,-0.5741,-0.5798,-0.5886,-0.6003,-0.6066,-0.6098,-0.6098,-0.6098,-0.6098,-0.6098,-0.6098,-0.6098,-0.6098,-0.6098,-0.6098,-0.6098,-0.6098,-0.6098,0.0,0.0,1.1234,1.0849,0.0,0.0,0.0,0.0,0.0,0.0,0.0,0.0,0.0,0.0,0.0,0.0,0.6868,0.6574,0.0,0.6362,0.6386,0.6447,0.6562,0.6611,0.6549,0.6435,0.6366,0.6362,0.6255,0.6215,0.6272,0.6504,0.6647,0.668,0.6823,0.6929,0.699,0.708,0.7174,0.7264,0.735,0.7435,0.7525,0.7525,0.7542,0.757,0.757,0.764,0.7758,0.7819,0.7897,0.7983,0.804,0.806,0.806,0.806,0.806,0.806,0.806,0.806,0.806,0.806,0.806,0.806,0.806,0.806,0.7893,0.7387,0.6379,0.5203,0.4698,0.3215,0.1541,0.0173,-0.0525,-0.124,-0.2688,-0.2874,-0.2874,-0.2515,-0.1077,0.0,0.0,-0.1077,-0.2333,-0.359,-0.3769,-0.4307,-0.5567,-0.5747,-0.5744,-0.5741,-0.5741,-0.5741,-0.5741,-0.5834,-0.5943,-0.6063,-0.6087,-0.6098,-0.6098,-0.6098,-0.6098,-0.6098,-0.6098,-0.6098,-0.6098,-0.6098,-0.6098,-0.6098,-0.6098,-0.6098,1.0748,1.1002,0.0,1.1201,1.112,0.0,1.0612,0.0,1.0461,0.0,0.0,0.0,0.0,0.0,0.0,0.7936,0.7314,0.6796,0.0,0.6288,0.628,0.6313,0.6427,0.6476,0.6411,0.6329,0.6276,0.6268,0.6104,0.6072,0.6223,0.6366,0.6488,0.6586,0.6762,0.6896,0.699,0.7047,0.7141,0.7264,0.7317,0.7407,0.7525,0.7525,0.7525,0.7525,0.7525,0.7578,0.7668,0.7762,0.7852,0.7942,0.8027,0.806,0.806,0.806,0.806,0.806,0.806,0.806,0.806,0.806,0.806,0.806,0.806,0.806,0.806,0.806,0.7219,0.6379,0.6379,0.5076,0.3423,0.225,0.14,0.0708,-0.0537,-0.1436,-0.2154,-0.2693,-0.1616,-0.0359,-0.0,0.0,-0.0359,-0.1615,-0.1795,-0.2872,-0.5391,-0.5749,-0.5747,-0.5744,-0.5744,-0.576,-0.5801,-0.5878,-0.5973,-0.609,-0.6098,-0.6098,-0.6098,-0.6098,-0.6109,-0.6131,-0.6109,-0.6109,-0.6131,-0.6109,-0.6098,-0.6098,-0.6098,-0.6098]}]]